[[{"header":{"parameterUnit":"m.s-1","parameterCategory":1,"la1":30.6,"la2":29.2853,"lo1":-89.7004,"lo2":-87.6739,"dy":0.0162,"dx":0.0183,"nx":112,"ny":82,"refTime":"2024-06-20T12:00:00:Z","depth":0,"parameterNumber":2,"parameterNumberName":"U-component_of_WINDS"},"data":[0.0,0.0,0.0,0.0,0.0,0.0,0.0,0.0,0.0,0.0,0.0,0.0,0.0,0.0,0.0,0.0,0.0,0.0,0.0,0.0,0.0,0.0,0.0,0.0,0.0,0.0,0.0,0.0,0.0,0.0,0.0,0.0,0.0,0.0,0.0,0.0,0.0,0.0,0.0,0.0,0.0,0.0,0.0,0.0,0.0,0.0,0.0,0.0,0.0,0.0,0.0,0.0,0.0,0.0,0.0,0.0,0.0,0.0,0.0,0.0,0.0,0.0,0.0,0.0,0.0,0.0,0.0,0.0,0.0,0.0,0.0,0.0,0.0,0.0,0.0,0.0,0.0,0.0,0.0,0.0,0.0,0.0,0.0,0.0,0.0,0.0,0.0,0.0,0.0,0.0,-0.0258,0.003,0.0487,0.074,0.071,-0.04,-0.1161,-0.1289,0.0,0.0,0.0,0.0,0.0,0.0,0.0,0.0,0.0,0.0,0.0,0.0,0.0,0.0,0.0,0.0,0.0,0.0,0.0,0.0,0.0,0.0,0.0,0.0,0.0,0.0,0.0,0.0,0.0,0.0,0.0,0.0,0.0,0.0,0.0,0.0,0.0,0.0,0.0,0.0,0.0,0.0,0.0,0.0,0.0,0.0,0.0,0.0,0.0,0.0,0.0,0.0,0.0,0.0,0.0,0.0,0.0,0.0,0.0,0.0,0.0,0.0,0.0,0.0,0.0,0.0,0.0,0.0,0.0,0.0,0.0,0.0,0.0,0.0,0.0,0.0,0.0,0.0,0.0,0.0,0.0,0.0,0.0,0.0,0.0,0.0,0.0,0.0,0.0,0.0,0.0,0.0,0.0,0.0,0.0,0.0,0.0,0.0,0.0,0.0,0.0,0.0,0.0,0.0,0.0583,0.0367,0.0218,0.0043,-0.0183,-0.0752,-0.1416,-0.2149,0.0,0.0,0.0,0.0,0.0,0.0,0.0,0.0,0.0,0.0,0.0,0.0,0.0,0.0,0.0,0.0,0.0,0.0,0.0,0.0,0.0,0.0,0.0,0.0,0.0,0.0,0.0,0.0,0.0,0.0,0.0,0.0,0.0,0.0,0.0,0.0,0.0,0.0,0.0,0.0,0.0,0.0,0.0,0.0,0.0,0.0,0.0,0.0,0.0,0.0,0.0,0.0,0.0,0.0,0.0,0.0,0.0,0.0,0.0,0.0,0.0,0.0,0.0,0.0,0.0,0.0,0.0,0.0,0.0,0.0,0.0,0.0,0.0,0.0,0.0,0.0,0.0,0.0,0.0,0.0,0.0,0.0,0.0,0.0,0.0,0.0,0.0,0.0,0.0,0.0,0.0,0.0,0.0,0.0,0.0,0.0,0.0,0.0,0.0,0.0,0.0,0.0,0.0,0.0518,0.0653,0.0277,-0.003,-0.0269,-0.0383,-0.1326,-0.2078,-0.2492,-0.3048,0.0,0.0,0.0,0.0,0.0,0.0,0.0,0.0,0.0,0.0,0.0,0.0,0.0,0.0,0.0,0.0,0.0,0.0,0.0,0.0,0.0,0.0,0.0,0.0,0.0,0.0,0.0,0.0,0.0,0.0,0.0,0.0,0.0,0.0,0.0,0.0,0.0,0.0,0.0,0.0,0.0,0.0,0.0,0.0,0.0,0.0,0.0,0.0,0.0,0.0,0.0,0.0,0.0,0.0,0.0,0.0,0.0,0.0,0.0,0.0,0.0,0.0,0.0,0.0,0.0,0.0,0.0,0.0,0.0,0.0,0.0,0.0,0.0,0.0,0.0,0.0,0.0,0.0,0.0,0.0,0.0,0.0,0.0,0.0,0.0,0.0,0.0,0.0,0.0,0.0,0.0,0.0,0.0,0.0,0.0,0.0,0.0,0.0,0.0,0.0,0.0,0.0,0.0432,0.0624,0.0342,-0.0093,-0.0449,-0.0659,-0.1851,-0.2679,-0.289,-0.3346,0.0,0.0,0.0,0.0,0.0,0.0,0.0,0.0,0.0,0.0,0.0,0.0,0.0,0.0,0.0,0.0,0.0,0.0,0.0,0.0,0.0,0.0,0.0,0.0,0.0,0.0,0.0,0.0,0.0,0.0,0.0,0.0,0.0,0.0,0.0,0.0,0.0,0.0,0.0,0.0,0.0,0.0,0.0,0.0,0.0,0.0,0.0,0.0,0.0,0.0,0.0,0.0,0.0,0.0,0.0,0.0,0.0,0.0,0.0,0.0,0.0,0.0,0.0,0.0,0.0,0.0,0.0,0.0,0.0,0.0,0.0,0.0,0.0,0.0,0.0,0.0,0.0,0.0,0.0,0.0,0.0,0.0,0.0,0.0,0.0,0.0,0.0,0.0,0.0,0.0,0.0,0.0,0.0,0.0,0.0,0.0,0.0,0.0,0.0,0.0,0.0,0.0,0.073,0.0835,0.0934,0.0251,-0.0568,-0.1443,-0.213,-0.288,-0.3747,-0.3679,0.0,0.0,0.0,0.0,0.0,0.0,0.0,0.0,0.0,0.0,0.0,0.0,0.0,0.0,0.0,0.0,0.0,0.0,0.0,0.0,0.0,0.0,0.0,0.0,0.0,0.0,0.0,0.0,0.0,0.0,0.0,0.0,0.0,0.0,0.0,0.0,0.0,0.0,0.0,0.0,0.0,0.0,0.0,0.0,0.0,0.0,0.0,0.0,0.0,0.0,0.0,0.0,0.0,0.0,0.0,0.0,0.0,0.0,0.0,0.0,0.0,0.0,0.0,0.0,0.0,0.0,0.0,0.0,0.0,0.0,0.0,0.0,0.0,0.0,0.0,0.0,0.0,0.0,0.0,0.0,0.0,0.0,0.0,0.0,0.0,0.0,0.0,0.0,0.0,0.0,0.0,0.0,0.0,0.0,0.0,0.0,0.0,0.0,0.0,0.0,0.0,0.0,0.1195,0.1183,0.1074,0.0262,-0.0574,-0.1354,-0.2124,-0.2915,-0.3722,0.0,0.0,0.0,0.0,0.0,0.0,0.0,0.0,0.0,0.0,0.0,0.0,0.0,0.0,0.0,0.0,0.0,0.0,0.0,0.0,0.0,0.0,0.0,0.0,0.0,0.0,0.0,0.0,0.0,0.0,0.0,0.0,0.0,0.0,0.0,0.0,0.0,0.0,0.0,0.0,0.0,0.0,0.0,0.0,0.0,0.0,0.0,0.0,0.0,0.0,0.0,0.0,0.0,0.0,0.0,0.0,0.0,0.0,0.0,0.0,0.0,0.0,0.0,0.0,0.0,0.0,0.0,0.0,0.0,0.0,0.0,0.0,0.0,0.0,0.0,0.0,0.0,0.0,0.0,0.0,0.0,0.0,0.0,0.0,0.0,0.0,0.0,0.0,0.0,0.0,0.0,0.0,0.0,0.0,0.0,0.0,0.0,0.0,0.0,0.0,0.0,0.0,0.1186,0.1244,0.1233,0.1106,0.0471,-0.0234,-0.0927,-0.1724,-0.2528,-0.3293,0.0,0.0,0.0,0.0,0.0,0.0,0.0,0.0,0.0,0.0,0.0,0.0,0.0,0.0,0.0,0.0,0.0,0.0,0.0,0.0,0.0,0.0,0.0,0.0,0.0,0.0,0.0,0.0,0.0,0.0,0.0,0.0,0.0,0.0,0.0,0.0,0.0,0.0,0.0,0.0,0.0,0.0,0.0,0.0,0.0,0.0,0.0,0.0,0.0,0.0,0.0,0.0,0.0,0.0,0.0,0.0,0.0,0.0,0.0,0.0,0.0,0.0,0.0,0.0,0.0,0.0,0.0,0.0,0.0,0.0,0.0,0.0,0.0,0.0,0.0,0.0,0.0,0.0,0.0,0.0,0.0,0.0,0.0,0.0,0.0,0.0,0.0,0.0,0.0,0.0,0.0,0.0,0.0,0.0,0.0,0.0,0.0,0.0,0.0,0.0,0.0,0.0,0.0772,0.0812,0.0891,0.1076,0.0909,0.0499,-0.0242,-0.0924,-0.167,0.0,0.0,0.0,0.0,0.0,0.0,0.0,0.0,0.0,0.0,0.0,0.0,0.0,0.0,0.0,0.0,0.0,0.0,0.0,0.0,0.0,0.0,0.0,0.0,0.0,0.0,0.0,0.0,0.0,0.0,0.0,0.0,0.0,0.0,0.0,0.0,0.0,0.0,0.0,0.0,0.0,0.0,0.0,0.0,0.0,0.0,0.0,0.0,0.0,0.0,0.0,0.0,0.0,0.0,0.0,0.0,0.0,0.0,0.0,0.0,0.0,0.0,0.0,0.0,0.0,0.0,0.0,0.0,0.0,0.0,0.0,0.0,0.0,0.0,0.0,0.0,0.0,0.0,0.0,0.0,0.0,0.0,0.0,0.0,0.0,0.0,0.0,0.0,0.0,0.0,0.0,0.0,0.0,0.0,0.0,0.0,0.0,0.0,0.0,0.0,0.0,0.0,0.0,0.0787,0.1133,0.1273,0.1046,0.0593,0.0173,-0.0125,-0.1168,-0.1929,-0.2235,0.0,0.0,0.0,0.0,0.0,0.0,0.0,0.0,0.0,0.0,0.0,0.0,0.0,0.0,0.0,0.0,0.0,0.0,0.0,0.0,0.0,0.0,0.0,0.0,0.0,0.0,0.0,0.0,0.0,0.0,0.0,0.0,0.0,0.0,0.0,0.0,0.0,0.0,0.0,0.0,0.0,0.0,0.0,0.0,0.0,0.0,0.0,0.0,0.0,0.0,0.0,0.0,0.0,0.0,0.0,0.0,0.0,0.0,0.0,0.0,0.0,0.0,0.0,0.0,0.0,0.0,0.0,0.0,0.0,0.0,0.0,0.0,0.0,0.0,0.0,0.0,0.0,0.0,0.0,0.0,0.0,0.0,0.0,0.0,0.0,0.0,0.0,0.0,0.0,0.0,0.0,0.0,0.0,0.0,0.0,0.0,0.0,0.0,0.0,0.0,0.0,0.0,0.1062,0.1182,0.1204,0.1095,0.0498,0.0061,-0.0045,-0.1173,-0.193,-0.2049,0.0,0.0,0.0,0.0,0.0,0.0,0.0,0.0,0.0,0.0,0.0,0.0,0.0,0.0,0.0,0.0,0.0,0.0,0.0,0.0,0.0,0.0,0.0,0.0,0.0,0.0,0.0,0.0,0.0,0.0,0.0,0.0,0.0,0.0,0.0,0.0,0.0,0.0,0.0,0.0,0.0,0.0,0.0,0.0,0.0,0.0,0.0,0.0,0.0,0.0,0.0,0.0,0.0,0.0,0.0,0.0,0.0,0.0,0.0,0.0,0.0,0.0,0.0,0.0,0.0,0.0,0.0,0.0,0.0,0.0,0.0,0.0,0.0,0.0,0.0,0.0,0.0,0.0,0.0,0.0,0.0,0.0,0.0,0.0,0.0,0.0,0.0,0.0,0.0,0.0,0.0,0.0,0.0,0.0,0.0,0.0,0.0,0.0,0.0,0.0,0.0,0.0,0.1444,0.1106,0.0895,0.1169,0.0551,0.0075,0.0,-0.1054,-0.179,-0.1978,0.0,0.0,0.0,0.0,0.0,0.0,0.0,0.0,0.0,0.0,0.0,0.0,0.0,0.0,0.0,0.0,0.0,0.0,0.0,0.0,0.0,0.0,0.0,0.0,0.0,0.0,0.0,0.0,0.0,0.0,0.0,0.0,0.0,0.0,0.0,0.0,0.0,0.0,0.0,0.0,0.0,0.0,0.0,0.0,0.0,0.0,0.0,0.0,0.0,0.0,0.0,0.0,0.0,0.0,0.0,0.0,0.0,0.0,0.0,0.0,0.0,0.0,0.0,0.0,0.0,0.0,0.0,0.0,0.0,0.0,0.0,0.0,0.0,0.0,0.0,0.0,0.0,0.0,0.0,0.0,0.0,0.0,0.0,0.0,0.0,0.0,0.0,0.0,0.0,0.0,0.0,0.0,0.0,0.0,0.0,0.0,0.0,0.0,0.0,0.0,0.0,0.0,0.1005,0.13,0.142,0.1224,0.0581,0.0128,0.0014,-0.1089,-0.179,-0.1846,-0.2319,0.0,0.0,0.0,0.0,0.0,0.0,0.0,0.0,0.0,0.0,0.0,0.0,0.0,0.0,0.0,0.0,0.0,0.0,0.0,0.0,0.0,0.0,0.0,0.0,0.0,0.0,0.0,0.0,0.0,0.0,0.0,0.0,0.0,0.0,0.0,0.0,0.0,0.0,0.0,0.0,0.0,0.0,0.0,0.0,0.0,0.0,0.0,0.0,0.0,0.0,0.0,0.0,0.0,0.0,0.0,0.0,0.0,0.0,0.0,0.0064,0.0,0.0,0.0,0.0,0.0,0.0,0.0,0.0,0.0,0.0,0.0,0.0,0.0,0.0,0.0,0.0,0.0,0.0,0.0,0.0,0.0,0.0,0.0,0.0,0.0,0.0,0.0,0.0,0.0,0.0,0.0,0.0,0.0,0.0,0.0,0.0,0.0,0.0,0.0,0.0,0.0,0.1283,0.1328,0.1333,0.1384,0.051,-0.0154,-0.0322,-0.1231,-0.193,-0.2212,-0.2467,0.0,0.0,0.0,0.0,0.0,0.0,0.0,0.0,0.0,0.0,0.0,0.0,0.0,0.0,0.0,0.0,0.0,0.0,0.0,0.0,0.0,0.0,0.0,0.0,0.0,0.0,0.0,0.0,0.0,0.0,0.0,0.0,0.0,0.0,0.0,0.0,0.0,0.0,0.0,0.0,0.0,0.0,0.0,0.0,0.0,0.0,0.0,0.0,0.0,0.0,0.0,0.0,0.0,0.0629,0.0635,0.06,0.06,0.0575,0.0495,0.0217,0.0083,0.005,0.0016,0.0,0.0,0.0,0.0,0.0,0.0,0.0,0.0,0.0,0.0,0.0,0.0,0.0,0.0,0.0,0.0,0.0,0.0,0.0,0.0,0.0,0.0,0.0986,0.0883,0.0847,0.076,0.0457,0.0,0.0,0.0,0.0,0.0,0.0,0.0,0.0,0.0,0.0,0.0,0.1742,0.1382,0.1172,0.1445,0.0561,-0.0238,-0.0699,-0.1271,-0.1902,-0.2565,-0.2605,-0.26,0.0,0.0,0.0,0.0,0.0,0.0,0.0,0.0,0.0,0.0,0.0,0.0,0.0,0.0,0.0,0.0,0.0,0.0,0.0,0.0,0.0,0.0,0.0,0.0,0.0,0.0,0.0,0.0,0.0,0.0,0.0,0.0,0.11,0.1235,0.0,0.0,0.0,0.0,0.0,0.0,0.0,0.0,0.0,0.0,0.0,0.0,0.0,0.0591,0.0589,0.0752,0.0755,0.0595,0.0779,0.0761,0.0598,0.0598,0.0597,0.0577,0.0539,0.0,0.0253,0.0067,0.0,0.0,0.0,0.0,0.0,0.0,0.0,0.0,0.0,0.0,0.0,0.0,0.0,0.0,0.0,0.0,0.0,0.0,0.0,0.0,0.0,0.0,0.1085,0.1065,0.1067,0.1003,0.0784,0.0513,0.0293,0.026,0.0122,-0.003,0.0,0.0,0.0,0.0,0.0,0.0,0.1753,0.1782,0.1576,0.1054,0.1193,0.0743,-0.0743,-0.0852,-0.1257,-0.2212,-0.2483,-0.2629,-0.2684,-0.2495,0.0,0.0,0.0,0.0,0.0,0.0,0.0,0.0,0.0,0.0,0.0,0.0,0.0,0.0,0.0,0.0,0.0,0.0,0.0,0.0,0.0,0.0,0.0,0.0,0.0,0.0,0.0,0.0,0.0,0.1234,0.1233,0.1136,0.1158,0.1127,0.0,0.0,0.0,0.0,0.0,0.0,0.0,0.0,0.0,0.0934,0.0937,0.0929,0.0929,0.102,0.1028,0.0931,0.1024,0.1024,0.0931,0.0931,0.0942,0.0929,0.082,0.0719,0.0617,0.0423,0.0332,0.0329,0.0,0.0,0.0,0.0,0.0465,0.0481,0.062,0.0755,0.0858,0.0896,0.0,0.0,0.0,0.0,0.0,0.0,0.0,0.1005,0.1054,0.1083,0.1092,0.1092,0.1092,0.1076,0.0993,0.0759,0.0533,0.0334,0.0142,0.0157,0.0664,0.054,0.0,0.0,0.0,0.1355,0.1506,0.148,0.1439,0.1405,0.1291,0.0771,-0.0308,-0.0406,-0.0924,-0.2128,-0.2306,-0.2467,-0.2687,-0.2404,-0.2185,0.0,0.0,0.0,0.0,0.0,0.0,0.0,0.0,0.0,0.0,0.0,0.0,0.0,0.0,0.0,0.0,0.0,0.0,0.0,0.0,0.0,0.0,0.0,0.0,0.0,0.0,0.0,0.0,0.1413,0.142,0.1181,0.1257,0.1246,0.0,0.0,0.0,0.0,0.0,0.0,0.1201,0.1192,0.1196,0.1196,0.1223,0.1227,0.1227,0.1227,0.122,0.1223,0.1223,0.1223,0.1223,0.1223,0.1229,0.1209,0.106,0.1004,0.0985,0.0715,0.0601,0.0601,0.0601,0.0594,0.0601,0.065,0.0683,0.0698,0.0833,0.0904,0.0964,0.1008,0.1008,0.0998,0.1016,0.0,0.0,0.0,0.0,0.1032,0.1087,0.1092,0.1092,0.1092,0.1092,0.1092,0.1092,0.0942,0.0703,0.041,0.0196,0.0292,0.0997,0.0726,0.0,0.1732,0.1498,0.1304,0.1549,0.1326,0.1275,0.1588,0.1333,0.0813,0.0014,-0.0112,-0.0673,-0.1891,-0.2045,-0.2212,-0.2464,-0.2186,-0.2061,-0.2128,0.0,0.0,0.0,0.0,0.0,0.0,0.0,0.0,0.0,0.0,0.0,0.0,0.0,0.0,0.0,0.0,0.0,0.0,0.0,0.0,0.0,0.0,0.0,0.0,0.0,0.0,0.0,0.0,0.0,0.1586,0.1474,0.0,0.0,0.0,0.0,0.1198,0.1198,0.1199,0.1203,0.1194,0.1209,0.1209,0.1257,0.1292,0.1292,0.1292,0.1292,0.1293,0.1293,0.1293,0.1293,0.1293,0.1293,0.1292,0.1292,0.1272,0.1247,0.0781,0.0601,0.0601,0.0601,0.06,0.0616,0.0813,0.0893,0.0907,0.1036,0.1094,0.1094,0.1091,0.1055,0.1006,0.108,0.1052,0.0,0.0,0.109,0.1091,0.1092,0.1092,0.1092,0.1092,0.1092,0.1092,0.1092,0.0942,0.0741,0.0539,0.0387,0.0235,0.0101,0.0,0.0729,0.1421,0.1235,0.1336,0.2225,0.1721,0.1249,0.114,0.1501,0.1221,-0.0084,-0.0084,-0.0393,-0.1291,-0.1639,-0.1832,-0.1846,-0.1829,-0.1938,-0.2192,-0.2195,0.0,0.0,0.0,0.0,0.0,0.0,0.0,0.0,0.0,0.0,0.0,0.0,0.0,0.0,0.0,0.0,0.0,0.0,0.0,0.0,0.0,0.0,0.0,0.0,0.0,0.0,0.0,0.0,0.1763,0.1807,0.0,0.1564,0.145,0.1395,0.1399,0.127,0.1223,0.1262,0.1254,0.126,0.126,0.1291,0.1296,0.1296,0.1296,0.1296,0.1296,0.1296,0.1296,0.1296,0.1256,0.1228,0.1227,0.1246,0.1236,0.1216,0.1047,0.1003,0.1052,0.1052,0.1032,0.1001,0.1065,0.1066,0.1029,0.1087,0.1105,0.1102,0.1099,0.1085,0.1062,0.109,0.1085,0.1062,0.109,0.1092,0.1092,0.1092,0.1092,0.1092,0.1092,0.1092,0.1092,0.1092,0.1042,0.0926,0.0725,0.0472,0.0388,0.0656,0.0421,0.057,0.1723,0.1564,0.1613,0.2424,0.1965,0.1649,0.1916,0.1578,0.1163,0.0674,0.0407,-0.0084,-0.0869,-0.1275,-0.1569,-0.179,-0.1597,-0.1527,-0.1625,-0.2125,-0.2286,0.0,0.0,0.0,0.0,0.0,0.0,0.0,0.0,0.0,0.0,0.0,0.0,0.0,0.0,0.0,0.0,0.0,0.0,0.0,0.0,0.0,0.0,0.0,0.0,0.0,0.2137,0.2158,0.1925,0.2021,0.2015,0.183,0.1694,0.164,0.1629,0.1514,0.143,0.1394,0.1394,0.1375,0.1296,0.1296,0.1296,0.1296,0.1296,0.1296,0.1296,0.1296,0.1296,0.1296,0.1256,0.1227,0.1226,0.1225,0.1234,0.1234,0.1234,0.126,0.1295,0.1274,0.124,0.1202,0.1173,0.1138,0.1099,0.1103,0.1106,0.1103,0.1099,0.1092,0.1092,0.1092,0.1092,0.1092,0.1092,0.1092,0.1092,0.1092,0.1092,0.1092,0.1092,0.1092,0.1092,0.1092,0.1092,0.1042,0.0843,0.0623,0.0556,0.0841,0.0454,0.0572,0.1996,0.1718,0.1757,0.2834,0.2182,0.1793,0.2221,0.1749,0.1225,0.0772,0.067,0.0241,-0.0702,-0.1023,-0.1261,-0.1483,-0.1289,-0.1261,-0.1471,-0.2394,-0.2755,-0.252,0.0,0.0,0.0,0.0,0.0,0.0,0.0,0.0,0.0,0.0,0.0,0.0,0.0,0.0,0.0,0.0,0.0,0.0,0.0,0.0,0.0,0.0,0.0,0.2279,0.2264,0.2247,0.2122,0.2112,0.203,0.184,0.188,0.1907,0.1907,0.1907,0.1808,0.1612,0.1612,0.1512,0.1316,0.1316,0.1316,0.1316,0.1316,0.1316,0.1316,0.1296,0.1296,0.1296,0.1295,0.1295,0.1295,0.1313,0.1313,0.1313,0.1313,0.1313,0.1307,0.1229,0.1205,0.1201,0.1133,0.1104,0.1098,0.1102,0.1109,0.1109,0.1109,0.1109,0.1109,0.1111,0.1111,0.1109,0.1111,0.1109,0.1092,0.1092,0.1092,0.1092,0.1092,0.1092,0.1092,0.1092,0.1092,0.1042,0.0843,0.0809,0.0741,0.0539,0.0388,0.0774,0.2164,0.1647,0.0,0.3457,0.2417,0.1659,0.2012,0.2022,0.1477,0.0177,0.0706,0.0536,-0.0787,-0.0883,-0.0883,-0.0883,-0.0883,-0.1177,-0.1807,-0.2961,-0.3868,-0.4498,0.0,0.0,0.0,0.0,0.0,0.0,0.0,0.0,0.0,0.0,0.0,0.0,0.0,0.0,0.0,0.0,0.0,0.0,0.0,0.0,0.0,0.3371,0.3278,0.2843,0.2543,0.2374,0.2381,0.24,0.2371,0.2313,0.2189,0.2118,0.2118,0.1983,0.1867,0.1828,0.1828,0.1789,0.173,0.173,0.173,0.173,0.1591,0.1512,0.1512,0.1375,0.1296,0.1296,0.1254,0.1224,0.1242,0.1389,0.1452,0.1452,0.1601,0.1657,0.1642,0.1374,0.1238,0.1196,0.1184,0.1196,0.1239,0.1247,0.1344,0.1462,0.1462,0.1462,0.1467,0.1516,0.1401,0.1248,0.131,0.1213,0.1092,0.1092,0.1092,0.1092,0.1092,0.1092,0.1092,0.1092,0.1092,0.1076,0.1025,0.1027,0.0909,0.0556,0.0472,0.0707,0.1479,0.1395,0.1757,0.3152,0.2437,0.2166,0.3122,0.2619,0.2007,0.1493,0.1323,0.0855,-0.0042,-0.0378,-0.0533,-0.0533,-0.0533,-0.1076,-0.2214,-0.2463,-0.3141,0.0,0.0,0.0,0.0,0.0,0.0,0.0,0.0,0.0,0.0,0.0,0.0,0.0,0.0,0.0,0.0,0.0,0.0,0.0,0.0,0.0,0.0,0.3912,0.3831,0.3622,0.3071,0.2703,0.2741,0.2607,0.249,0.249,0.2416,0.2369,0.2369,0.2291,0.2205,0.2124,0.2104,0.2063,0.1983,0.1983,0.1972,0.1933,0.1834,0.1745,0.173,0.1612,0.1551,0.1551,0.151,0.15,0.1498,0.1611,0.1676,0.1676,0.1788,0.1845,0.1828,0.0,0.0,0.0,0.0,0.1485,0.1514,0.1514,0.1583,0.169,0.169,0.169,0.1694,0.1738,0.164,0.1519,0.1561,0.1469,0.1351,0.1351,0.1322,0.1294,0.121,0.1176,0.116,0.1109,0.1092,0.1092,0.1092,0.1092,0.0,0.0791,0.0674,0.0843,0.1464,0.1479,0.1781,0.2733,0.2432,0.235,0.2964,0.2536,0.2025,0.1533,0.1253,0.0,0.0,0.0,-0.0407,-0.0407,-0.0407,0.0,0.0,0.0,0.0,0.0,-0.4363,0.0,0.0,-0.4479,-0.4405,0.0,0.0,0.0,0.0,0.0,0.0,0.0,0.0,0.0,0.0,0.0,0.0,0.0,0.0,0.0,0.0,0.4505,0.4342,0.4448,0.3765,0.3237,0.3178,0.2832,0.2579,0.2579,0.2595,0.261,0.261,0.2662,0.2629,0.244,0.244,0.0,0.0,0.0,0.2145,0.2081,0.206,0.2019,0.1961,0.1941,0.1919,0.1913,0.1913,0.1911,0.1907,0.1926,0.1926,0.1946,0.1965,0.1965,0.1957,0.1853,0.1799,0.1795,0.1795,0.1809,0.1841,0.1841,0.0,0.0,0.1859,0.1859,0.1861,0.1866,0.1845,0.1843,0.1847,0.1779,0.1708,0.1708,0.1656,0.1571,0.1385,0.1331,0.1294,0.1176,0.1143,0.1126,0.1126,0.1109,0.1092,0.1092,0.101,0.1163,0.18,0.1747,0.1831,0.2368,0.2365,0.2264,0.2181,0.2231,0.0,0.0932,0.0907,0.0576,-0.0294,-0.0356,-0.035,-0.035,-0.0352,-0.0985,-0.2331,-0.2415,-0.3142,-0.4546,-0.4546,-0.4548,-0.4556,-0.4346,-0.4259,0.0,0.0,0.0,0.0,0.0,0.0,0.0,0.0,0.0,0.0,0.0,0.0,0.0,0.0,0.0,0.4785,0.4819,0.4855,0.4876,0.4467,0.4034,0.3706,0.3309,0.3063,0.3063,0.2823,0.2676,0.2676,0.2684,0.2692,0.265,0.265,0.2629,0.2587,0.2587,0.2582,0.2569,0.2402,0.2314,0.2304,0.2138,0.0,0.1978,0.1978,0.196,0.1907,0.2081,0.2138,0.2157,0.2314,0.2395,0.2353,0.2002,0.1857,0.1805,0.1805,0.1913,0.2044,0.2044,0.2117,0.2208,0.2208,0.2208,0.2215,0.2278,0.2167,0.0,0.2112,0.1957,0.1774,0.1774,0.1738,0.1668,0.1633,0.159,0.1529,0.1512,0.1378,0.126,0.126,0.1176,0.1092,0.1092,0.1512,0.1862,0.1896,0.1862,0.203,0.2569,0.2116,0.1965,0.2519,0.2967,0.2677,0.1325,0.1603,0.1291,0.0,-0.007,-0.0084,-0.0084,-0.0072,-0.0701,-0.2056,-0.2095,-0.2795,-0.4195,-0.4195,-0.4246,-0.4367,-0.4476,-0.4438,0.0,0.0,0.0,0.0,0.0,0.0,0.0,0.0,0.0,0.0,0.0,0.4635,0.4737,0.0,0.4817,0.4895,0.496,0.4998,0.4998,0.4818,0.4545,0.4151,0.3782,0.3552,0.3552,0.3266,0.3098,0.3098,0.2917,0.2804,0.2804,0.2804,0.2804,0.2804,0.2804,0.279,0.276,0.2653,0.2573,0.2545,0.244,0.2384,0.2357,0.2357,0.2307,0.2259,0.2357,0.2379,0.2353,0.2451,0.249,0.247,0.2277,0.2182,0.2158,0.2158,0.2218,0.2309,0.2309,0.2347,0.2404,0.2404,0.2404,0.2409,0.2436,0.2387,0.2314,0.2345,0.2233,0.2098,0.2098,0.2022,0.1928,0.1858,0.1822,0.1761,0.1636,0.1547,0.1488,0.1449,0.1311,0.1193,0.1193,0.1695,0.1963,0.1561,0.1779,0.1946,0.1766,0.2066,0.2267,0.2167,0.2385,0.2258,0.1517,0.1299,0.0885,0.0141,0.0042,0.0,0.0,0.0,-0.0492,-0.1526,-0.1777,-0.2452,-0.3554,-0.3825,-0.4028,-0.4208,-0.4306,-0.4339,0.0,0.0,0.0,0.0,0.0,0.0,0.0,0.454,0.4686,0.4661,0.4744,0.4825,0.483,0.4868,0.4917,0.5015,0.5072,0.5089,0.5089,0.5089,0.4965,0.4624,0.4281,0.4054,0.4071,0.3819,0.3645,0.3645,0.3355,0.3163,0.3163,0.3163,0.3163,0.3163,0.3163,0.3139,0.3085,0.3082,0.3055,0.3004,0.3004,0.2953,0.2856,0.2856,0.2759,0.2619,0.2619,0.2591,0.2545,0.2531,0.2529,0.2526,0.2495,0.249,0.249,0.249,0.249,0.249,0.249,0.249,0.249,0.249,0.249,0.249,0.249,0.249,0.249,0.249,0.2455,0.2417,0.2417,0.232,0.2207,0.21,0.2068,0.1988,0.1785,0.1742,0.1729,0.1684,0.1501,0.1361,0.1361,0.1714,0.1846,0.1359,0.1762,0.1846,0.1144,0.1985,0.2334,0.1579,0.1598,0.1644,0.1601,0.0827,0.0316,0.0256,0.0156,0.0085,0.0084,-0.0042,-0.0458,-0.1159,-0.167,-0.2331,-0.312,-0.3555,-0.386,-0.4041,-0.4041,-0.4104,0.4672,0.4702,0.4756,0.4991,0.5037,0.5096,0.0,0.5413,0.5346,0.5231,0.5227,0.5187,0.5015,0.5078,0.5148,0.5165,0.5277,0.5348,0.5348,0.5348,0.5328,0.5286,0.4887,0.4639,0.4689,0.4401,0.4217,0.4217,0.4158,0.4143,0.4143,0.4143,0.4143,0.4143,0.4143,0.4139,0.4128,0.4128,0.4124,0.4112,0.4112,0.3875,0.3419,0.3419,0.3144,0.2681,0.2681,0.2679,0.2668,0.2613,0.2591,0.2586,0.2531,0.249,0.249,0.249,0.249,0.249,0.249,0.249,0.249,0.249,0.249,0.249,0.249,0.249,0.249,0.249,0.2485,0.2479,0.2479,0.2431,0.2382,0.2363,0.2265,0.2188,0.2215,0.2043,0.1888,0.1946,0.1744,0.1563,0.1563,0.1613,0.1731,0.1963,0.2047,0.2063,0.1963,0.1577,0.1277,0.116,0.1581,0.1798,0.1623,0.0912,0.0472,0.047,0.0454,0.042,0.0351,-0.0216,-0.0821,-0.144,-0.2089,-0.2787,-0.3526,-0.3596,-0.3697,-0.3841,-0.3841,-0.3896,0.4791,0.491,0.5048,0.512,0.5261,0.542,0.5519,0.5555,0.5548,0.5486,0.5479,0.5483,0.552,0.5573,0.5572,0.551,0.5546,0.5538,0.5413,0.5392,0.5419,0.5448,0.5283,0.5176,0.5201,0.4907,0.4696,0.4696,0.4456,0.43,0.43,0.43,0.43,0.43,0.43,0.43,0.43,0.43,0.43,0.43,0.43,0.419,0.3956,0.3956,0.3823,0.3571,0.3525,0.3507,0.3503,0.3492,0.3478,0.3471,0.3352,0.3323,0.3257,0.27,0.249,0.249,0.249,0.249,0.249,0.249,0.2669,0.2845,0.2845,0.3041,0.3253,0.3253,0.3253,0.3194,0.2924,0.2793,0.2684,0.2457,0.2363,0.2307,0.2301,0.2249,0.2169,0.213,0.1963,0.1817,0.1788,0.1682,0.1647,0.1781,0.208,0.2097,0.1577,0.1611,0.1527,0.1143,0.1294,0.1381,0.1261,0.0893,0.0672,0.0667,0.056,0.0481,0.046,0.0196,-0.0257,-0.0905,-0.1544,-0.2228,-0.2962,-0.331,-0.3555,-0.3687,-0.3687,-0.3687,0.5019,0.5168,0.5312,0.5334,0.5525,0.572,0.5714,0.5758,0.5776,0.5692,0.5673,0.5704,0.5802,0.5876,0.5901,0.5797,0.5846,0.5851,0.5697,0.5676,0.5694,0.574,0.5708,0.5665,0.5665,0.5389,0.5191,0.5191,0.4879,0.4679,0.4679,0.4679,0.4679,0.4679,0.4679,0.4679,0.4679,0.4679,0.4679,0.4679,0.4679,0.4612,0.45,0.4366,0.4263,0.4219,0.4171,0.4167,0.4163,0.4138,0.4126,0.4118,0.401,0.3957,0.3863,0.3157,0.288,0.2862,0.2862,0.2862,0.2862,0.2862,0.3061,0.3295,0.3295,0.353,0.3804,0.3804,0.3804,0.3726,0.3374,0.3253,0.3114,0.2692,0.2585,0.2527,0.239,0.2371,0.2358,0.2269,0.2156,0.2055,0.2,0.1854,0.1748,0.1684,0.2016,0.2016,0.1328,0.1613,0.1678,0.116,0.1092,0.1084,0.1031,0.0931,0.0871,0.0861,0.0719,0.0638,0.0633,0.0467,0.0031,-0.0654,-0.1289,-0.1972,-0.2696,-0.3124,-0.34,-0.3489,-0.3489,-0.3464,0.5542,0.5589,0.5646,0.5905,0.5986,0.604,0.6239,0.6273,0.6203,0.5938,0.5899,0.5828,0.564,0.5814,0.599,0.599,0.6208,0.6372,0.6372,0.6372,0.6378,0.6378,0.6207,0.6074,0.6074,0.5841,0.5691,0.5691,0.5669,0.5663,0.5663,0.5663,0.5663,0.5663,0.5663,0.5663,0.5663,0.5663,0.5663,0.5663,0.5663,0.5419,0.4964,0.45,0.43,0.4295,0.4291,0.4291,0.4283,0.4215,0.42,0.4192,0.4122,0.4084,0.4076,0.3908,0.3818,0.3765,0.3765,0.3765,0.3765,0.3765,0.3765,0.3784,0.3784,0.3784,0.3804,0.3804,0.3804,0.3804,0.3784,0.378,0.3663,0.3194,0.3023,0.2892,0.2571,0.2398,0.2315,0.2385,0.2334,0.2277,0.2201,0.219,0.2117,0.1925,0.1901,0.1834,0.1615,0.1428,0.126,0.1109,0.1092,0.1092,0.1091,0.1091,0.1062,0.1001,0.0984,0.0987,0.099,0.0365,-0.0337,-0.1061,-0.1799,-0.2509,-0.3184,-0.3201,-0.3201,-0.3205,-0.3205,-0.3205,0.5724,0.5803,0.5883,0.5984,0.6105,0.6219,0.6286,0.63,0.628,0.6177,0.6231,0.6278,0.6205,0.6421,0.6554,0.642,0.6558,0.6612,0.6428,0.6406,0.6406,0.6406,0.634,0.6302,0.6302,0.593,0.574,0.5816,0.5821,0.5821,0.5821,0.5821,0.5789,0.5713,0.5691,0.5691,0.5691,0.5691,0.5691,0.5691,0.5691,0.5619,0.5463,0.5307,0.524,0.524,0.524,0.524,0.5235,0.5201,0.5186,0.5193,0.5061,0.5038,0.5023,0.4939,0.4874,0.4758,0.4042,0.3804,0.3804,0.3804,0.3975,0.419,0.419,0.4389,0.4604,0.4604,0.4604,0.4526,0.4268,0.419,0.4092,0.3667,0.3546,0.3496,0.3386,0.333,0.3187,0.286,0.2781,0.2651,0.2316,0.2269,0.223,0.2119,0.1871,0.1682,0.1615,0.1546,0.1428,0.1244,0.1227,0.1193,0.1109,0.1092,0.1088,0.1062,0.1062,0.1073,0.1063,0.0857,0.0149,-0.1077,-0.1338,-0.2049,-0.3192,-0.3192,-0.3192,-0.3192,-0.3192,-0.3192,0.6064,0.6154,0.6231,0.6298,0.6409,0.6505,0.6505,0.6447,0.643,0.6466,0.6489,0.6491,0.6491,0.6722,0.6848,0.666,0.6797,0.6855,0.6672,0.665,0.6669,0.6742,0.6665,0.6639,0.6682,0.6355,0.6099,0.6041,0.5988,0.5969,0.5969,0.5969,0.5937,0.5838,0.5838,0.5816,0.5773,0.5816,0.5816,0.5773,0.5729,0.5691,0.5691,0.5691,0.5691,0.5691,0.5691,0.5691,0.5691,0.5691,0.5691,0.568,0.5605,0.5572,0.5556,0.548,0.5431,0.5336,0.4558,0.4303,0.4299,0.4242,0.4409,0.4623,0.4623,0.4798,0.4998,0.4998,0.4998,0.494,0.4681,0.4623,0.4501,0.4112,0.4014,0.3975,0.3839,0.3804,0.3709,0.3342,0.3144,0.293,0.2598,0.2384,0.2253,0.2198,0.1986,0.1783,0.1716,0.1716,0.1632,0.1428,0.1412,0.1378,0.1294,0.121,0.1176,0.1176,0.1126,0.1092,0.1092,0.1092,0.0538,-0.0689,-0.0958,-0.168,-0.2837,-0.3092,-0.3192,-0.3192,-0.3075,-0.3025,0.6544,0.6615,0.6652,0.6847,0.6903,0.6903,0.6903,0.6756,0.6659,0.679,0.6665,0.6525,0.6511,0.6722,0.6857,0.6722,0.6924,0.7098,0.7105,0.7105,0.7188,0.7389,0.7181,0.7073,0.7201,0.7039,0.6778,0.6374,0.6222,0.6142,0.6142,0.6142,0.6142,0.6136,0.6131,0.6076,0.5961,0.607,0.6059,0.5916,0.5807,0.573,0.573,0.573,0.573,0.573,0.573,0.573,0.573,0.573,0.5708,0.5713,0.5713,0.5691,0.5675,0.5561,0.5518,0.5481,0.529,0.5223,0.5196,0.5061,0.5004,0.5004,0.4998,0.4998,0.4998,0.4998,0.4998,0.4998,0.4998,0.4998,0.4901,0.4521,0.4423,0.4326,0.394,0.3862,0.3862,0.3839,0.3452,0.3119,0.3044,0.2602,0.2236,0.2236,0.2216,0.2124,0.1934,0.1918,0.1834,0.1632,0.1615,0.1615,0.1598,0.1428,0.1311,0.1311,0.1193,0.1126,0.1126,0.1126,0.0773,0.0,-0.0706,-0.1445,-0.2197,-0.284,-0.3142,-0.3142,-0.282,-0.2669,0.68,0.6821,0.6832,0.6888,0.6903,0.6903,0.6903,0.6942,0.6987,0.7011,0.6985,0.6893,0.6759,0.6826,0.6857,0.6722,0.6924,0.7161,0.7299,0.7335,0.7366,0.7522,0.7496,0.7463,0.7496,0.7359,0.7243,0.7133,0.6942,0.684,0.684,0.684,0.6798,0.6703,0.6703,0.6685,0.6649,0.6583,0.6458,0.6282,0.6247,0.6213,0.6213,0.6213,0.6213,0.6213,0.6213,0.6213,0.6213,0.6058,0.5997,0.5975,0.5774,0.5691,0.5708,0.5653,0.5642,0.5621,0.547,0.5398,0.5321,0.5201,0.5143,0.5127,0.5025,0.4998,0.4998,0.4998,0.4998,0.4998,0.4998,0.4998,0.4979,0.4876,0.4837,0.4818,0.472,0.4687,0.4604,0.4307,0.3897,0.362,0.3596,0.3143,0.2802,0.2802,0.245,0.2187,0.2124,0.2119,0.2052,0.185,0.1817,0.1766,0.1615,0.1546,0.1529,0.1529,0.1495,0.1479,0.1479,0.1479,0.0941,-0.0201,-0.0403,-0.1059,-0.2203,-0.2371,-0.2455,-0.2455,-0.2371,-0.2321,0.714,0.716,0.7153,0.7153,0.7153,0.7153,0.7153,0.7153,0.7167,0.7223,0.7172,0.706,0.6953,0.6992,0.6984,0.6847,0.705,0.7272,0.7382,0.745,0.7553,0.7678,0.7692,0.7719,0.7763,0.7698,0.7671,0.7671,0.7346,0.715,0.715,0.715,0.7113,0.7045,0.7039,0.7039,0.7039,0.6811,0.6653,0.656,0.6467,0.6406,0.6406,0.6406,0.6406,0.6406,0.6406,0.6406,0.6384,0.6279,0.6235,0.6213,0.6058,0.6013,0.6013,0.6013,0.6013,0.6008,0.5911,0.5859,0.5773,0.5405,0.5288,0.5267,0.5127,0.5094,0.5083,0.5009,0.4998,0.4998,0.4998,0.4998,0.4998,0.4998,0.4998,0.4998,0.4998,0.4998,0.4876,0.4482,0.4209,0.4014,0.3819,0.3534,0.331,0.331,0.2973,0.2719,0.273,0.2426,0.2153,0.2035,0.2035,0.1985,0.1867,0.1783,0.1733,0.1733,0.1649,0.1598,0.1598,0.1598,0.126,0.0555,-0.0017,-0.0656,-0.1361,-0.1934,-0.2203,-0.2203,-0.2018,-0.1947,0.7512,0.7572,0.7564,0.7548,0.7556,0.7556,0.7515,0.7405,0.7328,0.7434,0.7278,0.7131,0.7131,0.7178,0.719,0.7027,0.7236,0.7428,0.7416,0.7516,0.7658,0.7797,0.7817,0.7871,0.7975,0.7988,0.7988,0.7988,0.7565,0.7316,0.7316,0.7316,0.7316,0.7316,0.7316,0.7304,0.7285,0.698,0.685,0.6884,0.6637,0.6513,0.6495,0.6495,0.6495,0.6495,0.6495,0.6495,0.6495,0.6451,0.6451,0.6451,0.6406,0.6406,0.6406,0.6406,0.6406,0.6406,0.6406,0.6406,0.6298,0.5718,0.5518,0.5496,0.5368,0.5298,0.5265,0.5145,0.5087,0.5037,0.5037,0.5018,0.4998,0.4998,0.4998,0.4998,0.4998,0.4998,0.4896,0.454,0.4482,0.4365,0.4019,0.3872,0.3798,0.3798,0.3594,0.3428,0.3416,0.2778,0.2321,0.227,0.227,0.2253,0.2203,0.2035,0.1934,0.1934,0.1783,0.1649,0.1563,0.1632,0.1615,0.1462,0.0437,-0.0151,-0.0303,-0.1412,-0.199,-0.2048,-0.1691,-0.1562,0.791,0.7918,0.7886,0.7768,0.7833,0.7845,0.7572,0.7688,0.7833,0.774,0.7537,0.735,0.735,0.7356,0.7297,0.7047,0.7275,0.7503,0.7546,0.7584,0.7699,0.7946,0.7973,0.7986,0.7988,0.7988,0.7988,0.7988,0.7914,0.7864,0.7864,0.7864,0.7864,0.7864,0.7864,0.7804,0.7702,0.7629,0.7506,0.7293,0.7246,0.713,0.6988,0.6988,0.6988,0.6988,0.6988,0.6988,0.6966,0.6789,0.6729,0.67,0.6479,0.6406,0.6406,0.6406,0.6406,0.6406,0.6406,0.6406,0.6382,0.6193,0.6144,0.6114,0.5981,0.586,0.5763,0.5745,0.5503,0.5246,0.5246,0.5129,0.4998,0.4998,0.4998,0.4998,0.4998,0.4998,0.4979,0.492,0.4896,0.4876,0.4804,0.4506,0.4278,0.4278,0.3911,0.3608,0.3497,0.3224,0.2924,0.2636,0.2619,0.2505,0.2223,0.2169,0.2153,0.2153,0.2119,0.1867,0.1378,0.1834,0.1649,0.0706,0.0908,0.0588,-0.0303,-0.0521,-0.085,-0.1288,-0.1217,-0.1217,0.7992,0.7995,0.7975,0.7845,0.7906,0.7918,0.7581,0.7711,0.7849,0.767,0.7532,0.7454,0.7454,0.7425,0.7389,0.7362,0.7533,0.7722,0.7923,0.7926,0.7987,0.8184,0.8088,0.7988,0.7988,0.7988,0.7988,0.7988,0.7988,0.7988,0.7988,0.7988,0.7988,0.7988,0.7988,0.7979,0.7905,0.7824,0.774,0.7597,0.7529,0.7407,0.7258,0.7258,0.7195,0.7098,0.7098,0.7098,0.7098,0.6988,0.6944,0.6944,0.6811,0.676,0.676,0.676,0.676,0.676,0.676,0.676,0.6754,0.6733,0.6561,0.6334,0.6227,0.6085,0.5942,0.5908,0.5679,0.5459,0.5459,0.5382,0.531,0.531,0.5226,0.5149,0.5149,0.5076,0.4998,0.4998,0.4998,0.4998,0.4998,0.4837,0.472,0.472,0.4471,0.425,0.4179,0.4054,0.3725,0.3032,0.2958,0.2891,0.274,0.2723,0.2723,0.2723,0.2723,0.2388,0.1644,0.1898,0.1561,0.0521,0.0756,0.0491,-0.0292,-0.0292,-0.054,-0.1002,-0.1002,-0.0961,0.8081,0.813,0.8089,0.7939,0.7996,0.7975,0.7646,0.7698,0.7747,0.754,0.7499,0.7499,0.7499,0.7497,0.754,0.7684,0.7759,0.7923,0.8265,0.8262,0.827,0.8382,0.8212,0.8063,0.8013,0.7988,0.7988,0.7988,0.7988,0.7988,0.7988,0.7988,0.7988,0.7988,0.7988,0.7988,0.7988,0.7898,0.7817,0.7807,0.7699,0.7563,0.7444,0.741,0.7305,0.7168,0.7112,0.7098,0.7098,0.7098,0.7098,0.7098,0.7098,0.7098,0.7098,0.7098,0.7098,0.7098,0.7098,0.7098,0.7098,0.7098,0.6855,0.6536,0.6455,0.6296,0.6131,0.6048,0.5856,0.5653,0.5653,0.5634,0.5601,0.5601,0.5479,0.5362,0.5362,0.5246,0.5115,0.5076,0.5057,0.5057,0.4998,0.4998,0.4998,0.4998,0.4917,0.4828,0.4801,0.4751,0.4413,0.3607,0.3419,0.3313,0.3209,0.3192,0.3192,0.3192,0.3192,0.2777,0.1811,0.1901,0.1484,0.0479,0.0578,0.0361,-0.0177,-0.0177,-0.0394,-0.0826,-0.0826,-0.0745,0.8492,0.8541,0.8492,0.8313,0.8251,0.8191,0.7853,0.7788,0.7747,0.754,0.7499,0.7499,0.7499,0.7634,0.7753,0.7704,0.7808,0.7993,0.8273,0.8301,0.8308,0.8393,0.8386,0.8262,0.8013,0.7988,0.7988,0.7988,0.7988,0.7988,0.7988,0.7988,0.7988,0.7988,0.7988,0.7988,0.7988,0.7975,0.7925,0.7814,0.7801,0.7719,0.757,0.7457,0.7389,0.7369,0.7181,0.7098,0.7098,0.7098,0.7098,0.7098,0.7098,0.7098,0.7098,0.7098,0.7098,0.7098,0.7098,0.7098,0.7098,0.7098,0.707,0.7005,0.6887,0.6739,0.6606,0.6472,0.6166,0.586,0.586,0.5731,0.5601,0.5601,0.5582,0.5576,0.5576,0.5556,0.5498,0.5304,0.5265,0.5207,0.5037,0.4998,0.4998,0.4998,0.4988,0.4939,0.4812,0.4785,0.4731,0.4578,0.4119,0.3659,0.3234,0.3192,0.3192,0.3192,0.3192,0.2652,0.1411,0.1874,0.1583,0.0343,0.0795,0.0778,0.0236,0.0236,-0.0055,-0.0622,-0.0622,-0.0612,0.837,0.8501,0.8541,0.8362,0.8292,0.8216,0.7877,0.7796,0.7747,0.754,0.7499,0.7499,0.7499,0.7564,0.7683,0.7845,0.7928,0.8156,0.8698,0.8536,0.8496,0.8837,0.8669,0.85,0.8471,0.8478,0.8478,0.8478,0.8478,0.8478,0.8478,0.8187,0.7988,0.7988,0.7925,0.7918,0.7988,0.7837,0.781,0.7925,0.7831,0.778,0.7726,0.7665,0.759,0.7502,0.7346,0.7278,0.7272,0.7154,0.7098,0.7098,0.7098,0.7098,0.7098,0.7098,0.7098,0.7098,0.7098,0.7098,0.7098,0.7098,0.7098,0.7071,0.6951,0.6803,0.6668,0.6539,0.633,0.6138,0.6138,0.6086,0.6028,0.6028,0.5906,0.5789,0.5789,0.5692,0.5576,0.5498,0.5382,0.5285,0.5187,0.5071,0.4998,0.4998,0.4998,0.4977,0.4933,0.4923,0.4879,0.4773,0.4527,0.4313,0.4109,0.4104,0.4104,0.4104,0.4104,0.3631,0.2542,0.227,0.1638,0.0563,0.0595,0.0327,-0.0242,0.0075,0.0019,-0.0426,-0.0426,-0.035,0.8251,0.8452,0.8541,0.8362,0.8251,0.813,0.7869,0.7755,0.7682,0.7532,0.7499,0.7499,0.7499,0.7548,0.7686,0.7967,0.8105,0.839,0.9007,0.8821,0.8738,0.9112,0.8834,0.8651,0.8735,0.877,0.88,0.88,0.88,0.88,0.88,0.8428,0.8237,0.8237,0.815,0.815,0.823,0.7931,0.789,0.8113,0.7906,0.781,0.7851,0.781,0.7753,0.7651,0.7525,0.7437,0.7382,0.7251,0.7161,0.7098,0.7098,0.7098,0.7098,0.7098,0.7098,0.7098,0.7098,0.7098,0.7098,0.7098,0.7098,0.7071,0.6951,0.683,0.6736,0.66,0.6457,0.6354,0.6313,0.63,0.63,0.63,0.6157,0.6022,0.6022,0.5906,0.5796,0.5712,0.5576,0.5459,0.5401,0.5226,0.509,0.509,0.5037,0.4998,0.4998,0.4998,0.4966,0.4879,0.4811,0.4766,0.4713,0.4708,0.4708,0.4708,0.4708,0.4193,0.3052,0.2466,0.163,0.0521,0.0314,0.0,-0.0421,-0.0038,0.0019,-0.0216,-0.0216,-0.0138,0.8292,0.8452,0.8541,0.8362,0.8154,0.7967,0.7837,0.7638,0.7507,0.7499,0.7499,0.7499,0.7499,0.7673,0.7833,0.7983,0.8346,0.8712,0.9047,0.9096,0.9067,0.9004,0.8816,0.8659,0.8603,0.8735,0.88,0.88,0.88,0.88,0.88,0.88,0.88,0.88,0.88,0.88,0.88,0.8401,0.8262,0.8379,0.7979,0.7864,0.7982,0.7858,0.7814,0.7801,0.7658,0.7509,0.7396,0.7389,0.7278,0.7098,0.7098,0.7098,0.7098,0.7098,0.7098,0.7098,0.7098,0.7098,0.7098,0.7098,0.7098,0.7071,0.6951,0.6904,0.687,0.6742,0.6607,0.6477,0.6334,0.63,0.63,0.63,0.63,0.63,0.63,0.63,0.6222,0.5938,0.5899,0.5822,0.5634,0.544,0.5298,0.5298,0.5129,0.4998,0.4998,0.4998,0.4998,0.4998,0.4993,0.4915,0.4712,0.4708,0.4708,0.4708,0.4708,0.399,0.2377,0.2305,0.1584,0.0039,0.0,0.0,0.0,0.0,0.0,0.0,0.0,0.0,0.7947,0.8077,0.8178,0.8113,0.8057,0.7967,0.7837,0.7755,0.7714,0.7714,0.7714,0.7727,0.7821,0.7894,0.8032,0.8362,0.8509,0.8753,0.9233,0.9193,0.9186,0.9388,0.9348,0.9308,0.929,0.9321,0.9352,0.9352,0.9352,0.9352,0.9352,0.9352,0.9179,0.88,0.8721,0.8713,0.88,0.8485,0.8436,0.8676,0.8449,0.8425,0.8552,0.8502,0.848,0.8473,0.8338,0.8251,0.8217,0.8124,0.7963,0.7772,0.7772,0.7618,0.737,0.737,0.7253,0.7098,0.7098,0.7098,0.7098,0.7098,0.7098,0.7085,0.7045,0.6964,0.6877,0.6742,0.6607,0.6484,0.6457,0.6375,0.63,0.63,0.63,0.63,0.63,0.63,0.628,0.6203,0.6022,0.588,0.5809,0.5634,0.5498,0.5498,0.544,0.5362,0.5226,0.5207,0.5149,0.5018,0.4998,0.4966,0.4909,0.4904,0.4904,0.4904,0.4904,0.4666,0.4163,0.3055,0.2216,0.1722,0.0584,0.0,0.0,0.0,0.0,0.0,0.0,0.0,0.7601,0.7906,0.8,0.7935,0.7918,0.789,0.7719,0.7698,0.7698,0.7698,0.7747,0.7829,0.7914,0.8024,0.8195,0.8444,0.8655,0.8908,0.9233,0.9242,0.925,0.9389,0.9486,0.9527,0.9527,0.9567,0.9599,0.9599,0.9599,0.9599,0.9599,0.9599,0.9451,0.9097,0.9029,0.9022,0.9097,0.878,0.8732,0.8949,0.8717,0.8676,0.88,0.88,0.88,0.8793,0.8721,0.8646,0.0,0.8498,0.8326,0.8102,0.8102,0.7915,0.7657,0.7657,0.7481,0.7253,0.7363,0.7275,0.7121,0.7209,0.7187,0.7098,0.7098,0.7038,0.6958,0.6809,0.6715,0.6634,0.6593,0.6512,0.643,0.6395,0.6381,0.6368,0.6313,0.63,0.63,0.63,0.6157,0.606,0.606,0.5867,0.5712,0.5712,0.5653,0.5556,0.5421,0.5421,0.5362,0.5251,0.5232,0.5193,0.511,0.5037,0.4876,0.456,0.4837,0.472,0.4092,0.3363,0.2699,0.2055,0.1019,0.0334,0.0,0.0,0.0,0.0,0.0,0.0,0.0,0.7733,0.7853,0.78,0.7748,0.7668,0.7529,0.7458,0.0,0.7504,0.767,0.782,0.7837,0.8102,0.8316,0.8325,0.8747,0.908,0.9096,0.9266,0.9323,0.9153,0.9299,0.942,0.942,0.9527,0.9599,0.9599,0.9599,0.9599,0.9599,0.9599,0.9599,0.9599,0.9599,0.9599,0.9599,0.9219,0.9097,0.9229,0.8854,0.8732,0.885,0.885,0.885,0.885,0.885,0.8792,0.8681,0.8681,0.8462,0.817,0.817,0.808,0.7922,0.7922,0.7746,0.7569,0.7812,0.7562,0.7209,0.7437,0.737,0.7165,0.7143,0.7121,0.7065,0.6937,0.6918,0.6877,0.6756,0.6709,0.6668,0.6539,0.6505,0.6471,0.6361,0.632,0.6313,0.6313,0.6306,0.63,0.63,0.6099,0.5918,0.5918,0.577,0.5634,0.5615,0.5615,0.5615,0.5601,0.5601,0.5518,0.5343,0.5129,0.4701,0.3928,0.454,0.4209,0.266,0.3304,0.2953,0.1333,0.1235,0.0804,0.0,0.0,0.0,0.0,0.0,0.0,0.5366,0.0,0.6773,0.7417,0.7179,0.6934,0.0,0.7098,0.692,0.7592,0.7857,0.8,0.8159,0.837,0.8566,0.8674,0.8781,0.8934,0.908,0.9266,0.9413,0.947,0.9518,0.9559,0.9559,0.9575,0.9599,0.9599,0.9599,0.9599,0.9599,0.9599,0.9599,0.9599,0.9599,0.9599,0.9599,0.951,0.9485,0.9501,0.9411,0.9387,0.9402,0.9402,0.9402,0.9402,0.9402,0.9402,0.9371,0.9371,0.9164,0.8869,0.8869,0.8564,0.8135,0.8135,0.7988,0.7812,0.7878,0.7812,0.7716,0.779,0.7768,0.7672,0.7459,0.7253,0.7092,0.7058,0.6992,0.6897,0.6864,0.6769,0.6695,0.6654,0.6647,0.6634,0.6607,0.6525,0.6463,0.6463,0.6375,0.63,0.63,0.6241,0.6203,0.6203,0.6164,0.606,0.5867,0.5822,0.577,0.5615,0.5601,0.5576,0.5537,0.5343,0.509,0.474,0.4326,0.3912,0.3519,0.3051,0.2328,0.1313,0.0647,0.0196,0.0,0.0,0.0,0.0,0.0,0.0,0.4224,0.5059,0.5812,0.629,0.6132,0.5951,0.6323,0.6375,0.65,0.696,0.7568,0.804,0.8146,0.8403,0.8623,0.869,0.8771,0.8909,0.9201,0.9388,0.9518,0.9591,0.9599,0.9599,0.9599,0.9599,0.9599,0.9599,0.9599,0.9599,0.9599,0.9599,0.9599,0.9599,0.9599,0.9599,0.9599,0.9599,0.9599,0.9599,0.9599,0.9599,0.9599,0.9599,0.9599,0.9599,0.9599,0.9599,0.9599,0.9599,0.9462,0.9233,0.9129,0.8857,0.8465,0.8408,0.823,0.8047,0.8186,0.8142,0.8025,0.7922,0.79,0.7878,0.7724,0.7591,0.7408,0.7165,0.7045,0.6984,0.6984,0.6945,0.6864,0.6796,0.6782,0.6762,0.6715,0.6634,0.658,0.6505,0.645,0.6375,0.6313,0.63,0.63,0.63,0.63,0.6241,0.6099,0.608,0.6041,0.5931,0.5931,0.5867,0.575,0.5628,0.5162,0.419,0.4088,0.3737,0.2953,0.2836,0.2387,0.1587,0.0726,0.0275,0.0275,0.0275,0.0275,0.0275,0.0275,0.0275,0.342,0.4174,0.4803,0.5031,0.5016,0.4945,0.5087,0.5484,0.5879,0.6015,0.6989,0.7795,0.7653,0.818,0.8595,0.8464,0.8659,0.8974,0.9355,0.9486,0.9575,0.9599,0.9599,0.9599,0.9599,0.9599,0.9599,0.9599,0.9599,0.9599,0.9599,0.9599,0.9599,0.9599,0.9599,0.9599,0.9599,0.9599,0.9599,0.9599,0.9599,0.9599,0.9599,0.9599,0.9599,0.9599,0.9599,0.9599,0.9599,0.9599,0.9502,0.9347,0.9153,0.8966,0.8763,0.8639,0.845,0.8288,0.8516,0.845,0.8223,0.8054,0.801,0.801,0.7966,0.7944,0.7856,0.7363,0.7187,0.7143,0.7121,0.7098,0.7065,0.6972,0.6938,0.6904,0.6797,0.6749,0.6695,0.6586,0.6546,0.6491,0.6388,0.6347,0.6334,0.6334,0.6313,0.63,0.63,0.63,0.63,0.63,0.63,0.6203,0.5983,0.5964,0.5221,0.3503,0.3893,0.3503,0.1959,0.2429,0.2468,0.192,0.104,0.0609,0.0609,0.0609,0.0609,0.0609,0.0609,0.0609,0.2733,0.2959,0.3472,0.4768,0.4583,0.4271,0.5017,0.4692,0.4456,0.5198,0.6269,0.6826,0.6037,0.7478,0.8533,0.7797,0.8451,0.9129,0.9371,0.9429,0.9478,0.9583,0.9599,0.9599,0.9599,0.9599,0.9599,0.9599,0.9599,0.9599,0.9599,0.9599,0.9599,0.9599,0.9599,0.9599,0.9599,0.9599,0.9599,0.9599,0.9599,0.9599,0.9599,0.9599,0.9599,0.9599,0.9599,0.9599,0.9599,0.9599,0.9413,0.9137,0.9104,0.8916,0.8623,0.8598,0.8568,0.8546,0.859,0.8568,0.8546,0.8502,0.8502,0.8458,0.8223,0.8157,0.8091,0.7856,0.7613,0.7393,0.7165,0.7098,0.7092,0.7071,0.7065,0.7058,0.7038,0.6958,0.6864,0.6843,0.6756,0.6661,0.6634,0.6546,0.6457,0.6457,0.6375,0.63,0.63,0.63,0.63,0.63,0.63,0.628,0.6241,0.6241,0.5809,0.4768,0.3815,0.2878,0.194,0.1314,0.1275,0.1881,0.104,0.0609,0.0609,0.0609,0.0609,0.0609,0.0609,0.0609,0.2545,0.264,0.2919,0.3672,0.3628,0.3495,0.382,0.3929,0.4062,0.4432,0.5342,0.596,0.5518,0.6394,0.7057,0.6684,0.7148,0.7774,0.8451,0.8605,0.8882,0.9517,0.9599,0.9599,0.9599,0.9599,0.9599,0.9599,0.9599,0.9599,0.9599,0.9599,0.9599,0.9599,0.9599,0.9599,0.9599,0.9599,0.9599,0.9599,0.9599,0.9599,0.9599,0.9599,0.9599,0.9599,0.9599,0.9599,0.9599,0.9599,0.947,0.925,0.9137,0.8934,0.869,0.8623,0.859,0.859,0.859,0.859,0.859,0.859,0.859,0.8568,0.845,0.8406,0.8362,0.8135,0.79,0.7657,0.7393,0.7326,0.7275,0.7143,0.7098,0.7098,0.7098,0.7045,0.6977,0.6924,0.685,0.6776,0.6715,0.6641,0.6614,0.6614,0.6559,0.6518,0.6518,0.6443,0.643,0.6512,0.6443,0.643,0.6512,0.6518,0.5906,0.4443,0.3366,0.2412,0.1608,0.1198,0.1159,0.1569,0.1178,0.0982,0.0982,0.0982,0.0982,0.0982,0.0982,0.0982,0.2529,0.261,0.2703,0.2771,0.2861,0.2925,0.2861,0.33,0.3721,0.3696,0.4458,0.5094,0.4907,0.5244,0.5639,0.5966,0.6133,0.654,0.7344,0.7778,0.8297,0.9122,0.9451,0.9599,0.9599,0.9599,0.9599,0.9599,0.9599,0.9599,0.9599,0.9599,0.9599,0.9599,0.9599,0.9599,0.9599,0.9599,0.9599,0.9599,0.9599,0.9599,0.9599,0.9599,0.9599,0.9599,0.9599,0.9599,0.9599,0.9599,0.9518,0.9388,0.9185,0.8958,0.8747,0.8639,0.859,0.859,0.859,0.859,0.859,0.859,0.859,0.859,0.859,0.859,0.8568,0.8362,0.8186,0.7988,0.768,0.7591,0.7525,0.7253,0.7187,0.7187,0.7121,0.7098,0.7065,0.6979,0.6958,0.6918,0.6803,0.6776,0.6756,0.6756,0.6722,0.6702,0.6702,0.662,0.6593,0.6688,0.6614,0.6593,0.6688,0.6702,0.5887,0.397,0.3021,0.2151,0.1335,0.1296,0.1296,0.1296,0.1296,0.1296,0.1296,0.1296,0.1296,0.1296,0.1296,0.1296,0.258,0.2643,0.2695,0.2698,0.2768,0.2845,0.2969,0.2928,0.2922,0.3029,0.3754,0.416,0.3407,0.4087,0.5119,0.6179,0.6379,0.641,0.6484,0.7366,0.8024,0.8099,0.8998,0.9599,0.9599,0.9599,0.9599,0.9599,0.9599,0.9599,0.9599,0.9599,0.9599,0.9599,0.9599,0.9599,0.9599,0.9599,0.9599,0.9599,0.9599,0.9599,0.9599,0.9599,0.9599,0.9599,0.9599,0.9599,0.9599,0.9599,0.9518,0.9388,0.9185,0.8908,0.8606,0.859,0.859,0.859,0.859,0.859,0.859,0.859,0.859,0.859,0.859,0.859,0.859,0.8568,0.8568,0.8458,0.7988,0.7878,0.7812,0.7525,0.7459,0.7393,0.7165,0.7098,0.7092,0.7085,0.7078,0.7078,0.7065,0.6979,0.6891,0.6891,0.6769,0.6702,0.6702,0.6695,0.6688,0.6702,0.6688,0.6688,0.6702,0.6702,0.5929,0.4109,0.3113,0.2204,0.1337,0.1296,0.1296,0.1296,0.1296,0.1296,0.1296,0.1296,0.1296,0.1296,0.1296,0.1296,0.254,0.2616,0.27,0.276,0.2787,0.2826,0.2911,0.2975,0.3008,0.3052,0.3325,0.3451,0.3162,0.3439,0.3869,0.4343,0.4404,0.4655,0.5306,0.5757,0.6251,0.6924,0.7372,0.7621,0.7621,0.8223,0.8595,0.8595,0.9229,0.9599,0.9599,0.9599,0.9599,0.9599,0.9599,0.9599,0.9599,0.9599,0.9599,0.9599,0.9599,0.9599,0.9599,0.9599,0.9599,0.9599,0.9599,0.9599,0.9599,0.9599,0.9518,0.9371,0.9039,0.8779,0.859,0.859,0.859,0.859,0.859,0.859,0.859,0.859,0.859,0.859,0.859,0.859,0.859,0.859,0.859,0.8524,0.8179,0.8091,0.7988,0.7591,0.7503,0.7437,0.7165,0.7098,0.7098,0.7098,0.7098,0.7098,0.7098,0.7051,0.7018,0.7018,0.6992,0.6951,0.6951,0.6877,0.6857,0.6945,0.6951,0.6951,0.6951,0.5886,0.4901,0.4164,0.3702,0.281,0.1357,0.1296,0.1296,0.1296,0.1296,0.1296,0.1296,0.1296,0.1296,0.1296,0.1296,0.1296,0.2534,0.2613,0.2703,0.2765,0.279,0.2826,0.2905,0.2994,0.3052,0.3088,0.3089,0.309,0.3106,0.309,0.3112,0.3196,0.3206,0.3456,0.4185,0.4583,0.5081,0.5802,0.6201,0.6396,0.6396,0.7074,0.7496,0.7496,0.8173,0.8602,0.8602,0.8602,0.8602,0.8602,0.8602,0.8602,0.8602,0.8602,0.8602,0.8602,0.8602,0.8949,0.9599,0.9599,0.9599,0.9599,0.9599,0.9599,0.9599,0.9599,0.9486,0.9274,0.9007,0.8771,0.859,0.859,0.859,0.859,0.859,0.859,0.859,0.859,0.859,0.859,0.859,0.859,0.859,0.859,0.859,0.8568,0.8384,0.8332,0.8223,0.7812,0.7724,0.7635,0.7297,0.7231,0.7209,0.7121,0.7098,0.7098,0.7098,0.7098,0.7098,0.7098,0.7098,0.7098,0.7098,0.7011,0.6991,0.7085,0.6827,0.6782,0.7076,0.5913,0.4912,0.4243,0.4122,0.3228,0.1373,0.1292,0.1306,0.1296,0.1296,0.1296,0.1296,0.1296,0.1296,0.1296,0.1296,0.1296,0.2583,0.2646,0.2692,0.2692,0.276,0.2837,0.2978,0.2938,0.2933,0.3075,0.3098,0.309,0.309,0.309,0.3112,0.3196,0.3206,0.3206,0.3206,0.411,0.4784,0.4784,0.5727,0.6371,0.6371,0.6371,0.6396,0.6396,0.6396,0.6396,0.6396,0.6396,0.6396,0.6396,0.6396,0.6396,0.6396,0.6396,0.6396,0.6396,0.6396,0.7521,0.9575,0.9575,0.9575,0.9575,0.9575,0.9599,0.9599,0.9599,0.9397,0.9096,0.9096,0.8908,0.859,0.859,0.859,0.859,0.859,0.859,0.859,0.859,0.859,0.859,0.859,0.859,0.859,0.859,0.859,0.859,0.859,0.859,0.8546,0.8266,0.8201,0.8069,0.7613,0.7503,0.7415,0.7165,0.7098,0.7098,0.7098,0.7098,0.7098,0.7098,0.7098,0.7098,0.7098,0.7098,0.7098,0.7098,0.6251,0.6052,0.6981,0.707,0.6236,0.4312,0.4174,0.3313,0.1386,0.1303,0.1308,0.1298,0.1296,0.1296,0.1296,0.1296,0.1296,0.1296,0.1296,0.1296,0.2471,0.258,0.2692,0.2692,0.2823,0.2961,0.2997,0.3025,0.3056,0.3153,0.3166,0.3179,0.3179,0.3179,0.3185,0.3204,0.3206,0.3206,0.3206,0.3481,0.3682,0.3682,0.3956,0.4157,0.4157,0.483,0.5281,0.5281,0.5977,0.6396,0.6396,0.6396,0.6396,0.6396,0.6396,0.6396,0.6396,0.6396,0.6396,0.6396,0.6396,0.6725,0.7347,0.7347,0.777,0.8471,0.8471,0.8899,0.9599,0.9599,0.9494,0.929,0.9145,0.895,0.8731,0.8631,0.859,0.859,0.859,0.859,0.859,0.859,0.859,0.859,0.859,0.859,0.859,0.859,0.859,0.859,0.859,0.859,0.8546,0.8266,0.8201,0.8113,0.7834,0.779,0.7702,0.7437,0.7393,0.7326,0.7143,0.7098,0.7098,0.7098,0.7098,0.7098,0.7098,0.6517,0.6118,0.6118,0.527,0.4821,0.511,0.4536,0.3901,0.3326,0.2618,0.1961,0.1316,0.1293,0.1299,0.131,0.1308,0.1299,0.1296,0.1296,0.1296,0.1296,0.1296,0.1296,0.2564,0.2662,0.2785,0.2785,0.2883,0.3016,0.3043,0.3084,0.3112,0.3185,0.3206,0.3206,0.3206,0.338,0.3456,0.3232,0.338,0.343,0.3232,0.3206,0.3206,0.3206,0.3206,0.3206,0.3206,0.3783,0.4157,0.4157,0.4755,0.5127,0.5127,0.5127,0.5127,0.5127,0.5127,0.5127,0.5127,0.5127,0.5127,0.5127,0.5127,0.5127,0.5152,0.6002,0.675,0.7372,0.7372,0.772,0.8372,0.88,0.8875,0.878,0.8996,0.8982,0.8773,0.8655,0.859,0.859,0.859,0.859,0.859,0.859,0.859,0.859,0.859,0.859,0.859,0.859,0.859,0.859,0.859,0.859,0.8568,0.8406,0.8362,0.8296,0.8069,0.8025,0.7944,0.7702,0.7657,0.7569,0.7304,0.7253,0.7231,0.7121,0.7098,0.6966,0.6583,0.5714,0.5137,0.5137,0.4314,0.389,0.4265,0.3779,0.3288,0.2934,0.233,0.1796,0.1362,0.135,0.133,0.13,0.1309,0.1294,0.1296,0.1303,0.1296,0.1296,0.1296,0.1303,0.2722,0.2837,0.2889,0.2894,0.2989,0.3091,0.3169,0.3221,0.3262,0.3268,0.3279,0.3279,0.333,0.3732,0.3909,0.343,0.3707,0.3833,0.333,0.3232,0.3206,0.3206,0.3206,0.3206,0.3206,0.3206,0.3206,0.3206,0.3206,0.3206,0.3206,0.3206,0.3206,0.3206,0.3206,0.3206,0.3206,0.3206,0.3206,0.3206,0.3206,0.3206,0.3254,0.5227,0.6176,0.6251,0.6346,0.6396,0.647,0.7447,0.7771,0.7766,0.8627,0.8852,0.8684,0.8611,0.859,0.859,0.859,0.859,0.859,0.859,0.859,0.859,0.859,0.859,0.859,0.859,0.859,0.859,0.859,0.859,0.8568,0.848,0.8524,0.8546,0.8288,0.8245,0.8179,0.7966,0.7922,0.7856,0.7569,0.7525,0.7437,0.7187,0.7143,0.6827,0.5941,0.4937,0.431,0.431,0.3377,0.3112,0.3953,0.4042,0.3667,0.2822,0.2755,0.2352,0.1436,0.1408,0.1381,0.131,0.1302,0.1306,0.1302,0.1292,0.1296,0.1296,0.1296,0.1292,0.2629,0.2719,0.2837,0.2883,0.3296,0.3728,0.38,0.4132,0.431,0.3905,0.3833,0.3959,0.4383,0.4558,0.4583,0.4483,0.421,0.3959,0.3833,0.3456,0.3206,0.3206,0.3206,0.3206,0.3206,0.3206,0.3206,0.3206,0.3206,0.3206,0.3206,0.3206,0.3206,0.3206,0.3206,0.3206,0.3206,0.3206,0.3206,0.3206,0.3206,0.3206,0.3206,0.3682,0.4358,0.5181,0.6027,0.6396,0.642,0.6645,0.6733,0.6786,0.7543,0.782,0.785,0.8392,0.859,0.859,0.859,0.859,0.859,0.859,0.859,0.859,0.859,0.859,0.859,0.859,0.859,0.859,0.859,0.859,0.8414,0.7606,0.8032,0.859,0.8524,0.8516,0.8428,0.8179,0.8135,0.8069,0.7856,0.7812,0.7746,0.7518,0.7489,0.7312,0.6849,0.5336,0.431,0.431,0.2752,0.1792,0.2016,0.2016,0.1927,0.1727,0.1727,0.1636,0.1413,0.1406,0.1389,0.1381,0.1331,0.1306,0.1302,0.1292,0.1296,0.1296,0.1296,0.13,0.2727,0.3053,0.3466,0.366,0.3986,0.4255,0.4371,0.4609,0.4784,0.4759,0.4558,0.4458,0.4759,0.501,0.511,0.4834,0.4784,0.4583,0.4085,0.3984,0.3883,0.3607,0.3581,0.3581,0.3581,0.3355,0.3206,0.3206,0.3206,0.3206,0.3206,0.3206,0.3206,0.3206,0.3206,0.3206,0.3206,0.3206,0.3206,0.3206,0.3206,0.3206,0.3206,0.3206,0.3506,0.4056,0.463,0.488,0.4906,0.5427,0.5627,0.5708,0.6524,0.6826,0.6912,0.7632,0.7878,0.7944,0.8436,0.859,0.859,0.859,0.859,0.859,0.859,0.859,0.859,0.859,0.8252,0.7878,0.7878,0.7878,0.7628,0.665,0.7165,0.776,0.7319,0.7209,0.7297,0.7606,0.7672,0.776,0.8003,0.7893,0.7716,0.7621,0.7467,0.729,0.7121,0.547,0.3931,0.302,0.2016,0.1391,0.1391,0.1391,0.1391,0.1391,0.1391,0.1391,0.1391,0.1391,0.1405,0.139,0.1327,0.1298,0.1303,0.1299,0.1296,0.1296,0.1296,0.1305,0.3019,0.3538,0.4202,0.4531,0.4668,0.4758,0.4901,0.4997,0.5211,0.5636,0.5311,0.496,0.506,0.5436,0.5586,0.516,0.5361,0.5286,0.4408,0.4583,0.4634,0.4185,0.4131,0.411,0.4009,0.3607,0.3305,0.3206,0.3206,0.3206,0.3206,0.3206,0.3206,0.3206,0.3206,0.3206,0.3206,0.3206,0.3206,0.3206,0.3206,0.3206,0.3206,0.3206,0.3206,0.3206,0.3206,0.3206,0.3279,0.4157,0.4526,0.4595,0.5489,0.5821,0.5896,0.6587,0.6849,0.6988,0.7812,0.8098,0.8098,0.8098,0.8208,0.834,0.834,0.834,0.834,0.834,0.7628,0.6849,0.6849,0.6849,0.6628,0.5675,0.6052,0.6451,0.583,0.5697,0.5919,0.6716,0.6988,0.7341,0.8135,0.8003,0.7782,0.7782,0.754,0.7121,0.6451,0.5026,0.3377,0.1591,0.1391,0.1391,0.1391,0.1391,0.1391,0.1391,0.1391,0.1391,0.1391,0.1391,0.1391,0.1391,0.1339,0.131,0.1306,0.1292,0.1302,0.1296,0.1302,0.1299,0.3628,0.397,0.4261,0.4524,0.4953,0.5313,0.5382,0.5822,0.6212,0.6287,0.5862,0.5636,0.6112,0.6237,0.6262,0.6187,0.5862,0.5561,0.5411,0.506,0.4784,0.4709,0.4684,0.4508,0.4031,0.3934,0.3707,0.3232,0.3206,0.3206,0.3206,0.3206,0.3206,0.3206,0.3206,0.3206,0.3206,0.3206,0.3206,0.3206,0.3206,0.3206,0.3206,0.3206,0.3206,0.3206,0.3206,0.3206,0.3206,0.3355,0.3374,0.3414,0.4339,0.4676,0.4729,0.5567,0.5897,0.5897,0.603,0.6096,0.6096,0.6096,0.6628,0.7297,0.7297,0.7297,0.7297,0.7297,0.6605,0.5897,0.5897,0.5897,0.5653,0.4719,0.4589,0.4852,0.5542,0.5697,0.5741,0.5852,0.6539,0.7408,0.8384,0.8502,0.8472,0.8472,0.8436,0.7209,0.3875,0.3253,0.2648,0.1525,0.1391,0.1391,0.1391,0.1391,0.1391,0.1391,0.1391,0.1391,0.1391,0.1391,0.1391,0.1391,0.1401,0.1351,0.1306,0.1292,0.1303,0.1298,0.1304,0.1299,0.4599,0.4724,0.4768,0.5298,0.5685,0.5914,0.5941,0.6183,0.6412,0.6412,0.6212,0.6112,0.6362,0.6412,0.6412,0.6412,0.6212,0.5937,0.5636,0.5661,0.5586,0.5286,0.5261,0.516,0.491,0.4358,0.3909,0.3657,0.338,0.3206,0.3206,0.3206,0.3206,0.3206,0.3206,0.3206,0.3206,0.3206,0.3206,0.3206,0.3206,0.3206,0.3206,0.3206,0.3206,0.3206,0.3206,0.3206,0.3206,0.3206,0.319,0.318,0.3566,0.3691,0.3765,0.4619,0.4919,0.4986,0.5519,0.5697,0.5697,0.5697,0.5985,0.6318,0.6318,0.6318,0.6318,0.6318,0.563,0.4919,0.4919,0.4919,0.4679,0.3741,0.392,0.4277,0.4166,0.4121,0.4277,0.4808,0.5985,0.7025,0.7467,0.812,0.859,0.859,0.6789,0.4808,0.3118,0.2897,0.2738,0.2289,0.2244,0.2244,0.2244,0.1996,0.1839,0.1839,0.1839,0.1772,0.1637,0.1615,0.1548,0.1413,0.1406,0.1384,0.135,0.1325,0.1305,0.1307,0.1305,0.1291,0.5278,0.5286,0.5255,0.5877,0.6134,0.6216,0.6282,0.6333,0.6368,0.6368,0.6368,0.6368,0.6368,0.639,0.6412,0.6412,0.6412,0.6262,0.5862,0.6137,0.6262,0.5862,0.5812,0.5762,0.5611,0.4885,0.4282,0.4034,0.3632,0.3355,0.3206,0.3206,0.3206,0.3206,0.3206,0.3206,0.3206,0.3206,0.3206,0.3206,0.3206,0.3206,0.3206,0.3206,0.3206,0.3206,0.3206,0.3196,0.3182,0.3182,0.3163,0.3153,0.3087,0.3063,0.3135,0.3716,0.3942,0.4054,0.4746,0.4986,0.4986,0.4986,0.5142,0.5342,0.5342,0.5342,0.5342,0.5342,0.4679,0.3942,0.3942,0.3942,0.3767,0.3076,0.3432,0.3741,0.3054,0.2897,0.3186,0.4121,0.5336,0.6267,0.6422,0.765,0.8274,0.7297,0.4719,0.2897,0.2897,0.2897,0.2897,0.2897,0.2897,0.2897,0.2897,0.2581,0.2334,0.2267,0.2222,0.2087,0.1817,0.1794,0.1682,0.1413,0.139,0.1397,0.1391,0.1346,0.1311,0.1305,0.1311,0.1316,0.5279,0.5382,0.5474,0.5822,0.5915,0.5986,0.6238,0.6298,0.6303,0.6303,0.6303,0.6303,0.6303,0.6366,0.6412,0.6412,0.6412,0.6387,0.6362,0.6387,0.6387,0.6362,0.6362,0.6162,0.5661,0.5561,0.5085,0.4085,0.3984,0.3732,0.3232,0.3206,0.3206,0.3206,0.3206,0.3206,0.3206,0.3206,0.3206,0.3206,0.3206,0.3206,0.3206,0.3206,0.3206,0.3206,0.3206,0.3171,0.3095,0.3095,0.3076,0.3016,0.3011,0.2975,0.2905,0.2964,0.2964,0.2987,0.3032,0.3054,0.3054,0.3054,0.3652,0.4366,0.4366,0.4366,0.4366,0.4366,0.37,0.2964,0.2964,0.2964,0.2964,0.292,0.2942,0.2964,0.292,0.2897,0.3186,0.4121,0.463,0.5075,0.5653,0.7341,0.7363,0.3741,0.3029,0.2897,0.2897,0.2897,0.2897,0.2897,0.2897,0.2897,0.2897,0.2875,0.2738,0.2401,0.2267,0.2087,0.1817,0.1794,0.1682,0.1413,0.1389,0.1397,0.1391,0.1386,0.1373,0.1306,0.1374,0.1386,0.5294,0.5426,0.5513,0.5719,0.5969,0.6167,0.6172,0.6238,0.6293,0.6293,0.6233,0.6178,0.6178,0.6271,0.635,0.6401,0.6412,0.6412,0.6412,0.6412,0.6412,0.6412,0.6412,0.6337,0.6137,0.5812,0.5436,0.506,0.4383,0.3909,0.3732,0.338,0.3206,0.3206,0.3206,0.3206,0.3206,0.3206,0.3206,0.3206,0.3206,0.3206,0.3206,0.3206,0.3206,0.3206,0.3206,0.3193,0.3169,0.3106,0.309,0.3068,0.3012,0.2992,0.2969,0.2911,0.2897,0.2897,0.2897,0.2897,0.2897,0.2897,0.3118,0.3409,0.3409,0.3409,0.3409,0.3409,0.3163,0.2897,0.2897,0.2897,0.2897,0.2897,0.2897,0.2897,0.2897,0.2897,0.3009,0.3342,0.3499,0.3652,0.3875,0.4478,0.4478,0.3096,0.2897,0.2897,0.2897,0.2897,0.2897,0.2897,0.2897,0.2897,0.2897,0.2897,0.2852,0.2738,0.267,0.2536,0.2267,0.2244,0.2155,0.1906,0.1906,0.1743,0.1397,0.1399,0.1395,0.136,0.1395,0.14,0.5116,0.5306,0.5459,0.5659,0.5859,0.6056,0.6176,0.6203,0.6243,0.6287,0.6227,0.6156,0.6118,0.6211,0.6314,0.6366,0.6385,0.6412,0.6412,0.6412,0.6412,0.6412,0.6412,0.6412,0.6412,0.6087,0.5787,0.5611,0.4935,0.4458,0.4282,0.3758,0.338,0.3206,0.3206,0.3206,0.3206,0.3206,0.3206,0.3206,0.3206,0.3206,0.3206,0.3206,0.3206,0.3206,0.3206,0.3193,0.3171,0.3106,0.309,0.3071,0.3012,0.2992,0.2972,0.2911,0.2897,0.2897,0.2897,0.2897,0.2897,0.2897,0.2897,0.2897,0.2897,0.2897,0.2897,0.2897,0.2897,0.2897,0.2897,0.2897,0.2897,0.2897,0.2897,0.2897,0.2897,0.2897,0.2897,0.2897,0.2897,0.2897,0.2897,0.2897,0.2897,0.2897,0.2897,0.2897,0.2897,0.2897,0.2897,0.2897,0.2897,0.2897,0.2897,0.2897,0.2897,0.2897,0.2897,0.2785,0.2513,0.2491,0.2401,0.22,0.22,0.1973,0.1525,0.1526,0.1481,0.1391,0.1393,0.1394,0.0,0.0,0.0,0.5605,0.5588,0.5659,0.6236,0.6241,0.6134,0.626,0.6287,0.6249,0.6129,0.6211,0.6293,0.6293,0.6366,0.6412,0.6412,0.6412,0.6412,0.6412,0.6412,0.6412,0.6412,0.6412,0.6187,0.5661,0.5611,0.5386,0.486,0.4307,0.3783,0.3229,0.3232,0.3206,0.3206,0.3206,0.3206,0.3206,0.3206,0.3206,0.3206,0.3206,0.3206,0.3206,0.3206,0.3171,0.3093,0.309,0.3068,0.3008,0.3005,0.2969,0.2897,0.2897,0.2897,0.2897,0.2897,0.2897,0.2897,0.2897,0.2897,0.2897,0.2897,0.2897,0.2897,0.2897,0.2897,0.2897,0.2897,0.2897,0.2897,0.2897,0.2897,0.2897,0.2897,0.2897,0.2897,0.2897,0.2897,0.2897,0.2897,0.2897,0.2897,0.2897,0.2897,0.2897,0.2897,0.2897,0.2897,0.2897,0.2897,0.2897,0.2897,0.2897,0.2897,0.2897,0.2897,0.2785,0.2513,0.2513,0.2424,0.2222,0.2222,0.2087,0.1817,0.1817,0.166,0.1391,0.1391,0.1391,0.4707,0.0,0.0,0.0,0.0,0.0,0.5826,0.5854,0.5865,0.6118,0.6091,0.6024,0.6102,0.6211,0.6293,0.6293,0.6366,0.6412,0.6412,0.6412,0.6412,0.6412,0.6412,0.6412,0.6412,0.6412,0.6337,0.6187,0.5812,0.5536,0.5386,0.486,0.4332,0.3808,0.3783,0.3581,0.3206,0.3206,0.3206,0.3206,0.3206,0.3206,0.3206,0.3206,0.3206,0.3206,0.3206,0.3196,0.3177,0.3109,0.3093,0.3066,0.3022,0.2969,0.2897,0.2897,0.2897,0.2897,0.2897,0.2897,0.2897,0.2897,0.2897,0.2897,0.2897,0.2897,0.2897,0.2897,0.2897,0.2897,0.2897,0.2897,0.2897,0.2897,0.2897,0.2897,0.2897,0.2897,0.2897,0.2897,0.2897,0.2897,0.2897,0.2897,0.2897,0.2897,0.2897,0.2897,0.2897,0.2897,0.2897,0.2897,0.2897,0.2897,0.2897,0.2897,0.2897,0.2897,0.2897,0.2875,0.2785,0.2785,0.2763,0.2715,0.2715,0.2581,0.2312,0.1973,0.166,0.1391,0.1391,0.1391,0.4396,0.4871,0.5208,0.5311,0.0,0.0,0.5794,0.5784,0.5794,0.6129,0.6129,0.6102,0.6172,0.6257,0.6323,0.6298,0.6366,0.6412,0.6412,0.6412,0.6412,0.6412,0.6412,0.6412,0.6412,0.6412,0.6412,0.6412,0.6112,0.5837,0.5611,0.5311,0.4784,0.4034,0.4009,0.3732,0.3206,0.3206,0.3206,0.3206,0.3206,0.3206,0.3206,0.3206,0.3206,0.3206,0.3206,0.3206,0.3204,0.3166,0.3125,0.3094,0.3058,0.2992,0.2897,0.2897,0.2897,0.2897,0.2897,0.2897,0.2897,0.2897,0.2897,0.2897,0.2897,0.2897,0.2897,0.2897,0.2897,0.2897,0.2897,0.2897,0.2897,0.2897,0.2897,0.2897,0.2897,0.2897,0.2897,0.2897,0.2897,0.2897,0.2897,0.2897,0.2897,0.2897,0.2897,0.2897,0.2897,0.2897,0.2897,0.2897,0.2897,0.2897,0.2897,0.2897,0.2897,0.2897,0.2897,0.2897,0.2897,0.2897,0.2897,0.2897,0.2897,0.2763,0.2491,0.2222,0.1906,0.157,0.157,0.1503,0.3908,0.4565,0.5114,0.5411,0.5458,0.0,0.5926,0.5854,0.5805,0.6183,0.6254,0.6254,0.6271,0.6339,0.6358,0.6309,0.6366,0.6412,0.6412,0.6412,0.6412,0.6412,0.6412,0.6412,0.6412,0.6412,0.6412,0.6412,0.6412,0.6187,0.5712,0.5687,0.5236,0.4207,0.411,0.3833,0.3305,0.3232,0.3206,0.3206,0.3206,0.3206,0.3206,0.3206,0.3206,0.3206,0.3206,0.3206,0.3206,0.3206,0.3164,0.3108,0.3108,0.3033,0.2905,0.2905,0.2903,0.2897,0.2897,0.2897,0.2897,0.2897,0.2897,0.2897,0.2897,0.2897,0.2897,0.2897,0.2897,0.2897,0.2897,0.2897,0.2897,0.2897,0.2897,0.2897,0.2897,0.2897,0.2897,0.2897,0.2897,0.2897,0.2897,0.2897,0.2897,0.2897,0.2897,0.2897,0.2897,0.2897,0.2897,0.2897,0.2897,0.2897,0.2897,0.2897,0.2897,0.2897,0.2897,0.2897,0.2897,0.2897,0.2897,0.2897,0.2897,0.2785,0.2536,0.2491,0.2244,0.1794,0.1682,0.1503,0.322,0.3855,0.4363,0.5205,0.5458,0.0,0.5588,0.5653,0.5757,0.5942,0.5975,0.6002,0.6129,0.6243,0.632,0.6298,0.6366,0.6412,0.6412,0.6412,0.6412,0.6412,0.6412,0.6412,0.6412,0.6412,0.6412,0.6412,0.6412,0.6362,0.6262,0.6237,0.5962,0.5311,0.486,0.4383,0.3858,0.3405,0.3206,0.3206,0.3206,0.3206,0.3206,0.3206,0.3206,0.3206,0.3206,0.3206,0.3206,0.3206,0.3163,0.3098,0.3098,0.3049,0.2989,0.2989,0.2936,0.2897,0.2897,0.2897,0.2897,0.2897,0.2897,0.2897,0.2897,0.2897,0.2897,0.2897,0.2897,0.2897,0.2897,0.2897,0.2897,0.2897,0.2897,0.2897,0.2897,0.2897,0.2897,0.2897,0.2897,0.2897,0.2897,0.2897,0.2897,0.2897,0.2897,0.2897,0.2897,0.2897,0.2897,0.2897,0.2897,0.2897,0.2897,0.2897,0.2897,0.2897,0.2897,0.2897,0.2897,0.2897,0.2897,0.2897,0.2897,0.2875,0.283,0.2446,0.211,0.1772,0.1031,0.0538,0.2426,0.3308,0.4061,0.497,0.5351,0.0,0.0,0.5637,0.5664,0.5947,0.5947,0.5958,0.6167,0.62,0.6222,0.6282,0.6317,0.6372,0.6401,0.6412,0.6412,0.6412,0.6412,0.6412,0.6412,0.6412,0.6412,0.6412,0.6412,0.6412,0.6412,0.6412,0.6037,0.5236,0.4935,0.4408,0.3607,0.333,0.3206,0.3206,0.3206,0.3206,0.3206,0.3206,0.3206,0.3206,0.3206,0.3206,0.3206,0.3206,0.3188,0.3158,0.3103,0.3085,0.3047,0.3016,0.2986,0.2936,0.2905,0.2897,0.2897,0.2897,0.2897,0.2897,0.2897,0.2897,0.2897,0.2897,0.2897,0.2897,0.2897,0.2897,0.2897,0.2897,0.2897,0.2897,0.2897,0.2897,0.2897,0.2897,0.2897,0.2897,0.2897,0.2897,0.2897,0.2897,0.2897,0.2897,0.2897,0.2897,0.2897,0.2897,0.2897,0.2897,0.2897,0.2897,0.2897,0.2897,0.2897,0.2897,0.2897,0.2897,0.2897,0.2897,0.2897,0.2715,0.2357,0.211,0.1749,0.1231,0.0157,-0.047,0.1476,0.2497,0.3414,0.4233,0.4842,0.5286,0.0,0.0,0.0,0.5964,0.5937,0.5931,0.6151,0.6129,0.6107,0.6205,0.626,0.6325,0.6368,0.6396,0.6412,0.6412,0.6412,0.6412,0.6412,0.6412,0.6412,0.6412,0.6412,0.6412,0.6412,0.6412,0.5962,0.4985,0.486,0.4332,0.3355,0.3254,0.3206,0.3206,0.3206,0.3206,0.3206,0.3206,0.3206,0.3206,0.3206,0.3206,0.3206,0.3206,0.3206,0.3201,0.3152,0.312,0.3084,0.3034,0.301,0.3014,0.2933,0.2914,0.2911,0.29,0.2897,0.2897,0.2897,0.2897,0.29,0.2911,0.2914,0.2916,0.2927,0.2914,0.2897,0.2897,0.2897,0.2897,0.2897,0.2897,0.2897,0.2897,0.2897,0.2897,0.2897,0.2897,0.2897,0.2897,0.2897,0.2897,0.2897,0.2897,0.2897,0.2897,0.2897,0.2897,0.2897,0.2897,0.2897,0.2897,0.2897,0.2897,0.2897,0.2897,0.2897,0.2897,0.2763,0.2401,0.1794,0.1413,0.0986,0.047,-0.0693,-0.1387,0.0235,0.0788,0.1284,0.2202,0.3347,0.4241,0.4159,0.0,0.5821,0.5762,0.0,0.574,0.5767,0.0,0.0,0.5942,0.6151,0.6298,0.6309,0.6372,0.6412,0.6412,0.6412,0.6412,0.6412,0.6412,0.6412,0.6412,0.6412,0.6412,0.6412,0.6412,0.6137,0.5536,0.506,0.4508,0.3909,0.343,0.3206,0.3206,0.3206,0.3206,0.3206,0.3206,0.3206,0.3206,0.3206,0.3206,0.3206,0.3206,0.3206,0.3204,0.3198,0.3158,0.3104,0.3098,0.3085,0.3077,0.3016,0.2994,0.2986,0.2914,0.2897,0.2897,0.2897,0.2897,0.2908,0.298,0.2994,0.3008,0.3063,0.2997,0.2897,0.2897,0.2897,0.2897,0.2897,0.2897,0.2897,0.2897,0.2897,0.2897,0.2897,0.2897,0.2897,0.2897,0.2897,0.2897,0.2897,0.2897,0.2897,0.2897,0.2897,0.2897,0.2897,0.2897,0.2897,0.2897,0.2897,0.2897,0.2897,0.2897,0.2897,0.2897,0.2267,0.1884,0.1794,0.0067,-0.0605,-0.0291,-0.1276,-0.2082,-0.0358,0.0164,0.0694,0.1592,0.2373,0.3058,0.35,0.4198,0.4872,0.533,0.0,0.0,0.0,0.0,0.0,0.0,0.5991,0.6107,0.6178,0.6203,0.626,0.6396,0.6412,0.6412,0.6412,0.6412,0.6412,0.6412,0.6412,0.6412,0.6412,0.6412,0.6012,0.516,0.491,0.4383,0.3531,0.3305,0.3206,0.3206,0.3206,0.3206,0.3206,0.3206,0.3206,0.3206,0.3206,0.3206,0.3206,0.3206,0.3206,0.3206,0.3206,0.319,0.3163,0.3103,0.3098,0.3093,0.308,0.3033,0.3,0.2978,0.2992,0.3022,0.3022,0.3022,0.3027,0.3052,0.3058,0.3063,0.3091,0.3054,0.3011,0.3011,0.3046,0.3082,0.3082,0.3082,0.3082,0.3082,0.3082,0.3082,0.3082,0.2965,0.2897,0.2897,0.2897,0.2897,0.2897,0.2897,0.2897,0.2897,0.2897,0.2897,0.2897,0.2897,0.2897,0.2897,0.2897,0.2897,0.2897,0.2491,0.2267,0.2267,0.1548,0.0941,0.0515,-0.0291,-0.0941,-0.1458,-0.2397,-0.3001,-0.0891,-0.0473,-0.0047,0.0593,0.1181,0.1785,0.2417,0.3004,0.3592,0.4223,0.4831,0.0,0.0,0.0,0.5821,0.5893,0.0,0.5969,0.6029,0.6091,0.6159,0.6341,0.6396,0.6412,0.6412,0.6412,0.6412,0.6412,0.6412,0.6412,0.6412,0.6412,0.5912,0.4834,0.4809,0.4282,0.3206,0.3206,0.3206,0.3206,0.3206,0.3206,0.3206,0.3206,0.3206,0.3206,0.3206,0.3206,0.3206,0.3206,0.3206,0.3206,0.3206,0.3206,0.3201,0.3155,0.3114,0.3131,0.3095,0.3059,0.303,0.303,0.3061,0.3097,0.3097,0.3097,0.3099,0.3092,0.3098,0.31,0.312,0.3123,0.312,0.312,0.3163,0.3206,0.3206,0.3206,0.3206,0.3206,0.3206,0.3206,0.3206,0.3087,0.2973,0.2973,0.2973,0.2971,0.2905,0.2897,0.2897,0.2897,0.2897,0.2897,0.2897,0.2897,0.2897,0.2897,0.2715,0.2603,0.2603,0.1884,0.1503,0.1503,0.0784,0.0134,-0.0403,-0.0583,-0.1122,-0.1996,-0.2825,-0.3365,-0.1562,-0.1499,-0.1429,-0.1406,-0.0516,0.039,0.0472,0.1363,0.2157,0.2202,0.3244,0.4146,0.416,0.5218,0.6034,0.592,0.6002,0.0,0.0,0.6013,0.6156,0.6282,0.6372,0.6412,0.6412,0.6412,0.6412,0.6412,0.6412,0.6412,0.6412,0.6412,0.5912,0.4834,0.4809,0.4282,0.3206,0.3206,0.3206,0.3206,0.3206,0.3206,0.3206,0.3206,0.3206,0.3206,0.3206,0.3206,0.3206,0.3206,0.3206,0.3206,0.3206,0.3206,0.3206,0.3204,0.3204,0.3193,0.3133,0.3098,0.3094,0.3094,0.3094,0.3097,0.3097,0.3097,0.3111,0.3096,0.3087,0.3125,0.3185,0.3201,0.3201,0.3201,0.3204,0.3206,0.3206,0.3206,0.3206,0.3206,0.3206,0.3206,0.3206,0.3198,0.3193,0.3193,0.3193,0.3112,0.2927,0.2897,0.2897,0.2897,0.2897,0.2897,0.2897,0.2897,0.2897,0.2897,0.2222,0.1839,0.1839,0.1122,0.074,0.074,0.0,-0.0381,-0.0403,-0.1054,-0.1391,-0.1436,-0.1996,-0.2735,-0.1996,-0.1749,-0.1502,-0.1502,-0.1197,-0.0761,-0.0252,0.0411,0.1051,0.1543,0.2237,0.2779,0.2775,0.3302,0.3934,0.4614,0.4894,0.5237,0.0,0.5937,0.598,0.6024,0.6203,0.6328,0.6328,0.6368,0.6412,0.6412,0.6412,0.6412,0.6412,0.6062,0.5536,0.4834,0.4458,0.3934,0.3206,0.3206,0.3206,0.3206,0.3206,0.3206,0.3206,0.3206,0.3206,0.3206,0.3206,0.3206,0.3206,0.3206,0.3206,0.3206,0.3206,0.3206,0.3206,0.3206,0.3206,0.3196,0.3112,0.3128,0.3164,0.3123,0.3136,0.3169,0.3169,0.3169,0.3174,0.3169,0.3174,0.3179,0.3201,0.3206,0.3206,0.3206,0.3206,0.3206,0.3206,0.3206,0.3206,0.3206,0.3206,0.3206,0.3206,0.3206,0.3206,0.3206,0.3206,0.3177,0.3096,0.3109,0.3079,0.3044,0.2944,0.2897,0.2897,0.1996,0.1436,0.1436,0.1211,0.1077,0.1077,0.0359,-0.0022,-0.0022,-0.0717,-0.1054,-0.1054,-0.1279,-0.1391,-0.1413,-0.1592,-0.2198,-0.2469,-0.2123,-0.1767,-0.1804,-0.167,-0.1416,-0.0913,-0.0561,-0.0211,0.0236,0.0953,0.1491,0.1502,0.2038,0.2685,0.3316,0.3578,0.3953,0.0,0.4768,0.4836,0.4836,0.5651,0.6243,0.6287,0.6295,0.632,0.6406,0.6374,0.6368,0.6406,0.5887,0.5361,0.4809,0.4282,0.3732,0.3206,0.3206,0.3206,0.3206,0.3206,0.3206,0.3206,0.3206,0.3206,0.3206,0.3206,0.3206,0.3206,0.3206,0.3206,0.3206,0.3206,0.3206,0.3206,0.3206,0.3206,0.3201,0.3161,0.3171,0.3198,0.3161,0.3174,0.3206,0.3206,0.3206,0.3206,0.3206,0.3206,0.3206,0.3206,0.3206,0.3206,0.3206,0.3206,0.3206,0.3206,0.3206,0.3206,0.3206,0.3206,0.3206,0.3206,0.3206,0.3206,0.3206,0.3206,0.3206,0.3206,0.3206,0.3177,0.3147,0.307,0.2751,0.2137,0.1437,0.0842,0.0432,0.0338,0.0314,0.0314,-0.0381,-0.0762,-0.0762,-0.1189,-0.1391,-0.1391,-0.1391,-0.1391,-0.1391,-0.1391,-0.1839]},{"header":{"parameterUnit":"m.s-1","parameterCategory":1,"la1":30.6,"la2":29.2853,"lo1":-89.7004,"lo2":-87.6739,"dy":0.0162,"dx":0.0183,"nx":112,"ny":82,"refTime":"2024-06-20T12:00:00:Z","depth":0,"parameterNumber":3,"parameterNumberName":"V-component_of_WINDS"},"data":[0.0,0.0,0.0,0.0,0.0,0.0,0.0,0.0,0.0,0.0,0.0,0.0,0.0,0.0,0.0,0.0,0.0,0.0,0.0,0.0,0.0,0.0,0.0,0.0,0.0,0.0,0.0,0.0,0.0,0.0,0.0,0.0,0.0,0.0,0.0,0.0,0.0,0.0,0.0,0.0,0.0,0.0,0.0,0.0,0.0,0.0,0.0,0.0,0.0,0.0,0.0,0.0,0.0,0.0,0.0,0.0,0.0,0.0,0.0,0.0,0.0,0.0,0.0,0.0,0.0,0.0,0.0,0.0,0.0,0.0,0.0,0.0,0.0,0.0,0.0,0.0,0.0,0.0,0.0,0.0,0.0,0.0,0.0,0.0,0.0,0.0,0.0,0.0,0.0,0.0,2.7811,2.7266,2.6284,2.6083,2.71,2.6208,2.5951,2.6844,0.0,0.0,0.0,0.0,0.0,0.0,0.0,0.0,0.0,0.0,0.0,0.0,0.0,0.0,0.0,0.0,0.0,0.0,0.0,0.0,0.0,0.0,0.0,0.0,0.0,0.0,0.0,0.0,0.0,0.0,0.0,0.0,0.0,0.0,0.0,0.0,0.0,0.0,0.0,0.0,0.0,0.0,0.0,0.0,0.0,0.0,0.0,0.0,0.0,0.0,0.0,0.0,0.0,0.0,0.0,0.0,0.0,0.0,0.0,0.0,0.0,0.0,0.0,0.0,0.0,0.0,0.0,0.0,0.0,0.0,0.0,0.0,0.0,0.0,0.0,0.0,0.0,0.0,0.0,0.0,0.0,0.0,0.0,0.0,0.0,0.0,0.0,0.0,0.0,0.0,0.0,0.0,0.0,0.0,0.0,0.0,0.0,0.0,0.0,0.0,0.0,0.0,0.0,0.0,2.7416,2.8044,2.6679,2.6328,2.789,2.6513,2.5938,2.675,0.0,0.0,0.0,0.0,0.0,0.0,0.0,0.0,0.0,0.0,0.0,0.0,0.0,0.0,0.0,0.0,0.0,0.0,0.0,0.0,0.0,0.0,0.0,0.0,0.0,0.0,0.0,0.0,0.0,0.0,0.0,0.0,0.0,0.0,0.0,0.0,0.0,0.0,0.0,0.0,0.0,0.0,0.0,0.0,0.0,0.0,0.0,0.0,0.0,0.0,0.0,0.0,0.0,0.0,0.0,0.0,0.0,0.0,0.0,0.0,0.0,0.0,0.0,0.0,0.0,0.0,0.0,0.0,0.0,0.0,0.0,0.0,0.0,0.0,0.0,0.0,0.0,0.0,0.0,0.0,0.0,0.0,0.0,0.0,0.0,0.0,0.0,0.0,0.0,0.0,0.0,0.0,0.0,0.0,0.0,0.0,0.0,0.0,0.0,0.0,0.0,0.0,0.0,2.7925,2.7844,2.8202,2.7539,2.7381,2.8122,2.6999,2.6403,2.6798,2.5994,0.0,0.0,0.0,0.0,0.0,0.0,0.0,0.0,0.0,0.0,0.0,0.0,0.0,0.0,0.0,0.0,0.0,0.0,0.0,0.0,0.0,0.0,0.0,0.0,0.0,0.0,0.0,0.0,0.0,0.0,0.0,0.0,0.0,0.0,0.0,0.0,0.0,0.0,0.0,0.0,0.0,0.0,0.0,0.0,0.0,0.0,0.0,0.0,0.0,0.0,0.0,0.0,0.0,0.0,0.0,0.0,0.0,0.0,0.0,0.0,0.0,0.0,0.0,0.0,0.0,0.0,0.0,0.0,0.0,0.0,0.0,0.0,0.0,0.0,0.0,0.0,0.0,0.0,0.0,0.0,0.0,0.0,0.0,0.0,0.0,0.0,0.0,0.0,0.0,0.0,0.0,0.0,0.0,0.0,0.0,0.0,0.0,0.0,0.0,0.0,0.0,0.0,2.8317,2.8587,2.8514,2.8359,2.8395,2.8742,2.7555,2.6898,2.7073,2.6075,0.0,0.0,0.0,0.0,0.0,0.0,0.0,0.0,0.0,0.0,0.0,0.0,0.0,0.0,0.0,0.0,0.0,0.0,0.0,0.0,0.0,0.0,0.0,0.0,0.0,0.0,0.0,0.0,0.0,0.0,0.0,0.0,0.0,0.0,0.0,0.0,0.0,0.0,0.0,0.0,0.0,0.0,0.0,0.0,0.0,0.0,0.0,0.0,0.0,0.0,0.0,0.0,0.0,0.0,0.0,0.0,0.0,0.0,0.0,0.0,0.0,0.0,0.0,0.0,0.0,0.0,0.0,0.0,0.0,0.0,0.0,0.0,0.0,0.0,0.0,0.0,0.0,0.0,0.0,0.0,0.0,0.0,0.0,0.0,0.0,0.0,0.0,0.0,0.0,0.0,0.0,0.0,0.0,0.0,0.0,0.0,0.0,0.0,0.0,0.0,0.0,0.0,2.8467,2.9441,2.9516,2.8788,2.8901,3.0395,2.824,2.7113,2.7874,2.6385,0.0,0.0,0.0,0.0,0.0,0.0,0.0,0.0,0.0,0.0,0.0,0.0,0.0,0.0,0.0,0.0,0.0,0.0,0.0,0.0,0.0,0.0,0.0,0.0,0.0,0.0,0.0,0.0,0.0,0.0,0.0,0.0,0.0,0.0,0.0,0.0,0.0,0.0,0.0,0.0,0.0,0.0,0.0,0.0,0.0,0.0,0.0,0.0,0.0,0.0,0.0,0.0,0.0,0.0,0.0,0.0,0.0,0.0,0.0,0.0,0.0,0.0,0.0,0.0,0.0,0.0,0.0,0.0,0.0,0.0,0.0,0.0,0.0,0.0,0.0,0.0,0.0,0.0,0.0,0.0,0.0,0.0,0.0,0.0,0.0,0.0,0.0,0.0,0.0,0.0,0.0,0.0,0.0,0.0,0.0,0.0,0.0,0.0,0.0,0.0,0.0,0.0,2.8803,2.9703,3.0293,3.0038,3.0073,3.0634,2.8789,2.7738,2.8035,0.0,0.0,0.0,0.0,0.0,0.0,0.0,0.0,0.0,0.0,0.0,0.0,0.0,0.0,0.0,0.0,0.0,0.0,0.0,0.0,0.0,0.0,0.0,0.0,0.0,0.0,0.0,0.0,0.0,0.0,0.0,0.0,0.0,0.0,0.0,0.0,0.0,0.0,0.0,0.0,0.0,0.0,0.0,0.0,0.0,0.0,0.0,0.0,0.0,0.0,0.0,0.0,0.0,0.0,0.0,0.0,0.0,0.0,0.0,0.0,0.0,0.0,0.0,0.0,0.0,0.0,0.0,0.0,0.0,0.0,0.0,0.0,0.0,0.0,0.0,0.0,0.0,0.0,0.0,0.0,0.0,0.0,0.0,0.0,0.0,0.0,0.0,0.0,0.0,0.0,0.0,0.0,0.0,0.0,0.0,0.0,0.0,0.0,0.0,0.0,0.0,0.0,2.8217,2.9231,3.0131,3.0722,3.0817,3.0702,3.0337,2.8972,2.8011,2.7695,0.0,0.0,0.0,0.0,0.0,0.0,0.0,0.0,0.0,0.0,0.0,0.0,0.0,0.0,0.0,0.0,0.0,0.0,0.0,0.0,0.0,0.0,0.0,0.0,0.0,0.0,0.0,0.0,0.0,0.0,0.0,0.0,0.0,0.0,0.0,0.0,0.0,0.0,0.0,0.0,0.0,0.0,0.0,0.0,0.0,0.0,0.0,0.0,0.0,0.0,0.0,0.0,0.0,0.0,0.0,0.0,0.0,0.0,0.0,0.0,0.0,0.0,0.0,0.0,0.0,0.0,0.0,0.0,0.0,0.0,0.0,0.0,0.0,0.0,0.0,0.0,0.0,0.0,0.0,0.0,0.0,0.0,0.0,0.0,0.0,0.0,0.0,0.0,0.0,0.0,0.0,0.0,0.0,0.0,0.0,0.0,0.0,0.0,0.0,0.0,0.0,0.0,2.831,2.9754,3.0807,3.0801,3.0846,3.0504,2.9569,2.8696,2.7801,0.0,0.0,0.0,0.0,0.0,0.0,0.0,0.0,0.0,0.0,0.0,0.0,0.0,0.0,0.0,0.0,0.0,0.0,0.0,0.0,0.0,0.0,0.0,0.0,0.0,0.0,0.0,0.0,0.0,0.0,0.0,0.0,0.0,0.0,0.0,0.0,0.0,0.0,0.0,0.0,0.0,0.0,0.0,0.0,0.0,0.0,0.0,0.0,0.0,0.0,0.0,0.0,0.0,0.0,0.0,0.0,0.0,0.0,0.0,0.0,0.0,0.0,0.0,0.0,0.0,0.0,0.0,0.0,0.0,0.0,0.0,0.0,0.0,0.0,0.0,0.0,0.0,0.0,0.0,0.0,0.0,0.0,0.0,0.0,0.0,0.0,0.0,0.0,0.0,0.0,0.0,0.0,0.0,0.0,0.0,0.0,0.0,0.0,0.0,0.0,0.0,0.0,0.0,2.827,2.9236,2.9895,2.9943,2.9369,2.8867,2.8593,2.7788,2.7158,2.6899,0.0,0.0,0.0,0.0,0.0,0.0,0.0,0.0,0.0,0.0,0.0,0.0,0.0,0.0,0.0,0.0,0.0,0.0,0.0,0.0,0.0,0.0,0.0,0.0,0.0,0.0,0.0,0.0,0.0,0.0,0.0,0.0,0.0,0.0,0.0,0.0,0.0,0.0,0.0,0.0,0.0,0.0,0.0,0.0,0.0,0.0,0.0,0.0,0.0,0.0,0.0,0.0,0.0,0.0,0.0,0.0,0.0,0.0,0.0,0.0,0.0,0.0,0.0,0.0,0.0,0.0,0.0,0.0,0.0,0.0,0.0,0.0,0.0,0.0,0.0,0.0,0.0,0.0,0.0,0.0,0.0,0.0,0.0,0.0,0.0,0.0,0.0,0.0,0.0,0.0,0.0,0.0,0.0,0.0,0.0,0.0,0.0,0.0,0.0,0.0,0.0,0.0,2.7792,2.8491,2.9037,2.9081,2.855,2.8086,2.7734,2.7201,2.6766,2.6405,0.0,0.0,0.0,0.0,0.0,0.0,0.0,0.0,0.0,0.0,0.0,0.0,0.0,0.0,0.0,0.0,0.0,0.0,0.0,0.0,0.0,0.0,0.0,0.0,0.0,0.0,0.0,0.0,0.0,0.0,0.0,0.0,0.0,0.0,0.0,0.0,0.0,0.0,0.0,0.0,0.0,0.0,0.0,0.0,0.0,0.0,0.0,0.0,0.0,0.0,0.0,0.0,0.0,0.0,0.0,0.0,0.0,0.0,0.0,0.0,0.0,0.0,0.0,0.0,0.0,0.0,0.0,0.0,0.0,0.0,0.0,0.0,0.0,0.0,0.0,0.0,0.0,0.0,0.0,0.0,0.0,0.0,0.0,0.0,0.0,0.0,0.0,0.0,0.0,0.0,0.0,0.0,0.0,0.0,0.0,0.0,0.0,0.0,0.0,0.0,0.0,0.0,2.6993,2.7751,2.8267,2.8179,2.8041,2.7656,2.6953,2.6815,2.6424,2.5666,0.0,0.0,0.0,0.0,0.0,0.0,0.0,0.0,0.0,0.0,0.0,0.0,0.0,0.0,0.0,0.0,0.0,0.0,0.0,0.0,0.0,0.0,0.0,0.0,0.0,0.0,0.0,0.0,0.0,0.0,0.0,0.0,0.0,0.0,0.0,0.0,0.0,0.0,0.0,0.0,0.0,0.0,0.0,0.0,0.0,0.0,0.0,0.0,0.0,0.0,0.0,0.0,0.0,0.0,0.0,0.0,0.0,0.0,0.0,0.0,2.832,2.8125,0.0,0.0,0.0,0.0,0.0,0.0,0.0,0.0,0.0,0.0,0.0,0.0,0.0,0.0,0.0,0.0,0.0,0.0,0.0,0.0,0.0,0.0,0.0,0.0,0.0,0.0,0.0,0.0,0.0,0.0,0.0,0.0,0.0,0.0,0.0,0.0,0.0,0.0,0.0,0.0,2.7091,2.7704,2.7972,2.7355,2.6634,2.6172,2.5976,2.5915,2.5797,2.5598,2.395,0.0,0.0,0.0,0.0,0.0,0.0,0.0,0.0,0.0,0.0,0.0,0.0,0.0,0.0,0.0,0.0,0.0,0.0,0.0,0.0,0.0,0.0,0.0,0.0,0.0,0.0,0.0,0.0,0.0,0.0,0.0,0.0,0.0,0.0,0.0,0.0,0.0,0.0,0.0,0.0,0.0,0.0,0.0,0.0,0.0,0.0,0.0,0.0,0.0,0.0,0.0,0.0,0.0,0.0,0.0,0.0,0.0,0.0,0.0,2.9297,2.9141,0.0,0.0,0.0,0.0,0.0,0.0,0.0,0.0,0.0,0.0,0.0,0.0,0.0,0.0,0.0,0.0,0.0,0.0,0.0,0.0,0.0,0.0,0.0,0.0,0.0,0.0,0.0,0.0,0.0,0.0,0.0,0.0,0.0,0.0,0.0,0.0,0.0,0.0,0.0,0.0,2.6414,2.6725,2.6842,2.6409,2.5971,2.5703,2.5662,2.5634,2.5591,2.5608,2.4368,0.0,0.0,0.0,0.0,0.0,0.0,0.0,0.0,0.0,0.0,0.0,0.0,0.0,0.0,0.0,0.0,0.0,0.0,0.0,0.0,0.0,0.0,0.0,0.0,0.0,0.0,0.0,0.0,0.0,0.0,0.0,0.0,0.0,0.0,0.0,0.0,0.0,0.0,0.0,0.0,0.0,0.0,0.0,0.0,0.0,0.0,0.0,0.0,0.0,0.0,0.0,0.0,0.0,3.2025,3.2337,3.2338,3.2338,3.1948,3.1285,3.0585,3.0508,3.0859,3.0117,0.0,0.0,0.0,0.0,0.0,0.0,0.0,0.0,0.0,0.0,0.0,0.0,0.0,0.0,0.0,0.0,0.0,0.0,0.0,0.0,0.0,0.0,2.9632,2.8893,2.9285,2.9639,2.8903,0.0,0.0,0.0,0.0,0.0,0.0,0.0,0.0,0.0,0.0,0.0,2.5722,2.5822,2.5872,2.5702,2.5697,2.5663,2.5615,2.5593,2.5593,2.5614,2.4785,2.4354,0.0,0.0,0.0,0.0,0.0,0.0,0.0,0.0,0.0,0.0,0.0,0.0,0.0,0.0,0.0,0.0,0.0,0.0,0.0,0.0,0.0,0.0,0.0,0.0,0.0,0.0,0.0,0.0,0.0,0.0,0.0,0.0,2.5836,2.759,0.0,0.0,0.0,0.0,0.0,0.0,0.0,0.0,0.0,0.0,0.0,0.0,0.0,3.2846,3.2729,3.2843,3.296,3.3081,3.3194,3.3233,3.3237,3.3237,3.3159,3.3042,3.2964,0.0,3.0897,3.0781,0.0,0.0,0.0,0.0,0.0,0.0,0.0,0.0,0.0,0.0,0.0,0.0,0.0,0.0,0.0,0.0,0.0,0.0,0.0,0.0,0.0,0.0,3.0606,3.0489,3.0567,3.0648,3.0576,2.937,2.8241,2.8007,2.7968,2.7891,0.0,0.0,0.0,0.0,0.0,0.0,2.5878,2.6307,2.6477,2.576,2.5714,2.5692,2.5692,2.5611,2.5594,2.5608,2.4798,2.4626,2.5405,2.3736,0.0,0.0,0.0,0.0,0.0,0.0,0.0,0.0,0.0,0.0,0.0,0.0,0.0,0.0,0.0,0.0,0.0,0.0,0.0,0.0,0.0,0.0,0.0,0.0,0.0,0.0,0.0,0.0,0.0,2.54,2.6886,2.8141,2.8297,2.8298,0.0,0.0,0.0,0.0,0.0,0.0,0.0,0.0,0.0,3.2291,3.3034,3.3385,3.3385,3.3383,3.3656,3.4128,3.4125,3.4125,3.4128,3.4128,3.3854,3.3385,3.3388,3.2961,3.2299,3.2302,3.2069,3.1756,0.0,0.0,0.0,0.0,3.0426,3.0387,2.9915,3.0069,3.0261,2.9322,0.0,0.0,0.0,0.0,0.0,0.0,0.0,2.9709,3.0177,3.0528,3.0801,3.0801,3.0801,3.0801,3.0843,3.0264,2.9605,2.9139,2.9023,2.8867,2.8312,2.8276,0.0,0.0,0.0,2.7271,2.652,2.6326,2.6093,2.5743,2.571,2.5692,2.5701,2.5661,2.5647,2.5615,2.5246,2.5192,2.5562,2.4413,2.3924,0.0,0.0,0.0,0.0,0.0,0.0,0.0,0.0,0.0,0.0,0.0,0.0,0.0,0.0,0.0,0.0,0.0,0.0,0.0,0.0,0.0,0.0,0.0,0.0,0.0,0.0,0.0,0.0,2.6955,2.7972,2.8843,2.9153,2.927,0.0,0.0,0.0,0.0,0.0,0.0,3.3338,3.3612,3.3729,3.3729,3.3962,3.4079,3.4079,3.4079,3.4392,3.5018,3.5018,3.5018,3.5018,3.5018,3.4666,3.408,3.4085,3.4087,3.4048,3.3586,3.3393,3.3393,3.3393,3.3002,3.2416,3.2181,3.2102,3.1984,3.1161,3.1276,3.1548,3.0296,2.9788,2.9514,2.9084,0.0,0.0,0.0,0.0,3.0021,3.0645,3.0801,3.0801,3.0801,3.0801,3.0801,3.0801,3.0845,3.0695,3.0075,2.9921,2.9725,2.9006,2.8936,0.0,2.858,2.8007,2.7469,2.7026,2.6412,2.5945,2.5732,2.5708,2.569,2.5703,2.5703,2.5694,2.5633,2.5622,2.5608,2.5585,2.4983,2.464,2.4635,0.0,0.0,0.0,0.0,0.0,0.0,0.0,0.0,0.0,0.0,0.0,0.0,0.0,0.0,0.0,0.0,0.0,0.0,0.0,0.0,0.0,0.0,0.0,0.0,0.0,0.0,0.0,0.0,0.0,3.0584,3.1411,0.0,0.0,0.0,0.0,3.326,3.326,3.3299,3.3416,3.4198,3.4627,3.4627,3.5446,3.5875,3.5875,3.5875,3.5875,3.5914,3.5914,3.5914,3.5914,3.5914,3.5914,3.5875,3.5875,3.5876,3.572,3.4093,3.3393,3.3393,3.3393,3.3354,3.3236,3.2412,3.2097,3.1979,3.1116,3.084,3.084,3.0762,3.0216,2.9749,3.045,3.0138,0.0,0.0,3.0723,3.0762,3.0801,3.0801,3.0801,3.0801,3.0801,3.0801,3.0801,3.0845,3.0889,3.0855,3.0818,3.0819,3.0781,0.0,3.0382,2.9575,2.9388,2.8797,2.7135,2.6937,2.6611,2.5795,2.5698,2.5713,2.5703,2.5703,2.57,2.571,2.5651,2.5599,2.5598,2.556,2.5512,2.5531,2.4629,0.0,0.0,0.0,0.0,0.0,0.0,0.0,0.0,0.0,0.0,0.0,0.0,0.0,0.0,0.0,0.0,0.0,0.0,0.0,0.0,0.0,0.0,0.0,0.0,0.0,0.0,0.0,0.0,3.2296,3.2763,0.0,3.2932,3.321,3.3643,3.419,3.4234,3.447,3.5055,3.5368,3.5524,3.5524,3.5836,3.5992,3.5992,3.5992,3.5992,3.5992,3.5992,3.5992,3.5992,3.5407,3.5174,3.5135,3.4587,3.4314,3.4275,3.3656,3.4048,3.5062,3.5062,3.4398,3.3344,3.3069,3.2561,3.1976,3.1114,3.1152,3.1543,3.0996,3.0606,3.0411,3.0723,3.0606,3.0411,3.0723,3.0801,3.0801,3.0801,3.0801,3.0801,3.0801,3.0801,3.0801,3.0801,3.0803,3.0845,3.089,3.0895,3.0896,3.0852,3.0856,3.0737,3.0342,2.9842,2.9252,2.8608,2.8095,2.745,2.6572,2.6516,2.6302,2.5733,2.57,2.5703,2.5688,2.5671,2.5655,2.5601,2.5653,2.5658,2.5652,2.4753,2.3875,0.0,0.0,0.0,0.0,0.0,0.0,0.0,0.0,0.0,0.0,0.0,0.0,0.0,0.0,0.0,0.0,0.0,0.0,0.0,0.0,0.0,0.0,0.0,0.0,0.0,3.1294,3.2115,3.3265,3.365,3.3846,3.3857,3.4099,3.4531,3.5118,3.5124,3.5401,3.5989,3.5989,3.5989,3.5992,3.5992,3.5992,3.5992,3.5992,3.5992,3.5992,3.5992,3.5992,3.5992,3.5407,3.5135,3.5096,3.4549,3.4275,3.4275,3.4275,3.4977,3.5953,3.5368,3.4431,3.3377,3.3065,3.2597,3.1973,3.1113,3.1191,3.1582,3.0996,3.0801,3.0801,3.0801,3.0801,3.0801,3.0801,3.0801,3.0801,3.0801,3.0801,3.0801,3.0801,3.0801,3.0801,3.0801,3.0801,3.0803,3.0887,3.0892,3.0893,3.0848,3.0856,3.0854,3.0716,3.0264,2.9792,2.9434,2.8941,2.8303,2.7449,2.7366,2.7043,2.62,2.6124,2.5975,2.5733,2.5683,2.5672,2.5621,2.5671,2.5672,2.5661,2.5003,2.4415,2.3852,0.0,0.0,0.0,0.0,0.0,0.0,0.0,0.0,0.0,0.0,0.0,0.0,0.0,0.0,0.0,0.0,0.0,0.0,0.0,0.0,0.0,0.0,0.0,3.0893,3.2382,3.344,3.3487,3.4232,3.4745,3.4756,3.5497,3.6004,3.6004,3.6004,3.6009,3.6019,3.6019,3.5984,3.5991,3.5991,3.5991,3.5991,3.5991,3.5991,3.5991,3.5992,3.5992,3.5992,3.5953,3.5953,3.5953,3.5913,3.5913,3.5913,3.5913,3.5913,3.5757,3.4118,3.3455,3.3338,3.2441,3.2129,3.1934,3.1074,3.08,3.08,3.08,3.08,3.08,3.0839,3.0839,3.08,3.0839,3.08,3.0801,3.0801,3.0801,3.0801,3.0801,3.0801,3.0801,3.0801,3.0801,3.0803,3.0887,3.0888,3.0889,3.0894,3.0896,3.085,3.0705,3.0776,0.0,2.9485,2.9471,2.9211,2.8327,2.8248,2.7891,2.707,2.6944,2.6557,2.5769,2.5688,2.5688,2.5688,2.5688,2.5676,2.5639,2.5493,2.541,2.5346,0.0,0.0,0.0,0.0,0.0,0.0,0.0,0.0,0.0,0.0,0.0,0.0,0.0,0.0,0.0,0.0,0.0,0.0,0.0,0.0,0.0,3.2246,3.3473,3.3552,3.3967,3.4489,3.5154,3.5427,3.5585,3.5589,3.5792,3.5914,3.5914,3.5961,3.6006,3.6008,3.6008,3.601,3.6013,3.6013,3.6013,3.6013,3.598,3.5984,3.5984,3.5989,3.5992,3.5992,3.5368,3.5057,3.5017,3.4386,3.411,3.411,3.4103,3.41,3.4179,3.4973,3.49,3.4237,3.3377,3.2243,3.1108,3.0873,3.0791,3.0786,3.0786,3.0786,3.0903,3.1565,3.1297,3.0912,3.1574,3.1305,3.0801,3.0801,3.0801,3.0801,3.0801,3.0801,3.0801,3.0801,3.0801,3.0801,3.0803,3.0842,3.0846,3.0893,3.0895,3.0851,3.0785,3.0789,3.0653,3.0305,3.0332,3.0039,2.9091,2.9023,2.8484,2.7068,2.6921,2.6549,2.5742,2.57,2.5698,2.5698,2.5698,2.5954,2.647,2.6487,2.6415,0.0,0.0,0.0,0.0,0.0,0.0,0.0,0.0,0.0,0.0,0.0,0.0,0.0,0.0,0.0,0.0,0.0,0.0,0.0,0.0,0.0,0.0,3.3522,3.4632,3.5008,3.51,3.5326,3.5833,3.5882,3.589,3.589,3.6248,3.6446,3.6446,3.6804,3.7044,3.7048,3.705,3.7052,3.7056,3.7056,3.6861,3.6511,3.6516,3.6325,3.6013,3.6019,3.5982,3.5982,3.5476,3.5241,3.5202,3.4728,3.449,3.449,3.4485,3.4482,3.4522,0.0,0.0,0.0,0.0,3.2779,3.1878,3.1878,3.1875,3.1908,3.1908,3.1908,3.1986,3.2493,3.2302,3.1995,3.2502,3.2037,3.1338,3.1338,3.1066,3.0793,3.0796,3.0798,3.0798,3.08,3.0801,3.0801,3.0801,3.0801,0.0,3.0849,3.0891,3.0887,3.0825,3.0785,3.0769,3.066,3.0685,3.0495,2.9932,2.9932,2.9423,2.8083,2.7667,0.0,0.0,0.0,2.57,2.57,2.57,0.0,0.0,0.0,0.0,0.0,2.7745,0.0,0.0,2.828,2.8411,0.0,0.0,0.0,0.0,0.0,0.0,0.0,0.0,0.0,0.0,0.0,0.0,0.0,0.0,0.0,0.0,3.4512,3.4887,3.5582,3.5818,3.587,3.5875,3.5982,3.6041,3.6041,3.6823,3.7331,3.7331,3.8071,3.8504,3.8516,3.8516,0.0,0.0,0.0,3.8143,3.7364,3.7365,3.6976,3.6275,3.6276,3.6238,3.6121,3.6121,3.6082,3.6004,3.6003,3.6003,3.6002,3.6001,3.6001,3.5845,3.4286,3.3624,3.3546,3.3546,3.3467,3.3387,3.3387,0.0,0.0,3.3386,3.3386,3.3425,3.3503,3.3465,3.3426,3.3504,3.2921,3.2259,3.2259,3.1597,3.0937,3.0946,3.087,3.0793,3.0798,3.0799,3.08,3.08,3.08,3.0801,3.0801,3.0843,3.0876,3.0807,3.0771,3.0766,3.0729,3.069,3.0698,3.0704,3.07,0.0,2.9438,2.8657,2.7806,2.6912,2.613,2.5701,2.5701,2.5779,2.6153,2.6813,2.6923,2.7713,2.9219,2.9219,2.9653,3.0482,2.8973,2.8709,0.0,0.0,0.0,0.0,0.0,0.0,0.0,0.0,0.0,0.0,0.0,0.0,0.0,0.0,0.0,3.4316,3.4982,3.5529,3.5684,3.5737,3.575,3.5824,3.6452,3.6865,3.6865,3.7707,3.8266,3.8266,3.8383,3.85,3.8503,3.8503,3.8504,3.8507,3.8507,3.8429,3.8234,3.8245,3.8172,3.8016,3.8026,0.0,3.6978,3.6978,3.6627,3.6004,3.5955,3.5913,3.5912,3.5902,3.5936,3.5899,3.5608,3.5068,3.4445,3.4445,3.4009,3.3414,3.3414,3.341,3.3404,3.3404,3.3404,3.3521,3.4182,3.3915,0.0,3.4232,3.3811,3.3156,3.3156,3.2493,3.1831,3.1833,3.1327,3.0782,3.0783,3.0789,3.0794,3.0794,3.0798,3.0801,3.0801,3.0783,3.0725,3.0723,3.0725,3.0714,3.0713,3.0747,3.0758,3.0717,3.0638,3.0037,2.8563,2.8236,2.7509,2.6055,2.5781,2.5703,2.5703,2.6367,2.6788,2.6875,2.7577,2.8378,2.9271,2.9271,2.9737,3.0588,3.0178,3.0144,0.0,0.0,0.0,0.0,0.0,0.0,0.0,0.0,0.0,0.0,0.0,3.272,3.3574,0.0,3.4549,3.4971,3.5436,3.5706,3.5706,3.5692,3.5728,3.5736,3.6563,3.7096,3.7096,3.8298,3.9096,3.9096,3.9541,3.9784,3.9784,3.9784,3.9784,3.9784,3.9784,3.9589,3.9161,3.9168,3.8938,3.851,3.8516,3.8285,3.7856,3.7856,3.739,3.661,3.6565,3.6289,3.5899,3.5893,3.589,3.5892,3.5943,3.5675,3.5286,3.5286,3.5008,3.465,3.465,3.4647,3.4643,3.4643,3.4643,3.4721,3.5111,3.4958,3.4728,3.5195,3.4655,3.3998,3.3998,3.3063,3.2091,3.2095,3.1784,3.1318,3.0894,3.1133,3.1332,3.0864,3.0792,3.0797,3.0797,3.0734,3.0719,3.0742,3.073,3.072,3.0809,3.0751,3.0737,3.0744,3.0728,3.0385,2.957,2.8681,2.7486,2.582,2.5703,2.5703,2.5703,2.6133,2.6519,2.6871,2.6894,2.7508,2.8687,2.8218,2.8664,2.994,2.9926,3.0158,0.0,0.0,0.0,0.0,0.0,0.0,0.0,3.1432,3.2318,3.2519,3.3099,3.3798,3.4507,3.4778,3.5126,3.5823,3.6091,3.6207,3.6207,3.6207,3.6184,3.619,3.6861,3.7398,3.7553,3.8993,3.9912,3.9912,4.0643,4.105,4.105,4.105,4.105,4.105,4.105,4.0739,4.0037,3.9999,3.9648,3.8986,3.8986,3.8872,3.8723,3.8723,3.826,3.7448,3.7448,3.7058,3.6395,3.6201,3.6162,3.6123,3.5968,3.589,3.589,3.589,3.589,3.589,3.589,3.589,3.589,3.589,3.589,3.589,3.589,3.589,3.589,3.589,3.5384,3.4838,3.4838,3.3709,3.2582,3.2589,3.2356,3.193,3.1434,3.1593,3.1672,3.1165,3.0901,3.079,3.079,3.0773,3.0726,3.0751,3.0731,3.0726,3.0838,3.0795,3.0732,3.078,3.0818,3.0737,3.0544,2.9168,2.7615,2.6053,2.5937,2.5898,2.5703,2.5859,2.6246,2.6889,2.6353,2.6813,2.8344,2.7584,2.8017,2.9569,2.9569,2.9915,3.0029,3.0222,3.057,3.2075,3.2028,3.2177,0.0,3.4421,3.4234,3.5002,3.5239,3.5364,3.5546,3.6129,3.6632,3.6748,3.7403,3.7906,3.7906,3.7906,3.7909,3.7914,3.8086,3.8471,3.9252,4.0189,4.0759,4.0759,4.0844,4.0924,4.0924,4.0924,4.0924,4.0924,4.0924,4.0885,4.0768,4.0768,4.0729,4.0613,4.0613,4.0243,3.9579,3.9579,3.9132,3.8344,3.8344,3.8305,3.8149,3.737,3.7058,3.698,3.6201,3.589,3.589,3.589,3.589,3.589,3.589,3.589,3.589,3.589,3.589,3.589,3.589,3.589,3.589,3.589,3.5812,3.5734,3.5734,3.5033,3.4331,3.4333,3.3165,3.2309,3.2972,3.1966,3.1154,3.1815,3.1319,3.0781,3.0781,3.0778,3.0772,3.0719,3.0713,3.0712,3.0719,3.0741,3.0794,3.0798,3.0819,3.0494,2.9721,2.8814,2.7887,2.691,2.6832,2.652,2.574,2.6444,2.6862,2.6915,2.7499,2.83,2.9241,2.9154,2.9574,3.0462,3.0462,3.0494,3.0248,3.1218,3.1987,3.2213,3.31,3.4103,3.472,3.4952,3.5151,3.5516,3.5596,3.5754,3.6262,3.6609,3.7005,3.7567,3.7956,3.8194,3.8212,3.8215,3.8409,3.8917,3.8979,3.9151,3.9503,4.0327,4.0824,4.0824,4.0891,4.0907,4.0907,4.0907,4.0907,4.0907,4.0907,4.0907,4.0907,4.0907,4.0907,4.0907,4.0907,4.0722,4.0393,4.0393,3.9934,3.9095,3.8589,3.8395,3.8356,3.8004,3.7848,3.777,3.6918,3.6607,3.6535,3.6071,3.589,3.589,3.589,3.589,3.589,3.589,3.5917,3.5903,3.5903,3.5887,3.5829,3.5829,3.5829,3.5834,3.5897,3.5241,3.4583,3.46,3.4059,3.3514,3.3436,3.3205,3.2819,3.2234,3.1814,3.1393,3.0886,3.0813,3.0776,3.0769,3.0711,3.071,3.0741,3.0739,3.0743,3.0799,3.0793,3.0476,2.9622,2.9244,2.8664,2.7804,2.7768,2.7574,2.7223,2.7577,2.7733,2.7641,2.8004,2.8311,2.8636,2.8637,2.908,2.9891,2.9891,3.0166,3.0607,3.173,3.2617,3.2416,3.3809,3.5123,3.4728,3.5117,3.5589,3.5563,3.5566,3.5759,3.6376,3.6839,3.7389,3.8077,3.8543,3.8859,3.8842,3.8845,3.9119,3.9744,3.9827,3.9834,3.9834,4.0424,4.0804,4.0804,4.0842,4.0866,4.0866,4.0866,4.0866,4.0866,4.0866,4.0866,4.0866,4.0866,4.0866,4.0866,4.0866,4.0873,4.0886,4.09,4.0558,3.9934,3.9271,3.9036,3.8997,3.8764,3.8647,3.857,3.7756,3.7448,3.734,3.6543,3.6096,3.5862,3.5862,3.5862,3.5862,3.5862,3.5885,3.5864,3.5864,3.5842,3.5814,3.5814,3.5814,3.5822,3.5857,3.5398,3.494,3.4935,3.4787,3.4517,3.4174,3.4176,3.3981,3.2969,3.2624,3.2161,3.1303,3.1156,3.1084,3.0852,3.0754,3.0754,3.0792,3.0778,3.0735,3.0798,3.0801,3.0567,2.9982,2.9946,2.9557,2.8698,2.8663,2.8547,2.8313,2.8512,2.8594,2.8547,2.8799,2.8878,2.8819,2.8815,2.9138,2.9757,2.9757,3.0114,3.1429,3.1698,3.2125,3.3705,3.4167,3.4475,3.5273,3.5465,3.5517,3.5483,3.549,3.5541,3.5611,3.6967,3.8086,3.8086,3.9476,4.0518,4.0518,4.0518,4.0556,4.0556,4.0622,4.0642,4.0642,4.0755,4.0816,4.0816,4.0819,4.078,4.078,4.078,4.078,4.078,4.078,4.078,4.078,4.078,4.078,4.078,4.078,4.0814,4.0793,4.0886,4.0907,4.0869,4.083,4.083,4.0752,3.9895,3.9543,3.9465,3.8609,3.8259,3.8181,3.7374,3.652,3.5818,3.5818,3.5818,3.5818,3.5818,3.5818,3.5816,3.5816,3.5816,3.5814,3.5814,3.5814,3.5814,3.5816,3.5777,3.579,3.5834,3.5222,3.4802,3.565,3.4565,3.3631,3.437,3.3904,3.3086,3.223,3.2074,3.1765,3.0917,3.0801,3.0805,3.0817,3.0787,3.0794,3.08,3.0801,3.0801,3.0762,3.0762,3.0411,2.9592,2.9554,2.9163,2.8342,2.906,2.9451,2.9473,3.022,3.06,3.0616,3.0614,3.0614,3.0653,3.0653,3.0653,3.1555,3.2494,3.3471,3.4048,3.4622,3.5157,3.5423,3.55,3.5503,3.5482,3.5909,3.6297,3.6349,3.7739,3.8905,3.8888,3.9855,4.0598,4.0588,4.0591,4.0591,4.0591,4.0602,4.0647,4.0647,4.0742,4.1006,4.1548,4.1587,4.1587,4.1587,4.1587,4.1354,4.0813,4.0816,4.0816,4.0816,4.0816,4.0816,4.0816,4.0816,4.0787,4.0808,4.0828,4.0837,4.0837,4.0837,4.0837,4.0798,4.0527,4.0411,4.0292,3.9442,3.9091,3.8974,3.8158,3.7655,3.7236,3.6181,3.5814,3.5814,3.5814,3.5756,3.5732,3.5732,3.5747,3.572,3.572,3.572,3.573,3.5722,3.5732,3.5743,3.5828,3.5605,3.5492,3.5778,3.539,3.4894,3.4648,3.438,3.392,3.3122,3.2969,3.2658,3.1804,3.1155,3.0813,3.0817,3.0781,3.0787,3.0795,3.0796,3.0797,3.08,3.0801,3.0684,3.0411,3.0411,3.0254,2.9981,3.0222,3.0351,3.0371,3.0635,3.0752,3.0694,3.0694,3.0694,3.0694,3.0694,3.0694,3.2327,3.3303,3.4242,3.4508,3.5004,3.5423,3.5423,3.5434,3.5556,3.5867,3.6339,3.6696,3.6696,3.8123,3.9211,3.8887,3.9815,4.0557,4.0548,4.0552,4.0668,4.0972,4.1064,4.1187,4.1457,4.1588,4.1744,4.1989,4.2273,4.2473,4.2473,4.2473,4.2241,4.1703,4.1703,4.1548,4.1238,4.1548,4.1548,4.1238,4.0929,4.0816,4.0816,4.0816,4.0816,4.0816,4.0816,4.0816,4.0816,4.0816,4.0816,4.0739,4.0197,3.9965,3.9849,3.8992,3.8644,3.842,3.6789,3.619,3.6151,3.5843,3.5745,3.5718,3.5718,3.5694,3.5706,3.5706,3.5706,3.5715,3.571,3.5718,3.5694,3.5741,3.5752,3.5756,3.5771,3.5814,3.5667,3.5115,3.5055,3.4799,3.3963,3.3313,3.2735,3.2191,3.1343,3.0808,3.0812,3.0812,3.0816,3.0787,3.0788,3.0789,3.0793,3.0796,3.0798,3.0798,3.08,3.0801,3.0801,3.0801,3.0816,3.0813,3.0805,3.0774,3.0689,3.0704,3.0694,3.0694,3.0706,3.0711,3.3667,3.413,3.4322,3.512,3.5308,3.5308,3.5308,3.5376,3.5712,3.6523,3.6744,3.6769,3.6692,3.8123,3.9011,3.8123,3.9396,4.0516,4.0554,4.0554,4.0896,4.1773,4.1928,4.2264,4.3034,4.322,4.2945,4.2177,4.2911,4.3356,4.3356,4.3356,4.3356,4.3317,4.3279,4.2892,4.208,4.2853,4.2776,4.1928,4.1155,4.0771,4.0771,4.0771,4.0771,4.0771,4.0771,4.0771,4.0771,4.0771,4.0774,4.0813,4.0813,4.0816,4.07,3.9887,3.9578,3.9307,3.7638,3.7016,3.6823,3.6013,3.5745,3.5745,3.5706,3.5706,3.5706,3.5706,3.5706,3.5706,3.5706,3.5706,3.572,3.5691,3.5704,3.5715,3.5799,3.5808,3.5808,3.5771,3.585,3.5645,3.4789,3.3297,3.2227,3.2227,3.1445,3.0864,3.0799,3.08,3.0805,3.0816,3.0817,3.0817,3.0818,3.0787,3.0792,3.0792,3.0797,3.08,3.08,3.08,3.0811,3.0781,3.0812,3.0786,3.0703,3.0728,3.0699,3.0699,3.0691,3.0704,3.3895,3.4488,3.5043,3.5231,3.5308,3.5308,3.5308,3.5818,3.6366,3.66,3.7122,3.7417,3.6806,3.8104,3.9011,3.8123,3.9396,4.0743,4.1393,4.1466,4.1777,4.2662,4.2786,4.2871,4.3063,4.3681,4.4017,4.3798,4.3987,4.4121,4.4121,4.4121,4.3851,4.3233,4.3233,4.3118,4.2886,4.2461,4.1809,4.0966,4.0735,4.0661,4.0661,4.0661,4.0661,4.0661,4.0661,4.0661,4.0661,4.0684,4.0733,4.0736,4.0765,4.0816,4.0774,4.0545,4.0468,4.0313,3.923,3.8411,3.7712,3.6861,3.6593,3.6477,3.59,3.5706,3.5706,3.5706,3.5706,3.5706,3.5706,3.5706,3.5709,3.5684,3.5689,3.5692,3.5705,3.5749,3.572,3.5718,3.5765,3.5755,3.5521,3.4623,3.3947,3.3947,3.2721,3.1526,3.0864,3.0786,3.0791,3.0804,3.0806,3.0809,3.0817,3.0781,3.0782,3.0782,3.0784,3.0785,3.0785,3.0785,3.0806,3.0781,3.0818,3.0802,3.0781,3.0768,3.0762,3.0762,3.0768,3.0772,3.4423,3.4898,3.5258,3.5258,3.5258,3.5258,3.5258,3.5657,3.6132,3.6519,3.7007,3.7187,3.673,3.8074,3.8989,3.8101,3.9731,4.1239,4.1735,4.2119,4.2696,4.3547,4.3624,4.3778,4.4167,4.4654,4.4936,4.4936,4.495,4.4982,4.4982,4.4982,4.4751,4.4326,4.4288,4.4288,4.4288,4.2702,4.1857,4.1714,4.0977,4.0591,4.0591,4.0591,4.0591,4.0591,4.0591,4.0591,4.0595,4.0651,4.0657,4.0661,4.0684,4.0691,4.0691,4.0691,4.0691,4.0652,4.0153,3.9647,3.9068,3.7858,3.748,3.7326,3.6477,3.6245,3.6168,3.5784,3.5706,3.5706,3.5706,3.5706,3.5706,3.5706,3.5706,3.5706,3.5706,3.5706,3.5684,3.5696,3.5729,3.5752,3.5773,3.5096,3.4568,3.4568,3.3148,3.1876,3.1405,3.1038,3.0784,3.0792,3.0792,3.0795,3.0803,3.0808,3.0811,3.0811,3.0815,3.0818,3.0818,3.0818,3.0794,3.0815,3.0781,3.0813,3.079,3.0799,3.0781,3.0781,3.0793,3.0994,3.5343,3.553,3.5492,3.5415,3.5454,3.5454,3.5263,3.5406,3.582,3.6437,3.6588,3.6577,3.6577,3.792,3.8792,3.8028,4.0015,4.1727,4.1927,4.2624,4.3431,4.4359,4.4474,4.4782,4.5518,4.5594,4.5594,4.5594,4.5667,4.5707,4.5707,4.5707,4.5707,4.5707,4.5707,4.563,4.5514,4.3308,4.2498,4.3007,4.1464,4.0693,4.0577,4.0577,4.0577,4.0577,4.0577,4.0577,4.0577,4.0584,4.0584,4.0584,4.0591,4.0591,4.0591,4.0591,4.0591,4.0591,4.0591,4.0591,4.0331,3.8839,3.8355,3.82,3.7311,3.6966,3.6734,3.6041,3.5773,3.5701,3.5701,3.5704,3.5706,3.5706,3.5706,3.5706,3.5706,3.5706,3.5681,3.5689,3.5696,3.5711,3.5791,3.5178,3.4675,3.4675,3.3322,3.2279,3.2163,3.1361,3.0772,3.0776,3.0776,3.0777,3.0781,3.0792,3.0799,3.0799,3.0808,3.0815,3.0781,3.0816,3.0817,3.0786,3.0817,3.0781,3.0819,3.0788,3.0873,3.0987,3.0969,3.1446,3.7215,3.7254,3.7101,3.6447,3.6753,3.691,3.553,3.6264,3.7152,3.6612,3.6535,3.6534,3.6534,3.7408,3.8096,3.7905,3.9492,4.1237,4.2658,4.3008,4.3662,4.5205,4.5359,4.5436,4.5594,4.5594,4.5594,4.5594,4.5607,4.5616,4.5616,4.5616,4.5616,4.5616,4.5616,4.527,4.4534,4.4111,4.326,4.2028,4.1759,4.1224,4.0535,4.0535,4.0535,4.0535,4.0535,4.0535,4.0539,4.0569,4.0618,4.0583,4.0619,4.0591,4.0591,4.0591,4.0591,4.0591,4.0591,4.0591,4.0437,3.9518,3.9209,3.9016,3.8167,3.7395,3.6778,3.6662,3.6146,3.5631,3.5631,3.5648,3.5706,3.5706,3.5706,3.5706,3.5706,3.5706,3.5709,3.5717,3.5681,3.5684,3.5733,3.5575,3.5485,3.5485,3.4663,3.3792,3.3097,3.1672,3.072,3.0707,3.0709,3.0757,3.0818,3.0783,3.0784,3.0784,3.0786,3.0803,3.0789,3.0805,3.0815,3.0812,3.0807,3.0815,3.0819,3.0816,3.116,3.1888,3.1852,3.2321,3.7597,3.7716,3.7521,3.671,3.7096,3.7254,3.5568,3.618,3.6829,3.5989,3.5818,3.5835,3.5835,3.6598,3.7362,3.7766,3.9324,4.1038,4.2748,4.3423,4.4166,4.5401,4.5577,4.5594,4.5594,4.5594,4.5594,4.5594,4.5594,4.5594,4.5594,4.5594,4.5594,4.5594,4.5594,4.5398,4.4975,4.4513,4.3893,4.3085,4.2701,4.2008,4.1162,4.1162,4.0935,4.0516,4.0516,4.0516,4.0516,4.0535,4.0542,4.0542,4.0565,4.0534,4.0534,4.0534,4.0534,4.0534,4.0534,4.0534,4.0495,4.0103,4.0012,3.9851,3.9038,3.815,3.7382,3.6913,3.6237,3.5599,3.5599,3.5611,3.5661,3.5661,3.5634,3.5646,3.5646,3.5695,3.5706,3.5706,3.5706,3.5706,3.5706,3.5689,3.5705,3.5705,3.4989,3.4308,3.3884,3.2719,3.1617,3.0788,3.0717,3.0724,3.0737,3.0739,3.0739,3.0739,3.0739,3.0767,3.0737,3.0762,3.0742,3.0816,3.0811,3.1012,3.1483,3.1483,3.1909,3.2797,3.2797,3.3228,3.8018,3.8247,3.8056,3.7249,3.7517,3.7521,3.5874,3.6023,3.6252,3.5377,3.5186,3.5186,3.5186,3.5945,3.6854,3.7662,3.9121,4.076,4.2644,4.3519,4.4353,4.5365,4.5555,4.5581,4.559,4.5594,4.5594,4.5594,4.5594,4.5594,4.5594,4.5594,4.5594,4.5594,4.5594,4.5594,4.5594,4.4936,4.4474,4.4278,4.3662,4.2893,4.2081,4.1889,4.1431,4.0781,4.0593,4.0516,4.0516,4.0516,4.0516,4.0516,4.0516,4.0516,4.0516,4.0516,4.0516,4.0516,4.0516,4.0516,4.0516,4.0516,4.0557,4.0412,3.9634,3.8789,3.7906,3.7009,3.6209,3.5569,3.5569,3.5572,3.5617,3.5617,3.5596,3.5614,3.5614,3.5631,3.569,3.5695,3.5698,3.5698,3.5706,3.5706,3.5706,3.5706,3.5126,3.4626,3.4432,3.3808,3.283,3.1356,3.1062,3.0877,3.0692,3.0694,3.0694,3.0694,3.0694,3.0773,3.1002,3.0801,3.0902,3.1363,3.1166,3.1521,3.2382,3.2382,3.2849,3.3662,3.3662,3.4132,3.9847,4.0076,3.9847,3.9007,3.882,3.8434,3.6748,3.6443,3.6252,3.5377,3.5186,3.5186,3.5186,3.5916,3.677,3.7657,3.8593,4.007,4.2563,4.2955,4.363,4.5283,4.5523,4.5546,4.559,4.5594,4.5594,4.5594,4.5594,4.5594,4.5594,4.5594,4.5594,4.5594,4.5594,4.5594,4.5594,4.5518,4.509,4.4316,4.4239,4.3778,4.2931,4.2158,4.1773,4.1658,4.0858,4.0516,4.0516,4.0516,4.0516,4.0516,4.0516,4.0516,4.0516,4.0516,4.0516,4.0516,4.0516,4.0516,4.0516,4.0516,4.0481,4.0373,3.9561,3.8715,3.7826,3.6937,3.6118,3.5496,3.5496,3.5557,3.5617,3.5617,3.562,3.5581,3.5581,3.5584,3.5593,3.5623,3.5629,3.5637,3.5701,3.5706,3.5706,3.5706,3.5629,3.5281,3.451,3.4316,3.393,3.2965,3.2238,3.1507,3.0768,3.0694,3.0694,3.0694,3.0694,3.1098,3.1922,3.1194,3.1523,3.3123,3.2373,3.2412,3.328,3.328,3.3711,3.4565,3.4565,3.5034,3.9274,3.9885,4.0076,3.9236,3.9011,3.8548,3.6863,3.6481,3.6252,3.5377,3.5186,3.5186,3.5186,3.5492,3.6146,3.7509,3.801,3.9319,4.2398,4.2431,4.2957,4.5199,4.4993,4.4906,4.5428,4.5466,4.5466,4.5466,4.5466,4.5466,4.5466,4.5559,4.5594,4.5594,4.509,4.5051,4.5594,4.459,4.4436,4.509,4.4551,4.4124,4.3816,4.347,4.3047,4.2547,4.1662,4.1277,4.1239,4.0704,4.0516,4.0516,4.0516,4.0516,4.0516,4.0516,4.0516,4.0516,4.0516,4.0516,4.0516,4.0516,4.0516,4.0362,3.955,3.8703,3.7815,3.6965,3.6129,3.5489,3.5489,3.5537,3.5547,3.5547,3.5528,3.5547,3.5547,3.5563,3.5581,3.5593,3.5611,3.5626,3.564,3.5657,3.5706,3.5706,3.5706,3.5552,3.5242,3.5165,3.4855,3.3963,3.313,3.2488,3.216,3.2122,3.2122,3.2122,3.2122,3.2336,3.2753,3.246,3.2615,3.3315,3.3041,3.3319,3.4179,3.418,3.4648,3.5466,3.5466,3.5662,3.882,3.9656,4.0076,3.9236,3.882,3.8247,3.6825,3.629,3.5946,3.5339,3.5186,3.5186,3.5186,3.5415,3.6065,3.7483,3.8132,3.947,4.2374,4.2293,4.2709,4.4786,4.4284,4.4121,4.494,4.5252,4.5405,4.5405,4.5405,4.5405,4.5405,4.5475,4.555,4.555,4.4931,4.4931,4.5512,4.4137,4.4184,4.5573,4.4697,4.4436,4.4667,4.4436,4.397,4.3393,4.2543,4.2043,4.1735,4.1123,4.0743,4.0516,4.0516,4.0516,4.0516,4.0516,4.0516,4.0516,4.0516,4.0516,4.0516,4.0516,4.0516,4.0362,3.955,3.8857,3.82,3.7311,3.6504,3.5808,3.5577,3.55,3.55,3.55,3.5485,3.5509,3.5509,3.5528,3.5586,3.556,3.5581,3.5599,3.5608,3.5634,3.5654,3.5654,3.5701,3.5706,3.5706,3.5706,3.5474,3.4855,3.4234,3.3648,3.3143,3.3104,3.3104,3.3104,3.3104,3.3252,3.3612,3.3425,3.3554,3.4098,3.3905,3.4219,3.5076,3.5078,3.5391,3.6015,3.6015,3.6015,3.9011,3.9656,4.0076,3.9236,3.8362,3.7483,3.6672,3.5836,3.5224,3.5186,3.5186,3.5186,3.5186,3.5908,3.6753,3.7559,3.9159,4.0879,4.2565,4.2794,4.3119,4.401,4.3331,4.3163,4.413,4.494,4.5405,4.5405,4.5405,4.5405,4.5405,4.5405,4.5405,4.5405,4.5405,4.5405,4.5405,4.4646,4.4712,4.5485,4.4684,4.4744,4.5556,4.4705,4.4316,4.4239,4.3431,4.2585,4.1812,4.1773,4.1277,4.0516,4.0516,4.0516,4.0516,4.0516,4.0516,4.0516,4.0516,4.0516,4.0516,4.0516,4.0516,4.0362,3.955,3.9281,3.9088,3.8238,3.735,3.65,3.5692,3.55,3.55,3.55,3.55,3.55,3.55,3.55,3.5514,3.5483,3.549,3.5502,3.5572,3.5602,3.5584,3.5584,3.5648,3.5706,3.5706,3.5706,3.5706,3.5706,3.5668,3.4969,3.3262,3.3104,3.3104,3.3104,3.3104,3.3553,3.4528,3.3749,3.4143,3.5937,3.5117,3.5117,3.5976,3.5976,3.5976,3.6016,3.6016,3.6016,3.7287,3.7899,3.8476,3.8171,3.7903,3.7483,3.6672,3.629,3.6099,3.6099,3.6099,3.6256,3.6795,3.7139,3.7789,3.9236,3.9924,4.107,4.3324,4.3133,4.3334,4.4768,4.4697,4.4626,4.4908,4.5181,4.5334,4.5334,4.5334,4.5334,4.5334,4.5334,4.537,4.5405,4.4863,4.4825,4.5405,4.4034,4.4043,4.5429,4.4637,4.4642,4.5452,4.5184,4.5068,4.503,4.4181,4.372,4.3409,4.279,4.2065,4.1306,4.1306,4.0978,4.0507,4.0507,4.0488,4.0516,4.0516,4.0516,4.0516,4.0516,4.0516,4.0439,4.0208,3.9746,3.9127,3.8238,3.735,3.6657,3.6385,3.5923,3.55,3.55,3.55,3.55,3.55,3.55,3.5503,3.5517,3.5509,3.5493,3.5544,3.5572,3.5593,3.5593,3.5602,3.5614,3.5634,3.5637,3.5646,3.5704,3.5706,3.5474,3.493,3.4891,3.4891,3.4891,3.4891,3.5003,3.5341,3.5141,3.5282,3.5857,3.5698,3.5703,3.6016,3.6016,3.6016,3.6016,3.6016,3.6016,3.6442,3.7096,3.7636,3.733,3.7254,3.702,3.6218,3.6023,3.6023,3.6023,3.6252,3.6634,3.7135,3.775,3.8553,3.9618,4.0611,4.1796,4.3324,4.3362,4.352,4.4289,4.4628,4.4819,4.4819,4.513,4.5283,4.5283,4.5283,4.5283,4.5283,4.5283,4.5314,4.5346,4.4882,4.4844,4.5346,4.4016,4.4025,4.5376,4.4585,4.4633,4.5405,4.5405,4.5405,4.5367,4.4863,4.448,0.0,4.3593,4.2711,4.1681,4.1681,4.12,4.0453,4.0453,4.0486,4.0488,4.0468,4.0484,4.0512,4.0496,4.05,4.0516,4.0516,4.0169,3.9588,3.8742,3.8084,3.7623,3.7273,3.6811,3.635,3.6038,3.5962,3.5885,3.5577,3.55,3.55,3.55,3.5485,3.5502,3.5502,3.5534,3.556,3.556,3.5569,3.5584,3.5605,3.5605,3.5614,3.567,3.5673,3.5679,3.5651,3.5701,3.5684,3.5686,3.5689,3.5705,3.5743,3.5741,3.5797,3.5839,3.5923,3.5975,3.6016,3.6016,3.6016,3.6016,3.6016,3.6016,0.0,3.6973,3.7347,3.66,3.6451,3.6269,3.542,3.5275,0.0,3.5305,3.5989,3.6596,3.6672,3.8013,3.9126,3.9164,4.1151,4.2717,4.2794,4.3477,4.3744,4.3061,4.3629,4.4083,4.4083,4.4819,4.5283,4.5283,4.5283,4.5283,4.5283,4.5283,4.5283,4.5283,4.5283,4.5283,4.5283,4.4564,4.4589,4.536,4.4638,4.4662,4.5395,4.5395,4.5395,4.5395,4.5395,4.4969,4.4274,4.4274,4.3282,4.1787,4.1787,4.1207,4.0402,4.0402,4.0437,4.047,4.0424,4.0432,4.0496,4.0495,4.0507,4.0504,4.0508,4.0512,4.0323,3.9592,3.9358,3.9127,3.8315,3.8046,3.7815,3.6965,3.6773,3.658,3.5846,3.5615,3.5577,3.5577,3.5538,3.55,3.55,3.5495,3.5486,3.5486,3.555,3.5572,3.5575,3.5575,3.5575,3.5617,3.5617,3.559,3.5617,3.5648,3.5707,3.5683,3.5689,3.5729,3.58,3.5746,3.5777,3.5913,3.5916,3.5928,3.6016,3.6016,3.6016,3.6016,3.6016,3.6016,3.5772,0.0,3.589,3.5563,3.609,3.6416,0.0,3.5787,3.6339,3.6205,3.6867,3.7636,3.8281,3.9274,4.0191,4.0807,4.1423,4.203,4.2717,4.3477,4.4164,4.4671,4.4901,4.4972,4.4972,4.5168,4.5283,4.5283,4.5283,4.5283,4.5283,4.5283,4.5283,4.5283,4.5283,4.5283,4.5283,4.5102,4.5107,4.5304,4.5123,4.5128,4.5324,4.5324,4.5324,4.5324,4.5324,4.5204,4.5051,4.5051,4.4057,4.2522,4.2522,4.1628,4.032,4.032,4.0389,4.0424,4.0411,4.0424,4.0402,4.0428,4.0432,4.0411,4.0491,4.0488,4.0477,4.0285,3.9781,3.9242,3.905,3.8511,3.7969,3.7738,3.77,3.7623,3.7469,3.6888,3.6423,3.6423,3.5923,3.55,3.55,3.551,3.5517,3.5517,3.5524,3.5502,3.5534,3.5502,3.555,3.5575,3.5617,3.5581,3.5587,3.5617,3.5654,3.5702,3.5715,3.5724,3.5725,3.5768,3.5823,3.5913,3.5932,3.5976,3.6016,3.6016,3.6016,3.6016,3.6016,3.6016,3.5688,3.5856,3.6058,3.6017,3.6401,3.6669,3.6091,3.6042,3.6059,3.6013,3.6888,3.7827,3.8323,3.9427,4.0458,4.0883,4.1266,4.1915,4.3171,4.405,4.4781,4.5244,4.5283,4.5283,4.5283,4.5283,4.5283,4.5283,4.5283,4.5283,4.5283,4.5283,4.5283,4.5283,4.5283,4.5283,4.5283,4.5283,4.5283,4.5283,4.5283,4.5283,4.5283,4.5283,4.5283,4.5283,4.5283,4.5283,4.5283,4.5283,4.4513,4.3324,4.2947,4.2006,4.0811,4.0424,4.0341,4.0338,4.035,4.0359,4.0342,4.0402,4.0407,4.0411,4.0441,4.0466,4.046,4.0504,4.0208,3.9861,3.9861,3.9511,3.905,3.8665,3.8588,3.8473,3.8084,3.7623,3.7196,3.6773,3.6346,3.5923,3.5577,3.55,3.55,3.55,3.55,3.551,3.5495,3.5499,3.5505,3.5563,3.5563,3.5534,3.5554,3.5534,3.5604,3.5732,3.5704,3.5743,3.5777,3.5786,3.5819,3.5902,3.5969,3.6014,3.6014,3.6014,3.6014,3.6014,3.6014,3.6014,3.5931,3.6638,3.727,3.6964,3.7005,3.7094,3.7074,3.6425,3.5849,3.5827,3.6922,3.7998,3.8146,3.9434,4.0544,4.0691,4.1289,4.2221,4.3777,4.4628,4.5168,4.5283,4.5283,4.5283,4.5283,4.5283,4.5283,4.5283,4.5283,4.5283,4.5283,4.5283,4.5283,4.5283,4.5283,4.5283,4.5283,4.5283,4.5283,4.5283,4.5283,4.5283,4.5283,4.5283,4.5283,4.5283,4.5283,4.5283,4.5283,4.5283,4.4704,4.3739,4.3061,4.2183,4.1227,4.0535,4.0295,4.0289,4.0281,4.0295,4.0302,4.0376,4.0385,4.0385,4.0394,4.0398,4.0415,4.0468,4.05,4.0508,4.0512,4.0516,4.0323,3.9665,3.9473,3.9281,3.8546,3.8277,3.7969,3.7234,3.7004,3.6696,3.6,3.5769,3.5692,3.5692,3.5577,3.55,3.55,3.55,3.55,3.55,3.55,3.5517,3.5515,3.5518,3.5596,3.5766,3.5726,3.5766,3.5884,3.5855,3.5853,3.5886,3.5961,3.601,3.601,3.601,3.601,3.601,3.601,3.601,3.6774,3.8127,3.8947,3.7314,3.7494,3.8042,3.7951,3.7874,3.7824,3.773,3.8358,3.9215,4.0095,4.0844,4.1595,4.2454,4.2607,4.2947,4.3854,4.4121,4.447,4.5206,4.5283,4.5283,4.5283,4.5283,4.5283,4.5283,4.5283,4.5283,4.5283,4.5283,4.5283,4.5283,4.5283,4.5283,4.5283,4.5283,4.5283,4.5283,4.5283,4.5283,4.5283,4.5283,4.5283,4.5283,4.5283,4.5283,4.5283,4.5283,4.4404,4.2985,4.2832,4.1834,4.0458,4.0344,4.031,4.0315,4.0306,4.031,4.0315,4.0324,4.0324,4.0334,4.0302,4.0316,4.0329,4.0415,4.0462,4.0503,4.0504,4.0516,4.0477,4.0362,4.0323,4.0285,4.0169,3.9588,3.905,3.8934,3.8315,3.7777,3.7623,3.7004,3.6504,3.6504,3.5923,3.55,3.55,3.55,3.55,3.55,3.55,3.5503,3.551,3.551,3.5544,3.562,3.5734,3.5822,3.5885,3.5952,3.5954,3.5888,3.5961,3.601,3.601,3.601,3.601,3.601,3.601,3.601,3.6395,3.7759,3.8992,3.8576,3.9482,4.02,3.9228,3.9021,3.8851,3.8338,3.8774,3.9435,3.9894,4.0949,4.2029,4.296,4.3439,4.3808,4.412,4.4528,4.4911,4.526,4.5283,4.5283,4.5283,4.5283,4.5283,4.5283,4.5283,4.5283,4.5283,4.5283,4.5283,4.5283,4.5283,4.5283,4.5283,4.5283,4.5283,4.5283,4.5283,4.5283,4.5283,4.5283,4.5283,4.5283,4.5283,4.5283,4.5283,4.5283,4.4551,4.34,4.2985,4.203,4.0883,4.0458,4.0306,4.0306,4.0306,4.0306,4.0306,4.0306,4.0306,4.031,4.0295,4.0304,4.0314,4.032,4.0407,4.0453,4.0503,4.0515,4.0484,4.0508,4.0516,4.0516,4.0516,4.0208,3.9823,3.9396,3.8973,3.855,3.8084,3.7661,3.7388,3.7388,3.7081,3.685,3.685,3.6427,3.635,3.6811,3.6427,3.635,3.6811,3.685,3.6518,3.5701,3.5779,3.5896,3.5941,3.5996,3.5997,3.5942,3.5996,3.6002,3.6002,3.6002,3.6002,3.6002,3.6002,3.6002,3.6162,3.7331,3.8656,3.9316,4.0602,4.1499,4.0602,3.9981,3.9552,3.928,3.9515,3.9871,4.0327,4.1585,4.2833,4.3657,4.4343,4.4759,4.4634,4.5116,4.546,4.5341,4.5314,4.5283,4.5283,4.5283,4.5283,4.5283,4.5283,4.5283,4.5283,4.5283,4.5283,4.5283,4.5283,4.5283,4.5283,4.5283,4.5283,4.5283,4.5283,4.5283,4.5283,4.5283,4.5283,4.5283,4.5283,4.5283,4.5283,4.5283,4.4781,4.393,4.3095,4.2144,4.1151,4.0535,4.0306,4.0306,4.0306,4.0306,4.0306,4.0306,4.0306,4.0306,4.0306,4.0306,4.031,4.0314,4.035,4.0389,4.0449,4.0466,4.0478,4.0488,4.05,4.05,4.0512,4.0516,4.0323,3.9704,3.9588,3.9358,3.8703,3.843,3.8315,3.8315,3.8123,3.8007,3.8007,3.7427,3.7273,3.793,3.7388,3.7273,3.793,3.8007,3.743,3.6071,3.6124,3.6147,3.5991,3.5992,3.5992,3.5992,3.5992,3.5992,3.5992,3.5992,3.5992,3.5992,3.5992,3.5992,3.6902,3.7798,3.8539,3.8578,3.9277,4.0369,4.1809,4.0911,4.0206,4.1687,4.1353,4.1314,4.299,4.3951,4.4708,4.5402,4.5571,4.5606,4.5596,4.5541,4.5509,4.5496,4.5366,4.5283,4.5283,4.5283,4.5283,4.5283,4.5283,4.5283,4.5283,4.5283,4.5283,4.5283,4.5283,4.5283,4.5283,4.5283,4.5283,4.5283,4.5283,4.5283,4.5283,4.5283,4.5283,4.5283,4.5283,4.5283,4.5283,4.5283,4.4781,4.393,4.3095,4.1796,4.0382,4.0306,4.0306,4.0306,4.0306,4.0306,4.0306,4.0306,4.0306,4.0306,4.0306,4.0306,4.0306,4.031,4.031,4.0334,4.0389,4.0411,4.0424,4.0478,4.0491,4.0503,4.0504,4.0516,4.0477,4.0439,4.04,4.04,4.0323,3.9704,3.9204,3.9204,3.8511,3.8007,3.8007,3.7969,3.793,3.8007,3.793,3.793,3.8007,3.8007,3.7701,3.696,3.6978,3.6692,3.603,3.5992,3.5992,3.5992,3.5992,3.5992,3.5992,3.5992,3.5992,3.5992,3.5992,3.5992,3.6317,3.7409,3.8617,3.9161,3.955,4.0096,4.1304,4.1887,4.2354,4.2978,4.284,4.2947,4.4184,4.4633,4.5069,4.5889,4.6,4.5976,4.5905,4.5851,4.5747,4.565,4.5579,4.5539,4.5539,4.5473,4.5405,4.5405,4.536,4.5283,4.5283,4.5283,4.5283,4.5283,4.5283,4.5283,4.5283,4.5283,4.5283,4.5283,4.5283,4.5283,4.5283,4.5283,4.5283,4.5283,4.5283,4.5283,4.5283,4.5283,4.4781,4.3854,4.2526,4.1304,4.0306,4.0306,4.0306,4.0306,4.0306,4.0306,4.0306,4.0306,4.0306,4.0306,4.0306,4.0306,4.0306,4.0306,4.0306,4.032,4.0311,4.0329,4.0389,4.0466,4.0482,4.0495,4.0504,4.0516,4.0516,4.0516,4.0516,4.0516,4.0516,4.0246,4.0054,4.0054,3.9781,3.955,3.955,3.9127,3.9011,3.9511,3.955,3.955,3.955,3.9683,3.9384,3.8604,3.7591,3.6729,3.6029,3.5992,3.5992,3.5992,3.5992,3.5992,3.5992,3.5992,3.5992,3.5992,3.5992,3.5992,3.624,3.737,3.8656,3.9239,3.9589,4.0096,4.1226,4.2159,4.2978,4.3484,4.3836,4.4189,4.4775,4.4894,4.5205,4.6061,4.6217,4.616,4.6099,4.6022,4.5931,4.5806,4.5753,4.5687,4.5687,4.5627,4.5559,4.5559,4.5482,4.5443,4.5443,4.5443,4.5443,4.5443,4.5443,4.5443,4.5443,4.5443,4.5443,4.5443,4.5443,4.5376,4.5283,4.5283,4.5283,4.5283,4.5283,4.5283,4.5283,4.5283,4.4628,4.3515,4.2374,4.1266,4.0306,4.0306,4.0306,4.0306,4.0306,4.0306,4.0306,4.0306,4.0306,4.0306,4.0306,4.0306,4.0306,4.0306,4.0306,4.031,4.0309,4.028,4.0302,4.0424,4.0441,4.0458,4.048,4.0492,4.0496,4.0512,4.0516,4.0516,4.0516,4.0516,4.0516,4.0516,4.0516,4.0516,4.0516,4.0015,3.99,4.0439,4.0523,4.053,4.0519,4.0627,4.0366,3.9539,3.8412,3.7361,3.6458,3.6422,3.6265,3.5992,3.5992,3.5992,3.5992,3.5992,3.5992,3.5992,3.5992,3.5992,3.6941,3.7837,3.85,3.85,3.9161,4.0252,4.1926,4.1693,4.1615,4.3289,4.4306,4.4894,4.4894,4.4894,4.5205,4.6061,4.6217,4.6217,4.6217,4.6106,4.6002,4.6002,4.5815,4.5691,4.5691,4.5691,4.5687,4.5687,4.5687,4.5687,4.5687,4.5687,4.5687,4.5687,4.5687,4.5687,4.5687,4.5687,4.5687,4.5687,4.5687,4.5555,4.5288,4.5288,4.5288,4.5288,4.5288,4.5283,4.5283,4.5283,4.4327,4.2794,4.2794,4.1796,4.0306,4.0306,4.0306,4.0306,4.0306,4.0306,4.0306,4.0306,4.0306,4.0306,4.0306,4.0306,4.0306,4.0306,4.0306,4.0306,4.0306,4.0306,4.0315,4.0293,4.0307,4.0334,4.0462,4.0482,4.0499,4.0504,4.0516,4.0516,4.0516,4.0516,4.0516,4.0516,4.0516,4.0516,4.0516,4.0516,4.0516,4.0516,4.0615,4.0646,4.0496,4.0481,4.0223,3.957,3.9507,3.8843,3.7357,3.7321,3.6891,3.6031,3.5992,3.5992,3.5992,3.5992,3.5992,3.5992,3.5992,3.5992,3.5617,3.6902,3.85,3.85,4.0057,4.1692,4.2198,4.2588,4.3369,4.5085,4.5632,4.5827,4.5827,4.5827,4.5905,4.6178,4.6217,4.6217,4.6217,4.6158,4.6142,4.6142,4.608,4.6063,4.6063,4.5958,4.5908,4.5908,4.5783,4.5687,4.5687,4.5687,4.5687,4.5687,4.5687,4.5687,4.5687,4.5687,4.5687,4.5687,4.5687,4.5679,4.5583,4.5583,4.5513,4.5428,4.5428,4.5386,4.5283,4.5283,4.4666,4.3591,4.3023,4.2106,4.1074,4.0497,4.0306,4.0306,4.0306,4.0306,4.0306,4.0306,4.0306,4.0306,4.0306,4.0306,4.0306,4.0306,4.0306,4.0306,4.0306,4.0306,4.0315,4.0293,4.0307,4.0325,4.042,4.0428,4.0445,4.0495,4.0503,4.0515,4.0508,4.0516,4.0516,4.0516,4.0516,4.0516,4.0516,4.0574,4.0636,4.0636,4.0715,4.0731,4.0696,4.0803,4.0751,4.0567,4.0619,3.9913,3.8298,3.822,3.779,3.693,3.6891,3.6618,3.5992,3.5992,3.5992,3.5992,3.5992,3.5992,3.6668,3.8071,3.9511,3.9511,4.0914,4.2471,4.3174,4.3759,4.4501,4.5905,4.6217,4.6217,4.6217,4.6165,4.616,4.6215,4.6165,4.6162,4.6215,4.6217,4.6217,4.6217,4.6217,4.6217,4.6217,4.6134,4.6063,4.6063,4.5966,4.5886,4.5886,4.5886,4.5886,4.5886,4.5886,4.5886,4.5886,4.5886,4.5886,4.5886,4.5886,4.5886,4.5883,4.578,4.5676,4.5579,4.5579,4.5522,4.5446,4.5405,4.4873,4.4016,4.3134,4.2259,4.1385,4.0611,4.0306,4.0306,4.0306,4.0306,4.0306,4.0306,4.0306,4.0306,4.0306,4.0306,4.0306,4.0306,4.0306,4.0306,4.0306,4.0306,4.031,4.0304,4.0314,4.0327,4.0334,4.0342,4.0398,4.0445,4.0453,4.047,4.0519,4.0488,4.0492,4.0512,4.0516,4.0539,4.0563,4.0655,4.0732,4.0732,4.0827,4.087,4.0793,4.088,4.0923,4.0989,4.1028,4.0624,3.9625,3.9274,3.8688,3.7829,3.7477,3.7048,3.6539,3.6187,3.5992,3.5992,3.5992,3.6187,3.8928,4.0252,4.0992,4.107,4.1768,4.2857,4.4614,4.5002,4.5234,4.6017,4.6173,4.6173,4.6169,4.6138,4.6124,4.6162,4.614,4.613,4.6169,4.6215,4.6217,4.6217,4.6217,4.6217,4.6217,4.6217,4.6217,4.6217,4.6217,4.6217,4.6217,4.6217,4.6217,4.6217,4.6217,4.6217,4.6217,4.6217,4.6217,4.6217,4.6217,4.6217,4.6174,4.5875,4.5757,4.5747,4.5694,4.5687,4.5677,4.5567,4.5077,4.4325,4.3249,4.2326,4.1523,4.0621,4.0306,4.0306,4.0306,4.0306,4.0306,4.0306,4.0306,4.0306,4.0306,4.0306,4.0306,4.0306,4.0306,4.0306,4.0306,4.0306,4.031,4.0329,4.032,4.0315,4.0289,4.0298,4.0311,4.0394,4.0402,4.0415,4.047,4.0478,4.0495,4.05,4.0508,4.0523,4.0662,4.0757,4.0788,4.0788,4.0915,4.0976,4.0825,4.0816,4.089,4.0997,4.1001,4.1026,4.1108,4.0327,3.9546,3.8728,3.7868,3.7399,3.7282,3.6422,3.5992,3.5992,3.5992,3.6422,3.7603,3.8889,4.0252,4.0914,4.2176,4.3708,4.5427,4.579,4.5813,4.6085,4.613,4.6119,4.6042,4.6025,4.6022,4.6032,4.6097,4.6119,4.613,4.616,4.6217,4.6217,4.6217,4.6217,4.6217,4.6217,4.6217,4.6217,4.6217,4.6217,4.6217,4.6217,4.6217,4.6217,4.6217,4.6217,4.6217,4.6217,4.6217,4.6217,4.6217,4.6217,4.6217,4.6142,4.6044,4.5919,4.5777,4.5687,4.5684,4.5652,4.556,4.5236,4.361,4.2847,4.2484,4.0906,4.0306,4.0306,4.0306,4.0306,4.0306,4.0306,4.0306,4.0306,4.0306,4.0306,4.0306,4.0306,4.0306,4.0306,4.0306,4.0306,4.0343,4.0423,4.0381,4.0306,4.032,4.0281,4.03,4.0311,4.032,4.0334,4.0415,4.0424,4.0437,4.044,4.0406,4.0438,4.0519,4.0706,4.0788,4.0788,4.0962,4.1055,4.1044,4.1044,4.1048,4.1096,4.1096,4.1061,4.1108,4.0913,4.0406,3.9546,3.8727,3.7985,3.7282,3.6422,3.5992,3.5992,3.5992,3.6109,3.8106,3.906,4.0124,4.1832,4.2862,4.3935,4.5651,4.602,4.6002,4.6004,4.6025,4.6035,4.6004,4.5978,4.5967,4.5997,4.6002,4.6022,4.6108,4.6117,4.6126,4.6148,4.615,4.615,4.615,4.6167,4.6217,4.6217,4.6217,4.6217,4.6217,4.6217,4.6217,4.6217,4.6217,4.6217,4.6217,4.6217,4.6217,4.6217,4.6217,4.6217,4.6217,4.6217,4.6156,4.6072,4.5978,4.5952,4.595,4.5852,4.5828,4.566,4.3814,4.3096,4.2884,4.1054,4.0411,4.0398,4.0338,4.0306,4.0306,4.0306,4.0306,4.0306,4.0306,4.0306,4.0306,4.0306,4.0336,4.0411,4.0411,4.0411,4.0419,4.0552,4.0504,4.0394,4.0476,4.0496,4.048,4.0423,4.0411,4.0394,4.0347,4.0368,4.0402,4.0381,4.041,4.0442,4.0512,4.0689,4.0827,4.0943,4.1044,4.1109,4.1109,4.1109,4.1109,4.1109,4.1109,4.1109,4.1109,4.1109,4.0874,4.0445,3.9235,3.8376,3.7907,3.6618,3.5992,3.5992,3.5992,3.6226,3.8906,3.9686,4.0407,4.2886,4.35,4.3883,4.5439,4.5861,4.5955,4.5905,4.5944,4.5983,4.5972,4.5929,4.5911,4.5961,4.5938,4.5947,4.6039,4.6022,4.6017,4.6099,4.6065,4.6106,4.6115,4.6148,4.6171,4.6217,4.6217,4.6217,4.6217,4.6217,4.6217,4.6217,4.6217,4.6217,4.6217,4.6217,4.6217,4.6217,4.6217,4.6217,4.6217,4.6217,4.6217,4.6217,4.6217,4.6217,4.6173,4.6063,4.5949,4.5629,4.3916,4.3124,4.2799,4.1156,4.0519,4.0535,4.0424,4.0367,4.0367,4.0367,4.0345,4.0318,4.0318,4.0318,4.0318,4.0318,4.0419,4.0519,4.0519,4.0519,4.0556,4.07,4.0646,4.0584,4.0678,4.0697,4.0665,4.0541,4.0535,4.0472,4.032,4.0347,4.039,4.039,4.0436,4.0512,4.0584,4.0746,4.0915,4.1063,4.1109,4.1109,4.1109,4.1109,4.1109,4.1109,4.1109,4.1109,4.1109,4.1109,4.1109,4.1109,3.9587,3.8728,3.8611,3.7009,3.6148,3.5992,3.6148,3.6618,3.8109,3.9645,4.1186,4.3044,4.3469,4.3662,4.4638,4.537,4.5831,4.5821,4.5877,4.5905,4.5844,4.5827,4.5824,4.5834,4.5877,4.5914,4.5932,4.5972,4.6002,4.601,4.6012,4.603,4.6074,4.6122,4.614,4.6215,4.6217,4.6217,4.6217,4.6217,4.6217,4.6217,4.6217,4.6217,4.6217,4.6217,4.6217,4.6217,4.6217,4.6217,4.6217,4.6217,4.6217,4.6217,4.6217,4.6217,4.6217,4.6167,4.5735,4.4949,4.3809,4.291,4.2118,4.107,4.0668,4.0668,4.0649,4.0639,4.0639,4.0639,4.0556,4.048,4.048,4.048,4.048,4.048,4.0559,4.0668,4.0668,4.0668,4.0703,4.0822,4.0876,4.0806,4.0718,4.0697,4.0691,4.0675,4.057,4.046,4.0309,4.0324,4.0291,4.0291,4.0338,4.0496,4.095,4.1043,4.1087,4.1104,4.1109,4.1109,4.1109,4.1109,4.1109,4.1109,4.1109,4.1109,4.1109,4.1109,4.1109,4.1109,4.0132,3.9313,3.8611,3.7595,3.6735,3.6031,3.6774,3.7204,3.8319,3.9917,4.1249,4.2956,4.3734,4.4176,4.4567,4.5243,4.5803,4.5803,4.5831,4.5844,4.581,4.5803,4.5803,4.5803,4.5831,4.5867,4.5905,4.5902,4.5911,4.5947,4.595,4.5961,4.5989,4.6044,4.6124,4.6144,4.6165,4.6217,4.6217,4.6217,4.6217,4.6217,4.6217,4.6217,4.6217,4.6217,4.6217,4.6217,4.6217,4.6217,4.6217,4.6217,4.6217,4.6217,4.6217,4.6217,4.6217,4.6217,4.5983,4.5475,4.4075,4.328,4.2764,4.1344,4.0798,4.079,4.0721,4.0697,4.0697,4.0697,4.0655,4.0605,4.0605,4.0605,4.0605,4.0605,4.0706,4.0798,4.0798,4.0798,4.0866,4.0962,4.0945,4.091,4.0921,4.0926,4.091,4.0811,4.0655,4.0489,4.041,4.0363,4.0306,4.0306,4.0569,4.0811,4.1054,4.1109,4.1081,4.1108,4.1111,4.1111,4.1111,4.1084,4.1092,4.1092,4.1092,4.1095,4.11,4.1101,4.1104,4.1108,4.0249,3.9624,3.9274,3.7946,3.736,3.7438,3.736,3.7556,3.831,3.9649,4.0599,4.2486,4.3476,4.4056,4.452,4.5065,4.5494,4.5494,4.5494,4.5494,4.5494,4.5649,4.5803,4.5803,4.5803,4.5824,4.5877,4.5841,4.5824,4.5877,4.5883,4.589,4.5908,4.5991,4.6051,4.6113,4.6146,4.6167,4.6217,4.6217,4.6217,4.6217,4.6217,4.6217,4.6217,4.6217,4.6217,4.6217,4.6217,4.6217,4.6217,4.6217,4.6217,4.6217,4.6217,4.6061,4.5866,4.5866,4.5593,4.5085,4.3798,4.3133,4.2815,4.1435,4.0943,4.0932,4.0858,4.079,4.079,4.079,4.0771,4.0745,4.0745,4.0745,4.0745,4.0745,4.0866,4.0943,4.0943,4.0943,4.0999,4.1096,4.1029,4.0962,4.1098,4.1109,4.1048,4.0926,4.0706,4.0573,4.0549,4.0415,4.0332,4.048,4.0822,4.1109,4.1109,4.1109,4.1109,4.1109,4.1109,4.1109,4.1109,4.1091,4.1106,4.1109,4.1112,4.1119,4.1093,4.1094,4.1098,4.1108,4.0445,4.0015,3.9819,3.8531,3.8141,3.8572,3.8141,3.8298,3.756,3.8295,3.8953,4.1429,4.2086,4.2589,4.421,4.4636,4.4675,4.4675,4.4675,4.4675,4.4675,4.5297,4.5803,4.5803,4.5803,4.5807,4.581,4.5807,4.5807,4.581,4.581,4.5838,4.5902,4.5914,4.5969,4.6108,4.6117,4.6138,4.6215,4.6217,4.6217,4.6217,4.6217,4.6217,4.6217,4.6217,4.6217,4.6217,4.6217,4.6217,4.6217,4.6217,4.6217,4.6217,4.6217,4.571,4.4972,4.4972,4.3994,4.2471,4.2393,4.1887,4.1226,4.1104,4.1104,4.1102,4.1099,4.1098,4.1098,4.1098,4.097,4.09,4.09,4.09,4.09,4.09,4.1005,4.1104,4.1104,4.1104,4.1104,4.1107,4.1106,4.1104,4.1107,4.1109,4.1048,4.0926,4.0832,4.0779,4.0703,4.0472,4.0468,4.0962,4.106,4.1109,4.1109,4.1109,4.1109,4.1109,4.1109,4.1109,4.1109,4.111,4.1081,4.1102,4.1109,4.1119,4.1093,4.1094,4.1098,4.1108,4.107,4.064,3.9819,3.9702,3.9312,3.8611,3.9351,3.9702,3.7519,3.8605,3.9382,4.0852,4.2473,4.3708,4.3746,4.421,4.4597,4.4597,4.4172,4.3785,4.3785,4.4442,4.5181,4.5726,4.5803,4.5803,4.5803,4.5803,4.5803,4.5803,4.5803,4.5814,4.5841,4.5883,4.5929,4.5972,4.6042,4.6124,4.6138,4.6165,4.6217,4.6217,4.6217,4.6217,4.6217,4.6217,4.6217,4.6217,4.6217,4.6217,4.6217,4.6217,4.6217,4.6217,4.6217,4.6022,4.5671,4.5127,4.4541,4.3877,4.2745,4.212,4.1809,4.1304,4.1109,4.1109,4.1109,4.1109,4.1109,4.1109,4.1054,4.103,4.103,4.103,4.103,4.103,4.105,4.1109,4.1109,4.1109,4.1109,4.1109,4.1109,4.1109,4.1109,4.1109,4.1101,4.1036,4.1023,4.097,4.095,4.0888,4.0888,4.1055,4.1109,4.1109,4.1109,4.1109,4.1109,4.1109,4.1109,4.1109,4.1109,4.1109,4.1112,4.1081,4.1085,4.1094,4.1109,4.1111,4.1115,4.1089,4.1089,4.0939,4.064,4.0054,3.9937,4.0211,3.9937,4.0093,3.64,3.7754,3.8995,4.0426,4.1857,4.3092,4.3943,4.4136,4.4249,4.4559,4.4133,4.363,4.3359,4.4017,4.4752,4.5297,4.561,4.5803,4.5803,4.5803,4.5803,4.5803,4.5803,4.5803,4.5803,4.5848,4.5886,4.5908,4.5986,4.6035,4.6051,4.6136,4.6165,4.6217,4.6217,4.6217,4.6217,4.6217,4.6217,4.6217,4.6217,4.6217,4.6217,4.6217,4.6217,4.6217,4.6217,4.6022,4.571,4.5127,4.4541,4.3916,4.2745,4.212,4.1848,4.1304,4.1109,4.1109,4.1109,4.1109,4.1109,4.1109,4.1109,4.1109,4.1109,4.1109,4.1109,4.1109,4.1109,4.1109,4.1109,4.1109,4.1109,4.1109,4.1109,4.1109,4.1109,4.1109,4.1109,4.1109,4.1109,4.1109,4.1109,4.1109,4.1109,4.1109,4.1109,4.1109,4.1109,4.1109,4.1109,4.1109,4.1109,4.1109,4.1109,4.1109,4.1109,4.1109,4.1109,4.1117,4.1095,4.1096,4.1102,4.1113,4.1113,4.1085,4.1104,4.0518,4.052,4.1109,4.0523,4.0562,0.0,0.0,0.0,4.0039,4.0081,4.0584,4.4724,4.4407,4.3476,4.4365,4.4559,4.4288,4.3437,4.4017,4.4597,4.4597,4.5297,4.5803,4.5803,4.5803,4.5803,4.5803,4.5803,4.5803,4.5803,4.5803,4.5834,4.5902,4.5908,4.5935,4.5994,4.6049,4.6134,4.6176,4.6215,4.6217,4.6217,4.6217,4.6217,4.6217,4.6217,4.6217,4.6217,4.6217,4.6217,4.6217,4.6217,4.571,4.4933,4.4894,4.3877,4.2354,4.2315,4.1809,4.1109,4.1109,4.1109,4.1109,4.1109,4.1109,4.1109,4.1109,4.1109,4.1109,4.1109,4.1109,4.1109,4.1109,4.1109,4.1109,4.1109,4.1109,4.1109,4.1109,4.1109,4.1109,4.1109,4.1109,4.1109,4.1109,4.1109,4.1109,4.1109,4.1109,4.1109,4.1109,4.1109,4.1109,4.1109,4.1109,4.1109,4.1109,4.1109,4.1109,4.1109,4.1109,4.1109,4.1109,4.1109,4.1117,4.1095,4.1095,4.11,4.1112,4.1112,4.1119,4.1093,4.1093,4.1099,4.1109,4.1109,4.1109,3.4169,0.0,0.0,0.0,0.0,0.0,4.1783,4.1819,4.1896,4.3359,4.3166,4.286,4.3243,4.4017,4.4597,4.4597,4.5297,4.5803,4.5803,4.5803,4.5803,4.5803,4.5803,4.5803,4.5803,4.5803,4.5814,4.5834,4.5883,4.5917,4.5935,4.5994,4.6047,4.6132,4.6134,4.615,4.6217,4.6217,4.6217,4.6217,4.6217,4.6217,4.6217,4.6217,4.6217,4.6217,4.6217,4.6061,4.5788,4.5166,4.4228,4.3172,4.2549,4.1809,4.1109,4.1109,4.1109,4.1109,4.1109,4.1109,4.1109,4.1109,4.1109,4.1109,4.1109,4.1109,4.1109,4.1109,4.1109,4.1109,4.1109,4.1109,4.1109,4.1109,4.1109,4.1109,4.1109,4.1109,4.1109,4.1109,4.1109,4.1109,4.1109,4.1109,4.1109,4.1109,4.1109,4.1109,4.1109,4.1109,4.1109,4.1109,4.1109,4.1109,4.1109,4.1109,4.1109,4.1109,4.1109,4.111,4.1117,4.1117,4.1118,4.1082,4.1082,4.1091,4.1107,4.1085,4.1099,4.1109,4.1109,4.1109,3.4408,3.5645,3.7058,3.7793,0.0,0.0,4.1393,4.1316,4.1393,4.3437,4.3437,4.3243,4.3746,4.4523,4.4987,4.4636,4.5297,4.5803,4.5803,4.5803,4.5803,4.5803,4.5803,4.5803,4.5803,4.5803,4.5803,4.5803,4.5844,4.588,4.5908,4.5944,4.6002,4.6113,4.6115,4.6138,4.6217,4.6217,4.6217,4.6217,4.6217,4.6217,4.6217,4.6217,4.6217,4.6217,4.6217,4.6217,4.6178,4.5632,4.4695,4.3562,4.3056,4.212,4.1109,4.1109,4.1109,4.1109,4.1109,4.1109,4.1109,4.1109,4.1109,4.1109,4.1109,4.1109,4.1109,4.1109,4.1109,4.1109,4.1109,4.1109,4.1109,4.1109,4.1109,4.1109,4.1109,4.1109,4.1109,4.1109,4.1109,4.1109,4.1109,4.1109,4.1109,4.1109,4.1109,4.1109,4.1109,4.1109,4.1109,4.1109,4.1109,4.1109,4.1109,4.1109,4.1109,4.1109,4.1109,4.1109,4.1109,4.1109,4.1109,4.1109,4.1109,4.1118,4.1096,4.1112,4.1089,4.1103,4.1103,4.1105,3.4978,3.5883,3.7426,3.8962,3.8837,0.0,4.2164,4.1819,4.1471,4.3824,4.4326,4.4326,4.4442,4.5104,4.5416,4.4713,4.5297,4.5803,4.5803,4.5803,4.5803,4.5803,4.5803,4.5803,4.5803,4.5803,4.5803,4.5803,4.5803,4.5834,4.5896,4.5899,4.5953,4.6058,4.6106,4.613,4.6171,4.6215,4.6217,4.6217,4.6217,4.6217,4.6217,4.6217,4.6217,4.6217,4.6217,4.6217,4.6217,4.6217,4.5241,4.3757,4.3757,4.2705,4.1226,4.1226,4.1187,4.1109,4.1109,4.1109,4.1109,4.1109,4.1109,4.1109,4.1109,4.1109,4.1109,4.1109,4.1109,4.1109,4.1109,4.1109,4.1109,4.1109,4.1109,4.1109,4.1109,4.1109,4.1109,4.1109,4.1109,4.1109,4.1109,4.1109,4.1109,4.1109,4.1109,4.1109,4.1109,4.1109,4.1109,4.1109,4.1109,4.1109,4.1109,4.1109,4.1109,4.1109,4.1109,4.1109,4.1109,4.1109,4.1109,4.1109,4.1109,4.1117,4.1094,4.1096,4.1111,4.1094,4.1098,4.1105,3.6577,3.7262,3.811,3.8399,3.8837,0.0,4.0081,4.0545,4.1122,4.228,4.2512,4.2705,4.3437,4.4249,4.4791,4.4636,4.5297,4.5803,4.5803,4.5803,4.5803,4.5803,4.5803,4.5803,4.5803,4.5803,4.5803,4.5803,4.5803,4.581,4.5824,4.5827,4.5864,4.5944,4.5994,4.6042,4.6128,4.6164,4.6217,4.6217,4.6217,4.6217,4.6217,4.6217,4.6217,4.6217,4.6217,4.6217,4.6217,4.6217,4.5593,4.4658,4.4658,4.3604,4.2081,4.2081,4.1654,4.1109,4.1109,4.1109,4.1109,4.1109,4.1109,4.1109,4.1109,4.1109,4.1109,4.1109,4.1109,4.1109,4.1109,4.1109,4.1109,4.1109,4.1109,4.1109,4.1109,4.1109,4.1109,4.1109,4.1109,4.1109,4.1109,4.1109,4.1109,4.1109,4.1109,4.1109,4.1109,4.1109,4.1109,4.1109,4.1109,4.1109,4.1109,4.1109,4.1109,4.1109,4.1109,4.1109,4.1109,4.1109,4.1109,4.1109,4.1109,4.111,4.1114,4.1099,4.1118,4.1095,4.1081,4.109,3.7969,3.8295,3.9047,3.9414,3.9483,0.0,0.0,4.0429,4.0623,4.2318,4.2318,4.2396,4.3708,4.394,4.4094,4.452,4.4949,4.5336,4.5726,4.5803,4.5803,4.5803,4.5803,4.5803,4.5803,4.5803,4.5803,4.5803,4.5803,4.5803,4.5803,4.5803,4.5854,4.5953,4.5986,4.6039,4.6148,4.6169,4.6217,4.6217,4.6217,4.6217,4.6217,4.6217,4.6217,4.6217,4.6217,4.6217,4.6217,4.6217,4.5944,4.5515,4.5089,4.4111,4.29,4.2471,4.2042,4.1654,4.1226,4.1109,4.1109,4.1109,4.1109,4.1109,4.1109,4.1109,4.1109,4.1109,4.1109,4.1109,4.1109,4.1109,4.1109,4.1109,4.1109,4.1109,4.1109,4.1109,4.1109,4.1109,4.1109,4.1109,4.1109,4.1109,4.1109,4.1109,4.1109,4.1109,4.1109,4.1109,4.1109,4.1109,4.1109,4.1109,4.1109,4.1109,4.1109,4.1109,4.1109,4.1109,4.1109,4.1109,4.1109,4.1109,4.1109,4.1082,4.1104,4.1118,4.1095,4.1036,4.1054,4.1052,3.9777,3.9765,4.0285,4.0914,4.0532,4.0319,0.0,0.0,0.0,4.2434,4.2241,4.2202,4.3592,4.3437,4.3282,4.3978,4.4365,4.4829,4.5494,4.5687,4.5803,4.5803,4.5803,4.5803,4.5803,4.5803,4.5803,4.5803,4.5803,4.5803,4.5803,4.5803,4.5864,4.598,4.5994,4.6047,4.6167,4.6174,4.6217,4.6217,4.6217,4.6217,4.6217,4.6217,4.6217,4.6217,4.6217,4.6217,4.6217,4.6217,4.6217,4.6139,4.5438,4.4618,4.3759,4.3057,4.2706,4.2432,4.1615,4.1343,4.1304,4.1148,4.1109,4.1109,4.1109,4.1109,4.1148,4.1304,4.1343,4.1382,4.1538,4.1343,4.1109,4.1109,4.1109,4.1109,4.1109,4.1109,4.1109,4.1109,4.1109,4.1109,4.1109,4.1109,4.1109,4.1109,4.1109,4.1109,4.1109,4.1109,4.1109,4.1109,4.1109,4.1109,4.1109,4.1109,4.1109,4.1109,4.1109,4.1109,4.1109,4.1109,4.1109,4.1109,4.1118,4.1102,4.1094,4.1108,4.1082,4.1013,4.101,4.0992,4.3085,4.2493,4.2012,4.2013,4.1937,4.166,4.1079,0.0,4.1587,4.1161,0.0,4.1006,4.12,0.0,0.0,4.228,4.3592,4.4636,4.4713,4.5336,4.5803,4.5803,4.5803,4.5803,4.5803,4.5803,4.5803,4.5803,4.5803,4.5803,4.5803,4.5803,4.5841,4.5917,4.5972,4.603,4.6124,4.6162,4.6217,4.6217,4.6217,4.6217,4.6217,4.6217,4.6217,4.6217,4.6217,4.6217,4.6217,4.6217,4.6217,4.6178,4.61,4.5515,4.4736,4.4658,4.4111,4.3328,4.2471,4.2159,4.2042,4.1343,4.1109,4.1109,4.1109,4.1109,4.1265,4.1965,4.2159,4.2354,4.3133,4.2198,4.1109,4.1109,4.1109,4.1109,4.1109,4.1109,4.1109,4.1109,4.1109,4.1109,4.1109,4.1109,4.1109,4.1109,4.1109,4.1109,4.1109,4.1109,4.1109,4.1109,4.1109,4.1109,4.1109,4.1109,4.1109,4.1109,4.1109,4.1109,4.1109,4.1109,4.1109,4.1109,4.1109,4.109,4.1094,4.1094,4.1089,4.1093,4.1035,4.1002,4.3787,4.3007,4.2416,4.29,4.2199,4.145,4.1572,4.1468,4.1355,4.1534,0.0,0.0,0.0,0.0,0.0,0.0,4.2628,4.3282,4.3785,4.4136,4.472,4.5687,4.5803,4.5803,4.5803,4.5803,4.5803,4.5803,4.5803,4.5803,4.5803,4.5803,4.5858,4.5961,4.5989,4.6042,4.6154,4.6171,4.6217,4.6217,4.6217,4.6217,4.6217,4.6217,4.6217,4.6217,4.6217,4.6217,4.6217,4.6217,4.6217,4.6217,4.6217,4.5983,4.5593,4.5089,4.4658,4.4228,4.3367,4.2705,4.2237,4.1926,4.212,4.2549,4.2549,4.2549,4.2627,4.2978,4.3056,4.3133,4.3523,4.333,4.3059,4.3059,4.3565,4.4072,4.4072,4.4072,4.4072,4.4072,4.4072,4.4072,4.4072,4.2396,4.1109,4.1109,4.1109,4.1109,4.1109,4.1109,4.1109,4.1109,4.1109,4.1109,4.1109,4.1109,4.1109,4.1109,4.1109,4.1109,4.1109,4.1096,4.1109,4.1109,4.1104,4.1083,4.109,4.1093,4.1083,4.1107,4.1024,4.0984,4.4171,4.3396,4.2851,4.3472,4.2444,4.1407,4.1766,4.1336,4.1054,4.1936,4.1595,0.0,0.0,0.0,4.1587,4.1932,0.0,4.2473,4.2899,4.3166,4.3827,4.53,4.5687,4.5803,4.5803,4.5803,4.5803,4.5803,4.5803,4.5803,4.5803,4.5803,4.5871,4.5997,4.5999,4.6051,4.6217,4.6217,4.6217,4.6217,4.6217,4.6217,4.6217,4.6217,4.6217,4.6217,4.6217,4.6217,4.6217,4.6217,4.6217,4.6217,4.6217,4.6217,4.6139,4.5477,4.5244,4.5126,4.4267,4.3408,4.2666,4.2666,4.3094,4.3601,4.3601,4.3601,4.364,4.3875,4.3953,4.3992,4.4265,4.4656,4.497,4.497,4.5593,4.6217,4.6217,4.6217,4.6217,4.6217,4.6217,4.6217,4.6217,4.415,4.2513,4.2513,4.2513,4.2161,4.1226,4.1109,4.1109,4.1109,4.1109,4.1109,4.1109,4.1109,4.1109,4.1109,4.1082,4.1089,4.1089,4.109,4.1105,4.1105,4.1086,4.1093,4.1092,4.109,4.1117,4.1084,4.1036,4.1034,4.4738,4.431,4.3648,4.3688,4.2966,4.2029,4.1208,4.0954,4.1154,4.2013,4.2102,4.2336,4.3199,4.328,4.2937,4.2125,4.2705,0.0,0.0,4.2783,4.363,4.452,4.5336,4.5803,4.5803,4.5803,4.5803,4.5803,4.5803,4.5803,4.5803,4.5803,4.5871,4.5997,4.5999,4.6051,4.6217,4.6217,4.6217,4.6217,4.6217,4.6217,4.6217,4.6217,4.6217,4.6217,4.6217,4.6217,4.6217,4.6217,4.6217,4.6217,4.6217,4.6217,4.6217,4.6178,4.6178,4.6022,4.5165,4.4306,4.3562,4.3562,4.3562,4.3601,4.3601,4.3601,4.3796,4.4619,4.4855,4.5048,4.5905,4.6139,4.6139,4.6139,4.6178,4.6217,4.6217,4.6217,4.6217,4.6217,4.6217,4.6217,4.6217,4.61,4.6022,4.6022,4.6022,4.4853,4.1538,4.1109,4.1109,4.1109,4.1109,4.1109,4.1109,4.1109,4.1109,4.1109,4.1112,4.1092,4.1092,4.1117,4.1087,4.1087,4.1094,4.1092,4.1092,4.1119,4.1109,4.1108,4.1084,4.1042,4.4056,4.391,4.3685,4.3685,4.303,4.2298,4.1991,4.1873,4.1901,4.2198,4.2676,4.3114,4.3427,4.3468,4.3337,4.2995,4.3161,4.3042,0.0,4.2241,4.255,4.286,4.4136,4.5026,4.5026,4.5494,4.5803,4.5803,4.5803,4.5803,4.5803,4.5851,4.5917,4.5997,4.6035,4.6122,4.6217,4.6217,4.6217,4.6217,4.6217,4.6217,4.6217,4.6217,4.6217,4.6217,4.6217,4.6217,4.6217,4.6217,4.6217,4.6217,4.6217,4.6217,4.6217,4.6217,4.6217,4.6061,4.5205,4.5087,4.5241,4.4656,4.4851,4.5319,4.5319,4.5319,4.5397,4.5671,4.5749,4.5827,4.6139,4.6217,4.6217,4.6217,4.6217,4.6217,4.6217,4.6217,4.6217,4.6217,4.6217,4.6217,4.6217,4.6217,4.6217,4.6217,4.6217,4.5788,4.4619,4.4462,4.4033,4.2861,4.1771,4.1109,4.1109,4.1084,4.1108,4.1108,4.1115,4.1119,4.1119,4.1092,4.1094,4.1094,4.1087,4.1119,4.1119,4.1113,4.1109,4.1108,4.1102,4.1074,4.3485,4.3698,4.3753,4.4065,4.3718,4.3258,4.292,4.2848,4.289,4.3202,4.3661,4.4076,4.4389,4.4445,4.4294,4.3977,4.3642,4.3022,0.0,4.1642,4.1634,4.1634,4.3108,4.4249,4.4559,4.4794,4.5146,4.5765,4.5533,4.5494,4.5765,4.5874,4.5938,4.5999,4.6051,4.6138,4.6217,4.6217,4.6217,4.6217,4.6217,4.6217,4.6217,4.6217,4.6217,4.6217,4.6217,4.6217,4.6217,4.6217,4.6217,4.6217,4.6217,4.6217,4.6217,4.6217,4.6217,4.6139,4.5554,4.571,4.61,4.5554,4.5749,4.6217,4.6217,4.6217,4.6217,4.6217,4.6217,4.6217,4.6217,4.6217,4.6217,4.6217,4.6217,4.6217,4.6217,4.6217,4.6217,4.6217,4.6217,4.6217,4.6217,4.6217,4.6217,4.6217,4.6217,4.6217,4.6217,4.6217,4.5788,4.4655,4.3564,4.2685,4.2094,4.1811,4.171,4.1716,4.1327,4.1092,4.1092,4.1092,4.1087,4.1087,4.1116,4.1109,4.1109,4.1109,4.1109,4.1109,4.1109,4.1092]}]]